<?xml version="1.0" encoding="UTF-8" standalone="no" ?>
<gpx xmlns="http://www.topografix.com/GPX/1/1" xmlns:xsi="http://www.w3.org/2001/XMLSchema-instance" xsi:schemaLocation="http://www.topografix.com/GPX/1/1 http://www.topografix.com/GPX/1/1/gpx.xsd" version="1.1" creator="VisuGPX - https://www.visugpx.com">
  <metadata>
    <name>Tour du Jura loisir (Dole - Poligny)</name>
    <desc><![CDATA[Tour du jura loisir 14/06
Partie 1/2]]></desc>
  </metadata>
  <trk>
    <name><![CDATA[Dole Poligny]]></name>
    <trkseg>
      <trkpt lat="47.08966" lon="5.50372">
        <ele>201</ele>
        <time>2014-06-14T00:26:00Z</time>
      </trkpt>
      <trkpt lat="47.0896" lon="5.50355">
        <ele>201</ele>
        <time>2014-06-14T00:26:15Z</time>
      </trkpt>
      <trkpt lat="47.08961" lon="5.5033">
        <ele>201</ele>
        <time>2014-06-14T00:26:30Z</time>
      </trkpt>
      <trkpt lat="47.08989" lon="5.50356">
        <ele>201</ele>
        <time>2014-06-14T00:26:45Z</time>
      </trkpt>
      <trkpt lat="47.0902" lon="5.50349">
        <ele>201</ele>
        <time>2014-06-14T00:27:00Z</time>
      </trkpt>
      <trkpt lat="47.09051" lon="5.5032">
        <ele>200</ele>
        <time>2014-06-14T00:27:15Z</time>
      </trkpt>
      <trkpt lat="47.0909" lon="5.50285">
        <ele>201</ele>
        <time>2014-06-14T00:27:30Z</time>
      </trkpt>
      <trkpt lat="47.0914" lon="5.50244">
        <ele>202</ele>
        <time>2014-06-14T00:27:45Z</time>
      </trkpt>
      <trkpt lat="47.09181" lon="5.50198">
        <ele>203</ele>
        <time>2014-06-14T00:28:00Z</time>
      </trkpt>
      <trkpt lat="47.09214" lon="5.50162">
        <ele>202</ele>
        <time>2014-06-14T00:28:15Z</time>
      </trkpt>
      <trkpt lat="47.09246" lon="5.50128">
        <ele>202</ele>
        <time>2014-06-14T00:28:30Z</time>
      </trkpt>
      <trkpt lat="47.09282" lon="5.50089">
        <ele>203</ele>
        <time>2014-06-14T00:28:45Z</time>
      </trkpt>
      <trkpt lat="47.09312" lon="5.50042">
        <ele>203</ele>
        <time>2014-06-14T00:29:00Z</time>
      </trkpt>
      <trkpt lat="47.09327" lon="5.49989">
        <ele>203</ele>
        <time>2014-06-14T00:29:15Z</time>
      </trkpt>
      <trkpt lat="47.09325" lon="5.4994">
        <ele>204</ele>
        <time>2014-06-14T00:29:30Z</time>
      </trkpt>
      <trkpt lat="47.09351" lon="5.49915">
        <ele>208</ele>
        <time>2014-06-14T00:29:45Z</time>
      </trkpt>
      <trkpt lat="47.09375" lon="5.49937">
        <ele>209</ele>
        <time>2014-06-14T00:30:00Z</time>
      </trkpt>
      <trkpt lat="47.09375" lon="5.50007">
        <ele>206</ele>
        <time>2014-06-14T00:30:15Z</time>
      </trkpt>
      <trkpt lat="47.09373" lon="5.50058">
        <ele>205</ele>
        <time>2014-06-14T00:30:30Z</time>
      </trkpt>
      <trkpt lat="47.09371" lon="5.50116">
        <ele>205</ele>
        <time>2014-06-14T00:30:45Z</time>
      </trkpt>
      <trkpt lat="47.09376" lon="5.50181">
        <ele>205</ele>
        <time>2014-06-14T00:31:00Z</time>
      </trkpt>
      <trkpt lat="47.09365" lon="5.50239">
        <ele>205</ele>
        <time>2014-06-14T00:31:15Z</time>
      </trkpt>
      <trkpt lat="47.09357" lon="5.50292">
        <ele>205</ele>
        <time>2014-06-14T00:31:30Z</time>
      </trkpt>
      <trkpt lat="47.09329" lon="5.50305">
        <ele>204</ele>
        <time>2014-06-14T00:31:45Z</time>
      </trkpt>
      <trkpt lat="47.09305" lon="5.50381">
        <ele>205</ele>
        <time>2014-06-14T00:32:00Z</time>
      </trkpt>
      <trkpt lat="47.09292" lon="5.50441">
        <ele>206</ele>
        <time>2014-06-14T00:32:15Z</time>
      </trkpt>
      <trkpt lat="47.09314" lon="5.50449">
        <ele>207</ele>
        <time>2014-06-14T00:32:30Z</time>
      </trkpt>
      <trkpt lat="47.09321" lon="5.50497">
        <ele>208</ele>
        <time>2014-06-14T00:32:45Z</time>
      </trkpt>
      <trkpt lat="47.09316" lon="5.5055">
        <ele>207</ele>
        <time>2014-06-14T00:33:00Z</time>
      </trkpt>
      <trkpt lat="47.09312" lon="5.50626">
        <ele>206</ele>
        <time>2014-06-14T00:33:15Z</time>
      </trkpt>
      <trkpt lat="47.0931" lon="5.50696">
        <ele>205</ele>
        <time>2014-06-14T00:33:30Z</time>
      </trkpt>
      <trkpt lat="47.09298" lon="5.50766">
        <ele>206</ele>
        <time>2014-06-14T00:33:45Z</time>
      </trkpt>
      <trkpt lat="47.09308" lon="5.50826">
        <ele>206</ele>
        <time>2014-06-14T00:34:00Z</time>
      </trkpt>
      <trkpt lat="47.09304" lon="5.50886">
        <ele>206</ele>
        <time>2014-06-14T00:34:15Z</time>
      </trkpt>
      <trkpt lat="47.093" lon="5.50936">
        <ele>206</ele>
        <time>2014-06-14T00:34:30Z</time>
      </trkpt>
      <trkpt lat="47.09301" lon="5.50994">
        <ele>206</ele>
        <time>2014-06-14T00:34:45Z</time>
      </trkpt>
      <trkpt lat="47.09293" lon="5.51057">
        <ele>206</ele>
        <time>2014-06-14T00:35:00Z</time>
      </trkpt>
      <trkpt lat="47.09284" lon="5.5114">
        <ele>205</ele>
        <time>2014-06-14T00:35:15Z</time>
      </trkpt>
      <trkpt lat="47.09279" lon="5.51222">
        <ele>207</ele>
        <time>2014-06-14T00:35:30Z</time>
      </trkpt>
      <trkpt lat="47.09277" lon="5.51293">
        <ele>208</ele>
        <time>2014-06-14T00:35:45Z</time>
      </trkpt>
      <trkpt lat="47.09284" lon="5.51375">
        <ele>205</ele>
        <time>2014-06-14T00:36:00Z</time>
      </trkpt>
      <trkpt lat="47.09284" lon="5.5148">
        <ele>201</ele>
        <time>2014-06-14T00:36:15Z</time>
      </trkpt>
      <trkpt lat="47.09298" lon="5.51564">
        <ele>201</ele>
        <time>2014-06-14T00:36:30Z</time>
      </trkpt>
      <trkpt lat="47.09314" lon="5.51644">
        <ele>200</ele>
        <time>2014-06-14T00:36:45Z</time>
      </trkpt>
      <trkpt lat="47.0933" lon="5.51723">
        <ele>200</ele>
        <time>2014-06-14T00:37:00Z</time>
      </trkpt>
      <trkpt lat="47.09343" lon="5.51802">
        <ele>201</ele>
        <time>2014-06-14T00:37:15Z</time>
      </trkpt>
      <trkpt lat="47.0936" lon="5.51882">
        <ele>202</ele>
        <time>2014-06-14T00:37:30Z</time>
      </trkpt>
      <trkpt lat="47.09384" lon="5.5195">
        <ele>201</ele>
        <time>2014-06-14T00:37:45Z</time>
      </trkpt>
      <trkpt lat="47.09401" lon="5.5202">
        <ele>200</ele>
        <time>2014-06-14T00:38:00Z</time>
      </trkpt>
      <trkpt lat="47.0941" lon="5.52093">
        <ele>200</ele>
        <time>2014-06-14T00:38:15Z</time>
      </trkpt>
      <trkpt lat="47.0942" lon="5.52164">
        <ele>200</ele>
        <time>2014-06-14T00:38:30Z</time>
      </trkpt>
      <trkpt lat="47.09438" lon="5.52248">
        <ele>201</ele>
        <time>2014-06-14T00:38:45Z</time>
      </trkpt>
      <trkpt lat="47.09455" lon="5.5233">
        <ele>200</ele>
        <time>2014-06-14T00:39:00Z</time>
      </trkpt>
      <trkpt lat="47.09472" lon="5.52421">
        <ele>199</ele>
        <time>2014-06-14T00:39:15Z</time>
      </trkpt>
      <trkpt lat="47.09491" lon="5.5252">
        <ele>199</ele>
        <time>2014-06-14T00:39:30Z</time>
      </trkpt>
      <trkpt lat="47.09508" lon="5.52611">
        <ele>201</ele>
        <time>2014-06-14T00:39:45Z</time>
      </trkpt>
      <trkpt lat="47.09526" lon="5.52689">
        <ele>202</ele>
        <time>2014-06-14T00:40:00Z</time>
      </trkpt>
      <trkpt lat="47.09544" lon="5.52682">
        <ele>202</ele>
        <time>2014-06-14T00:40:15Z</time>
      </trkpt>
      <trkpt lat="47.09543" lon="5.52683">
        <ele>202</ele>
        <time>2014-06-14T00:40:30Z</time>
      </trkpt>
      <trkpt lat="47.0955" lon="5.52686">
        <ele>202</ele>
        <time>2014-06-14T00:40:45Z</time>
      </trkpt>
      <trkpt lat="47.09548" lon="5.52687">
        <ele>202</ele>
        <time>2014-06-14T00:41:00Z</time>
      </trkpt>
      <trkpt lat="47.09548" lon="5.52687">
        <ele>202</ele>
        <time>2014-06-14T00:41:15Z</time>
      </trkpt>
      <trkpt lat="47.09545" lon="5.52689">
        <ele>202</ele>
        <time>2014-06-14T00:41:30Z</time>
      </trkpt>
      <trkpt lat="47.09544" lon="5.5269">
        <ele>202</ele>
        <time>2014-06-14T00:41:45Z</time>
      </trkpt>
      <trkpt lat="47.09544" lon="5.5269">
        <ele>202</ele>
        <time>2014-06-14T00:42:00Z</time>
      </trkpt>
      <trkpt lat="47.09545" lon="5.52689">
        <ele>202</ele>
        <time>2014-06-14T00:42:15Z</time>
      </trkpt>
      <trkpt lat="47.09547" lon="5.52688">
        <ele>202</ele>
        <time>2014-06-14T00:42:30Z</time>
      </trkpt>
      <trkpt lat="47.09574" lon="5.52823">
        <ele>201</ele>
        <time>2014-06-14T00:42:45Z</time>
      </trkpt>
      <trkpt lat="47.09596" lon="5.52959">
        <ele>202</ele>
        <time>2014-06-14T00:43:00Z</time>
      </trkpt>
      <trkpt lat="47.09624" lon="5.53087">
        <ele>202</ele>
        <time>2014-06-14T00:43:15Z</time>
      </trkpt>
      <trkpt lat="47.09643" lon="5.53201">
        <ele>203</ele>
        <time>2014-06-14T00:43:30Z</time>
      </trkpt>
      <trkpt lat="47.09663" lon="5.53283">
        <ele>202</ele>
        <time>2014-06-14T00:43:45Z</time>
      </trkpt>
      <trkpt lat="47.09681" lon="5.53362">
        <ele>202</ele>
        <time>2014-06-14T00:44:00Z</time>
      </trkpt>
      <trkpt lat="47.097" lon="5.53438">
        <ele>201</ele>
        <time>2014-06-14T00:44:15Z</time>
      </trkpt>
      <trkpt lat="47.09719" lon="5.53514">
        <ele>201</ele>
        <time>2014-06-14T00:44:30Z</time>
      </trkpt>
      <trkpt lat="47.09737" lon="5.53589">
        <ele>202</ele>
        <time>2014-06-14T00:44:45Z</time>
      </trkpt>
      <trkpt lat="47.09755" lon="5.53658">
        <ele>203</ele>
        <time>2014-06-14T00:45:00Z</time>
      </trkpt>
      <trkpt lat="47.09764" lon="5.53728">
        <ele>203</ele>
        <time>2014-06-14T00:45:15Z</time>
      </trkpt>
      <trkpt lat="47.09761" lon="5.53785">
        <ele>204</ele>
        <time>2014-06-14T00:45:30Z</time>
      </trkpt>
      <trkpt lat="47.09782" lon="5.53835">
        <ele>204</ele>
        <time>2014-06-14T00:45:46Z</time>
      </trkpt>
      <trkpt lat="47.09798" lon="5.53898">
        <ele>203</ele>
        <time>2014-06-14T00:46:01Z</time>
      </trkpt>
      <trkpt lat="47.09819" lon="5.53973">
        <ele>202</ele>
        <time>2014-06-14T00:46:16Z</time>
      </trkpt>
      <trkpt lat="47.09854" lon="5.54041">
        <ele>205</ele>
        <time>2014-06-14T00:46:31Z</time>
      </trkpt>
      <trkpt lat="47.09891" lon="5.54111">
        <ele>205</ele>
        <time>2014-06-14T00:46:46Z</time>
      </trkpt>
      <trkpt lat="47.09938" lon="5.54174">
        <ele>205</ele>
        <time>2014-06-14T00:47:01Z</time>
      </trkpt>
      <trkpt lat="47.09991" lon="5.54229">
        <ele>204</ele>
        <time>2014-06-14T00:47:16Z</time>
      </trkpt>
      <trkpt lat="47.10042" lon="5.54278">
        <ele>204</ele>
        <time>2014-06-14T00:47:31Z</time>
      </trkpt>
      <trkpt lat="47.10097" lon="5.54317">
        <ele>205</ele>
        <time>2014-06-14T00:47:46Z</time>
      </trkpt>
      <trkpt lat="47.10156" lon="5.54341">
        <ele>204</ele>
        <time>2014-06-14T00:48:01Z</time>
      </trkpt>
      <trkpt lat="47.10216" lon="5.54365">
        <ele>203</ele>
        <time>2014-06-14T00:48:16Z</time>
      </trkpt>
      <trkpt lat="47.10267" lon="5.54388">
        <ele>202</ele>
        <time>2014-06-14T00:48:31Z</time>
      </trkpt>
      <trkpt lat="47.10323" lon="5.54411">
        <ele>202</ele>
        <time>2014-06-14T00:48:46Z</time>
      </trkpt>
      <trkpt lat="47.10384" lon="5.54434">
        <ele>203</ele>
        <time>2014-06-14T00:49:01Z</time>
      </trkpt>
      <trkpt lat="47.10438" lon="5.54455">
        <ele>203</ele>
        <time>2014-06-14T00:49:16Z</time>
      </trkpt>
      <trkpt lat="47.10486" lon="5.54474">
        <ele>204</ele>
        <time>2014-06-14T00:49:31Z</time>
      </trkpt>
      <trkpt lat="47.10537" lon="5.54495">
        <ele>203</ele>
        <time>2014-06-14T00:49:46Z</time>
      </trkpt>
      <trkpt lat="47.106" lon="5.5452">
        <ele>202</ele>
        <time>2014-06-14T00:50:01Z</time>
      </trkpt>
      <trkpt lat="47.10658" lon="5.54545">
        <ele>203</ele>
        <time>2014-06-14T00:50:16Z</time>
      </trkpt>
      <trkpt lat="47.10723" lon="5.54571">
        <ele>204</ele>
        <time>2014-06-14T00:50:31Z</time>
      </trkpt>
      <trkpt lat="47.10779" lon="5.54592">
        <ele>204</ele>
        <time>2014-06-14T00:50:46Z</time>
      </trkpt>
      <trkpt lat="47.10836" lon="5.54616">
        <ele>205</ele>
        <time>2014-06-14T00:51:01Z</time>
      </trkpt>
      <trkpt lat="47.10891" lon="5.54641">
        <ele>205</ele>
        <time>2014-06-14T00:51:16Z</time>
      </trkpt>
      <trkpt lat="47.10946" lon="5.54664">
        <ele>209</ele>
        <time>2014-06-14T00:51:31Z</time>
      </trkpt>
      <trkpt lat="47.11001" lon="5.54688">
        <ele>209</ele>
        <time>2014-06-14T00:51:46Z</time>
      </trkpt>
      <trkpt lat="47.11056" lon="5.54706">
        <ele>208</ele>
        <time>2014-06-14T00:52:01Z</time>
      </trkpt>
      <trkpt lat="47.11115" lon="5.54727">
        <ele>208</ele>
        <time>2014-06-14T00:52:16Z</time>
      </trkpt>
      <trkpt lat="47.11174" lon="5.54749">
        <ele>206</ele>
        <time>2014-06-14T00:52:31Z</time>
      </trkpt>
      <trkpt lat="47.1123" lon="5.54774">
        <ele>202</ele>
        <time>2014-06-14T00:52:46Z</time>
      </trkpt>
      <trkpt lat="47.1129" lon="5.54791">
        <ele>201</ele>
        <time>2014-06-14T00:53:01Z</time>
      </trkpt>
      <trkpt lat="47.11345" lon="5.54823">
        <ele>201</ele>
        <time>2014-06-14T00:53:16Z</time>
      </trkpt>
      <trkpt lat="47.11393" lon="5.54879">
        <ele>201</ele>
        <time>2014-06-14T00:53:31Z</time>
      </trkpt>
      <trkpt lat="47.11441" lon="5.5494">
        <ele>201</ele>
        <time>2014-06-14T00:53:46Z</time>
      </trkpt>
      <trkpt lat="47.11491" lon="5.55006">
        <ele>202</ele>
        <time>2014-06-14T00:54:01Z</time>
      </trkpt>
      <trkpt lat="47.1154" lon="5.55073">
        <ele>203</ele>
        <time>2014-06-14T00:54:16Z</time>
      </trkpt>
      <trkpt lat="47.11587" lon="5.55142">
        <ele>203</ele>
        <time>2014-06-14T00:54:31Z</time>
      </trkpt>
      <trkpt lat="47.11634" lon="5.55212">
        <ele>203</ele>
        <time>2014-06-14T00:54:46Z</time>
      </trkpt>
      <trkpt lat="47.11688" lon="5.55288">
        <ele>203</ele>
        <time>2014-06-14T00:55:01Z</time>
      </trkpt>
      <trkpt lat="47.11741" lon="5.55368">
        <ele>202</ele>
        <time>2014-06-14T00:55:16Z</time>
      </trkpt>
      <trkpt lat="47.11793" lon="5.55446">
        <ele>202</ele>
        <time>2014-06-14T00:55:31Z</time>
      </trkpt>
      <trkpt lat="47.11852" lon="5.55522">
        <ele>202</ele>
        <time>2014-06-14T00:55:46Z</time>
      </trkpt>
      <trkpt lat="47.11908" lon="5.556">
        <ele>201</ele>
        <time>2014-06-14T00:56:01Z</time>
      </trkpt>
      <trkpt lat="47.11953" lon="5.5566">
        <ele>202</ele>
        <time>2014-06-14T00:56:16Z</time>
      </trkpt>
      <trkpt lat="47.11995" lon="5.55721">
        <ele>202</ele>
        <time>2014-06-14T00:56:31Z</time>
      </trkpt>
      <trkpt lat="47.12039" lon="5.55785">
        <ele>203</ele>
        <time>2014-06-14T00:56:46Z</time>
      </trkpt>
      <trkpt lat="47.12083" lon="5.55848">
        <ele>203</ele>
        <time>2014-06-14T00:57:01Z</time>
      </trkpt>
      <trkpt lat="47.12128" lon="5.55908">
        <ele>203</ele>
        <time>2014-06-14T00:57:16Z</time>
      </trkpt>
      <trkpt lat="47.12173" lon="5.55974">
        <ele>205</ele>
        <time>2014-06-14T00:57:31Z</time>
      </trkpt>
      <trkpt lat="47.1222" lon="5.56038">
        <ele>204</ele>
        <time>2014-06-14T00:57:46Z</time>
      </trkpt>
      <trkpt lat="47.12265" lon="5.56106">
        <ele>204</ele>
        <time>2014-06-14T00:58:01Z</time>
      </trkpt>
      <trkpt lat="47.12277" lon="5.56133">
        <ele>205</ele>
        <time>2014-06-14T00:58:16Z</time>
      </trkpt>
      <trkpt lat="47.1228" lon="5.56139">
        <ele>205</ele>
        <time>2014-06-14T00:58:31Z</time>
      </trkpt>
      <trkpt lat="47.12336" lon="5.56218">
        <ele>205</ele>
        <time>2014-06-14T00:58:46Z</time>
      </trkpt>
      <trkpt lat="47.12378" lon="5.56262">
        <ele>206</ele>
        <time>2014-06-14T00:59:01Z</time>
      </trkpt>
      <trkpt lat="47.12377" lon="5.56261">
        <ele>206</ele>
        <time>2014-06-14T00:59:16Z</time>
      </trkpt>
      <trkpt lat="47.12377" lon="5.56261">
        <ele>206</ele>
        <time>2014-06-14T00:59:31Z</time>
      </trkpt>
      <trkpt lat="47.1238" lon="5.56269">
        <ele>206</ele>
        <time>2014-06-14T00:59:46Z</time>
      </trkpt>
      <trkpt lat="47.12384" lon="5.5627">
        <ele>206</ele>
        <time>2014-06-14T01:00:01Z</time>
      </trkpt>
      <trkpt lat="47.1238" lon="5.56269">
        <ele>206</ele>
        <time>2014-06-14T01:00:16Z</time>
      </trkpt>
      <trkpt lat="47.12377" lon="5.56268">
        <ele>206</ele>
        <time>2014-06-14T01:00:31Z</time>
      </trkpt>
      <trkpt lat="47.12376" lon="5.56266">
        <ele>206</ele>
        <time>2014-06-14T01:00:46Z</time>
      </trkpt>
      <trkpt lat="47.12376" lon="5.56266">
        <ele>206</ele>
        <time>2014-06-14T01:01:02Z</time>
      </trkpt>
      <trkpt lat="47.12383" lon="5.56254">
        <ele>206</ele>
        <time>2014-06-14T01:01:18Z</time>
      </trkpt>
      <trkpt lat="47.12421" lon="5.56215">
        <ele>208</ele>
        <time>2014-06-14T01:01:33Z</time>
      </trkpt>
      <trkpt lat="47.1246" lon="5.56289">
        <ele>208</ele>
        <time>2014-06-14T01:01:48Z</time>
      </trkpt>
      <trkpt lat="47.12501" lon="5.56334">
        <ele>208</ele>
        <time>2014-06-14T01:02:03Z</time>
      </trkpt>
      <trkpt lat="47.12553" lon="5.56386">
        <ele>213</ele>
        <time>2014-06-14T01:02:19Z</time>
      </trkpt>
      <trkpt lat="47.12582" lon="5.5641">
        <ele>216</ele>
        <time>2014-06-14T01:02:34Z</time>
      </trkpt>
      <trkpt lat="47.12604" lon="5.56429">
        <ele>218</ele>
        <time>2014-06-14T01:02:50Z</time>
      </trkpt>
      <trkpt lat="47.12624" lon="5.56448">
        <ele>219</ele>
        <time>2014-06-14T01:03:05Z</time>
      </trkpt>
      <trkpt lat="47.12652" lon="5.56466">
        <ele>219</ele>
        <time>2014-06-14T01:03:21Z</time>
      </trkpt>
      <trkpt lat="47.12707" lon="5.56517">
        <ele>223</ele>
        <time>2014-06-14T01:03:37Z</time>
      </trkpt>
      <trkpt lat="47.12737" lon="5.56562">
        <ele>222</ele>
        <time>2014-06-14T01:03:52Z</time>
      </trkpt>
      <trkpt lat="47.12774" lon="5.56628">
        <ele>220</ele>
        <time>2014-06-14T01:04:08Z</time>
      </trkpt>
      <trkpt lat="47.12788" lon="5.56676">
        <ele>212</ele>
        <time>2014-06-14T01:04:23Z</time>
      </trkpt>
      <trkpt lat="47.12823" lon="5.5672">
        <ele>211</ele>
        <time>2014-06-14T01:04:39Z</time>
      </trkpt>
      <trkpt lat="47.12867" lon="5.56775">
        <ele>213</ele>
        <time>2014-06-14T01:04:54Z</time>
      </trkpt>
      <trkpt lat="47.12905" lon="5.56839">
        <ele>208</ele>
        <time>2014-06-14T01:05:09Z</time>
      </trkpt>
      <trkpt lat="47.1294" lon="5.56904">
        <ele>214</ele>
        <time>2014-06-14T01:05:25Z</time>
      </trkpt>
      <trkpt lat="47.12975" lon="5.56964">
        <ele>213</ele>
        <time>2014-06-14T01:05:41Z</time>
      </trkpt>
      <trkpt lat="47.13003" lon="5.57036">
        <ele>220</ele>
        <time>2014-06-14T01:05:57Z</time>
      </trkpt>
      <trkpt lat="47.13032" lon="5.571">
        <ele>215</ele>
        <time>2014-06-14T01:06:12Z</time>
      </trkpt>
      <trkpt lat="47.13072" lon="5.57155">
        <ele>216</ele>
        <time>2014-06-14T01:06:28Z</time>
      </trkpt>
      <trkpt lat="47.13106" lon="5.5722">
        <ele>221</ele>
        <time>2014-06-14T01:06:44Z</time>
      </trkpt>
      <trkpt lat="47.13138" lon="5.57293">
        <ele>215</ele>
        <time>2014-06-14T01:07:00Z</time>
      </trkpt>
      <trkpt lat="47.13163" lon="5.57359">
        <ele>210</ele>
        <time>2014-06-14T01:07:15Z</time>
      </trkpt>
      <trkpt lat="47.13188" lon="5.57428">
        <ele>214</ele>
        <time>2014-06-14T01:07:30Z</time>
      </trkpt>
      <trkpt lat="47.13227" lon="5.575">
        <ele>213</ele>
        <time>2014-06-14T01:07:46Z</time>
      </trkpt>
      <trkpt lat="47.13264" lon="5.57564">
        <ele>219</ele>
        <time>2014-06-14T01:08:01Z</time>
      </trkpt>
      <trkpt lat="47.13313" lon="5.57623">
        <ele>215</ele>
        <time>2014-06-14T01:08:17Z</time>
      </trkpt>
      <trkpt lat="47.13362" lon="5.57675">
        <ele>216</ele>
        <time>2014-06-14T01:08:33Z</time>
      </trkpt>
      <trkpt lat="47.13397" lon="5.57743">
        <ele>216</ele>
        <time>2014-06-14T01:08:49Z</time>
      </trkpt>
      <trkpt lat="47.13421" lon="5.57821">
        <ele>215</ele>
        <time>2014-06-14T01:09:04Z</time>
      </trkpt>
      <trkpt lat="47.13426" lon="5.57902">
        <ele>212</ele>
        <time>2014-06-14T01:09:19Z</time>
      </trkpt>
      <trkpt lat="47.13425" lon="5.57989">
        <ele>210</ele>
        <time>2014-06-14T01:09:35Z</time>
      </trkpt>
      <trkpt lat="47.13413" lon="5.58065">
        <ele>207</ele>
        <time>2014-06-14T01:09:50Z</time>
      </trkpt>
      <trkpt lat="47.134" lon="5.58134">
        <ele>206</ele>
        <time>2014-06-14T01:10:05Z</time>
      </trkpt>
      <trkpt lat="47.13392" lon="5.58195">
        <ele>206</ele>
        <time>2014-06-14T01:10:21Z</time>
      </trkpt>
      <trkpt lat="47.13385" lon="5.58265">
        <ele>206</ele>
        <time>2014-06-14T01:10:37Z</time>
      </trkpt>
      <trkpt lat="47.13376" lon="5.58343">
        <ele>207</ele>
        <time>2014-06-14T01:10:53Z</time>
      </trkpt>
      <trkpt lat="47.13367" lon="5.58423">
        <ele>208</ele>
        <time>2014-06-14T01:11:09Z</time>
      </trkpt>
      <trkpt lat="47.13357" lon="5.58497">
        <ele>208</ele>
        <time>2014-06-14T01:11:24Z</time>
      </trkpt>
      <trkpt lat="47.13345" lon="5.58581">
        <ele>209</ele>
        <time>2014-06-14T01:11:40Z</time>
      </trkpt>
      <trkpt lat="47.13334" lon="5.58663">
        <ele>208</ele>
        <time>2014-06-14T01:11:55Z</time>
      </trkpt>
      <trkpt lat="47.13323" lon="5.58754">
        <ele>207</ele>
        <time>2014-06-14T01:12:11Z</time>
      </trkpt>
      <trkpt lat="47.13337" lon="5.58832">
        <ele>206</ele>
        <time>2014-06-14T01:12:26Z</time>
      </trkpt>
      <trkpt lat="47.13364" lon="5.58903">
        <ele>209</ele>
        <time>2014-06-14T01:12:42Z</time>
      </trkpt>
      <trkpt lat="47.13389" lon="5.58964">
        <ele>209</ele>
        <time>2014-06-14T01:12:57Z</time>
      </trkpt>
      <trkpt lat="47.13422" lon="5.59036">
        <ele>213</ele>
        <time>2014-06-14T01:13:13Z</time>
      </trkpt>
      <trkpt lat="47.13451" lon="5.59108">
        <ele>212</ele>
        <time>2014-06-14T01:13:29Z</time>
      </trkpt>
      <trkpt lat="47.13479" lon="5.59178">
        <ele>210</ele>
        <time>2014-06-14T01:13:44Z</time>
      </trkpt>
      <trkpt lat="47.1351" lon="5.59251">
        <ele>211</ele>
        <time>2014-06-14T01:14:00Z</time>
      </trkpt>
      <trkpt lat="47.13536" lon="5.59315">
        <ele>211</ele>
        <time>2014-06-14T01:14:15Z</time>
      </trkpt>
      <trkpt lat="47.13549" lon="5.59338">
        <ele>209</ele>
        <time>2014-06-14T01:14:30Z</time>
      </trkpt>
      <trkpt lat="47.13572" lon="5.59402">
        <ele>209</ele>
        <time>2014-06-14T01:14:46Z</time>
      </trkpt>
      <trkpt lat="47.13574" lon="5.59415">
        <ele>209</ele>
        <time>2014-06-14T01:15:02Z</time>
      </trkpt>
      <trkpt lat="47.13574" lon="5.59415">
        <ele>209</ele>
        <time>2014-06-14T01:15:18Z</time>
      </trkpt>
      <trkpt lat="47.13574" lon="5.59414">
        <ele>209</ele>
        <time>2014-06-14T01:15:33Z</time>
      </trkpt>
      <trkpt lat="47.13572" lon="5.5942">
        <ele>208</ele>
        <time>2014-06-14T01:15:48Z</time>
      </trkpt>
      <trkpt lat="47.13572" lon="5.5942">
        <ele>208</ele>
        <time>2014-06-14T01:16:04Z</time>
      </trkpt>
      <trkpt lat="47.13572" lon="5.5942">
        <ele>208</ele>
        <time>2014-06-14T01:16:19Z</time>
      </trkpt>
      <trkpt lat="47.13572" lon="5.5942">
        <ele>208</ele>
        <time>2014-06-14T01:16:35Z</time>
      </trkpt>
      <trkpt lat="47.1357" lon="5.59416">
        <ele>209</ele>
        <time>2014-06-14T01:16:51Z</time>
      </trkpt>
      <trkpt lat="47.1357" lon="5.59413">
        <ele>209</ele>
        <time>2014-06-14T01:17:07Z</time>
      </trkpt>
      <trkpt lat="47.13573" lon="5.59414">
        <ele>209</ele>
        <time>2014-06-14T01:17:22Z</time>
      </trkpt>
      <trkpt lat="47.13573" lon="5.59414">
        <ele>209</ele>
        <time>2014-06-14T01:17:38Z</time>
      </trkpt>
      <trkpt lat="47.13573" lon="5.59414">
        <ele>209</ele>
        <time>2014-06-14T01:17:53Z</time>
      </trkpt>
      <trkpt lat="47.13573" lon="5.59414">
        <ele>209</ele>
        <time>2014-06-14T01:18:08Z</time>
      </trkpt>
      <trkpt lat="47.13573" lon="5.59414">
        <ele>209</ele>
        <time>2014-06-14T01:18:23Z</time>
      </trkpt>
      <trkpt lat="47.13573" lon="5.59414">
        <ele>209</ele>
        <time>2014-06-14T01:18:39Z</time>
      </trkpt>
      <trkpt lat="47.13577" lon="5.59429">
        <ele>208</ele>
        <time>2014-06-14T01:18:54Z</time>
      </trkpt>
      <trkpt lat="47.136" lon="5.59469">
        <ele>212</ele>
        <time>2014-06-14T01:19:09Z</time>
      </trkpt>
      <trkpt lat="47.13629" lon="5.59512">
        <ele>211</ele>
        <time>2014-06-14T01:19:24Z</time>
      </trkpt>
      <trkpt lat="47.13665" lon="5.59579">
        <ele>211</ele>
        <time>2014-06-14T01:19:40Z</time>
      </trkpt>
      <trkpt lat="47.13699" lon="5.59643">
        <ele>212</ele>
        <time>2014-06-14T01:19:55Z</time>
      </trkpt>
      <trkpt lat="47.13738" lon="5.59706">
        <ele>210</ele>
        <time>2014-06-14T01:20:11Z</time>
      </trkpt>
      <trkpt lat="47.13777" lon="5.59769">
        <ele>213</ele>
        <time>2014-06-14T01:20:27Z</time>
      </trkpt>
      <trkpt lat="47.13812" lon="5.59835">
        <ele>212</ele>
        <time>2014-06-14T01:20:42Z</time>
      </trkpt>
      <trkpt lat="47.13846" lon="5.59905">
        <ele>218</ele>
        <time>2014-06-14T01:20:57Z</time>
      </trkpt>
      <trkpt lat="47.13877" lon="5.59985">
        <ele>216</ele>
        <time>2014-06-14T01:21:13Z</time>
      </trkpt>
      <trkpt lat="47.13907" lon="5.60063">
        <ele>213</ele>
        <time>2014-06-14T01:21:28Z</time>
      </trkpt>
      <trkpt lat="47.13937" lon="5.60141">
        <ele>217</ele>
        <time>2014-06-14T01:21:44Z</time>
      </trkpt>
      <trkpt lat="47.13962" lon="5.60211">
        <ele>216</ele>
        <time>2014-06-14T01:21:59Z</time>
      </trkpt>
      <trkpt lat="47.13985" lon="5.60288">
        <ele>215</ele>
        <time>2014-06-14T01:22:14Z</time>
      </trkpt>
      <trkpt lat="47.14007" lon="5.60378">
        <ele>219</ele>
        <time>2014-06-14T01:22:30Z</time>
      </trkpt>
      <trkpt lat="47.14018" lon="5.60461">
        <ele>216</ele>
        <time>2014-06-14T01:22:45Z</time>
      </trkpt>
      <trkpt lat="47.14029" lon="5.60542">
        <ele>213</ele>
        <time>2014-06-14T01:23:01Z</time>
      </trkpt>
      <trkpt lat="47.14035" lon="5.60603">
        <ele>210</ele>
        <time>2014-06-14T01:23:16Z</time>
      </trkpt>
      <trkpt lat="47.14051" lon="5.60678">
        <ele>208</ele>
        <time>2014-06-14T01:23:32Z</time>
      </trkpt>
      <trkpt lat="47.14066" lon="5.6077">
        <ele>207</ele>
        <time>2014-06-14T01:23:48Z</time>
      </trkpt>
      <trkpt lat="47.14082" lon="5.60862">
        <ele>207</ele>
        <time>2014-06-14T01:24:04Z</time>
      </trkpt>
      <trkpt lat="47.14093" lon="5.60958">
        <ele>211</ele>
        <time>2014-06-14T01:24:19Z</time>
      </trkpt>
      <trkpt lat="47.14109" lon="5.61045">
        <ele>210</ele>
        <time>2014-06-14T01:24:34Z</time>
      </trkpt>
      <trkpt lat="47.14126" lon="5.61131">
        <ele>209</ele>
        <time>2014-06-14T01:24:49Z</time>
      </trkpt>
      <trkpt lat="47.14145" lon="5.61235">
        <ele>207</ele>
        <time>2014-06-14T01:25:05Z</time>
      </trkpt>
      <trkpt lat="47.14156" lon="5.6133">
        <ele>206</ele>
        <time>2014-06-14T01:25:21Z</time>
      </trkpt>
      <trkpt lat="47.14173" lon="5.61426">
        <ele>206</ele>
        <time>2014-06-14T01:25:37Z</time>
      </trkpt>
      <trkpt lat="47.1419" lon="5.61517">
        <ele>206</ele>
        <time>2014-06-14T01:25:52Z</time>
      </trkpt>
      <trkpt lat="47.14206" lon="5.61615">
        <ele>206</ele>
        <time>2014-06-14T01:26:08Z</time>
      </trkpt>
      <trkpt lat="47.14222" lon="5.61708">
        <ele>205</ele>
        <time>2014-06-14T01:26:23Z</time>
      </trkpt>
      <trkpt lat="47.14238" lon="5.61808">
        <ele>205</ele>
        <time>2014-06-14T01:26:39Z</time>
      </trkpt>
      <trkpt lat="47.14251" lon="5.61906">
        <ele>206</ele>
        <time>2014-06-14T01:26:55Z</time>
      </trkpt>
      <trkpt lat="47.14267" lon="5.61997">
        <ele>206</ele>
        <time>2014-06-14T01:27:10Z</time>
      </trkpt>
      <trkpt lat="47.14283" lon="5.6209">
        <ele>205</ele>
        <time>2014-06-14T01:27:25Z</time>
      </trkpt>
      <trkpt lat="47.14301" lon="5.62185">
        <ele>206</ele>
        <time>2014-06-14T01:27:40Z</time>
      </trkpt>
      <trkpt lat="47.14314" lon="5.62272">
        <ele>206</ele>
        <time>2014-06-14T01:27:56Z</time>
      </trkpt>
      <trkpt lat="47.14318" lon="5.62301">
        <ele>206</ele>
        <time>2014-06-14T01:28:11Z</time>
      </trkpt>
      <trkpt lat="47.14317" lon="5.62299">
        <ele>206</ele>
        <time>2014-06-14T01:28:26Z</time>
      </trkpt>
      <trkpt lat="47.14317" lon="5.62299">
        <ele>206</ele>
        <time>2014-06-14T01:28:42Z</time>
      </trkpt>
      <trkpt lat="47.14313" lon="5.623">
        <ele>206</ele>
        <time>2014-06-14T01:28:58Z</time>
      </trkpt>
      <trkpt lat="47.14323" lon="5.62305">
        <ele>206</ele>
        <time>2014-06-14T01:29:14Z</time>
      </trkpt>
      <trkpt lat="47.14324" lon="5.62302">
        <ele>206</ele>
        <time>2014-06-14T01:29:30Z</time>
      </trkpt>
      <trkpt lat="47.14324" lon="5.62302">
        <ele>206</ele>
        <time>2014-06-14T01:29:45Z</time>
      </trkpt>
      <trkpt lat="47.14323" lon="5.62304">
        <ele>206</ele>
        <time>2014-06-14T01:30:01Z</time>
      </trkpt>
      <trkpt lat="47.14323" lon="5.62304">
        <ele>206</ele>
        <time>2014-06-14T01:30:17Z</time>
      </trkpt>
      <trkpt lat="47.14323" lon="5.62304">
        <ele>206</ele>
        <time>2014-06-14T01:30:33Z</time>
      </trkpt>
      <trkpt lat="47.14321" lon="5.62305">
        <ele>206</ele>
        <time>2014-06-14T01:30:49Z</time>
      </trkpt>
      <trkpt lat="47.14322" lon="5.62336">
        <ele>206</ele>
        <time>2014-06-14T01:31:05Z</time>
      </trkpt>
      <trkpt lat="47.14347" lon="5.62479">
        <ele>207</ele>
        <time>2014-06-14T01:31:20Z</time>
      </trkpt>
      <trkpt lat="47.14374" lon="5.62617">
        <ele>207</ele>
        <time>2014-06-14T01:31:35Z</time>
      </trkpt>
      <trkpt lat="47.14383" lon="5.62724">
        <ele>207</ele>
        <time>2014-06-14T01:31:51Z</time>
      </trkpt>
      <trkpt lat="47.14377" lon="5.62731">
        <ele>207</ele>
        <time>2014-06-14T01:32:06Z</time>
      </trkpt>
      <trkpt lat="47.14375" lon="5.62729">
        <ele>207</ele>
        <time>2014-06-14T01:32:22Z</time>
      </trkpt>
      <trkpt lat="47.14374" lon="5.6273">
        <ele>207</ele>
        <time>2014-06-14T01:32:37Z</time>
      </trkpt>
      <trkpt lat="47.14374" lon="5.6273">
        <ele>207</ele>
        <time>2014-06-14T01:32:53Z</time>
      </trkpt>
      <trkpt lat="47.1438" lon="5.62727">
        <ele>207</ele>
        <time>2014-06-14T01:33:08Z</time>
      </trkpt>
      <trkpt lat="47.14381" lon="5.62728">
        <ele>207</ele>
        <time>2014-06-14T01:33:23Z</time>
      </trkpt>
      <trkpt lat="47.14379" lon="5.62725">
        <ele>207</ele>
        <time>2014-06-14T01:33:39Z</time>
      </trkpt>
      <trkpt lat="47.14382" lon="5.62727">
        <ele>207</ele>
        <time>2014-06-14T01:33:55Z</time>
      </trkpt>
      <trkpt lat="47.14377" lon="5.62726">
        <ele>207</ele>
        <time>2014-06-14T01:34:10Z</time>
      </trkpt>
      <trkpt lat="47.14379" lon="5.62725">
        <ele>207</ele>
        <time>2014-06-14T01:34:25Z</time>
      </trkpt>
      <trkpt lat="47.14378" lon="5.62725">
        <ele>207</ele>
        <time>2014-06-14T01:34:41Z</time>
      </trkpt>
      <trkpt lat="47.14375" lon="5.62727">
        <ele>207</ele>
        <time>2014-06-14T01:34:57Z</time>
      </trkpt>
      <trkpt lat="47.14376" lon="5.62729">
        <ele>207</ele>
        <time>2014-06-14T01:35:12Z</time>
      </trkpt>
      <trkpt lat="47.14376" lon="5.6273">
        <ele>207</ele>
        <time>2014-06-14T01:35:27Z</time>
      </trkpt>
      <trkpt lat="47.14373" lon="5.62728">
        <ele>207</ele>
        <time>2014-06-14T01:35:43Z</time>
      </trkpt>
      <trkpt lat="47.14375" lon="5.62723">
        <ele>207</ele>
        <time>2014-06-14T01:35:59Z</time>
      </trkpt>
      <trkpt lat="47.14375" lon="5.62724">
        <ele>207</ele>
        <time>2014-06-14T01:36:14Z</time>
      </trkpt>
      <trkpt lat="47.14376" lon="5.62728">
        <ele>207</ele>
        <time>2014-06-14T01:36:30Z</time>
      </trkpt>
      <trkpt lat="47.14377" lon="5.62726">
        <ele>207</ele>
        <time>2014-06-14T01:36:45Z</time>
      </trkpt>
      <trkpt lat="47.14375" lon="5.62729">
        <ele>207</ele>
        <time>2014-06-14T01:37:01Z</time>
      </trkpt>
      <trkpt lat="47.1437" lon="5.62733">
        <ele>207</ele>
        <time>2014-06-14T01:37:16Z</time>
      </trkpt>
      <trkpt lat="47.1437" lon="5.62733">
        <ele>207</ele>
        <time>2014-06-14T01:37:31Z</time>
      </trkpt>
      <trkpt lat="47.1437" lon="5.62733">
        <ele>207</ele>
        <time>2014-06-14T01:37:47Z</time>
      </trkpt>
      <trkpt lat="47.1437" lon="5.62733">
        <ele>207</ele>
        <time>2014-06-14T01:38:02Z</time>
      </trkpt>
      <trkpt lat="47.1437" lon="5.62733">
        <ele>207</ele>
        <time>2014-06-14T01:38:18Z</time>
      </trkpt>
      <trkpt lat="47.14369" lon="5.62735">
        <ele>207</ele>
        <time>2014-06-14T01:38:34Z</time>
      </trkpt>
      <trkpt lat="47.1438" lon="5.62827">
        <ele>206</ele>
        <time>2014-06-14T01:38:50Z</time>
      </trkpt>
      <trkpt lat="47.14396" lon="5.6293">
        <ele>206</ele>
        <time>2014-06-14T01:39:06Z</time>
      </trkpt>
      <trkpt lat="47.14406" lon="5.62989">
        <ele>206</ele>
        <time>2014-06-14T01:39:22Z</time>
      </trkpt>
      <trkpt lat="47.14415" lon="5.63052">
        <ele>206</ele>
        <time>2014-06-14T01:39:38Z</time>
      </trkpt>
      <trkpt lat="47.14426" lon="5.63128">
        <ele>206</ele>
        <time>2014-06-14T01:39:54Z</time>
      </trkpt>
      <trkpt lat="47.14441" lon="5.63217">
        <ele>206</ele>
        <time>2014-06-14T01:40:09Z</time>
      </trkpt>
      <trkpt lat="47.14456" lon="5.63305">
        <ele>207</ele>
        <time>2014-06-14T01:40:25Z</time>
      </trkpt>
      <trkpt lat="47.14471" lon="5.63394">
        <ele>207</ele>
        <time>2014-06-14T01:40:40Z</time>
      </trkpt>
      <trkpt lat="47.14486" lon="5.63481">
        <ele>208</ele>
        <time>2014-06-14T01:40:55Z</time>
      </trkpt>
      <trkpt lat="47.145" lon="5.63576">
        <ele>208</ele>
        <time>2014-06-14T01:41:11Z</time>
      </trkpt>
      <trkpt lat="47.14518" lon="5.63672">
        <ele>209</ele>
        <time>2014-06-14T01:41:26Z</time>
      </trkpt>
      <trkpt lat="47.14532" lon="5.63767">
        <ele>210</ele>
        <time>2014-06-14T01:41:41Z</time>
      </trkpt>
      <trkpt lat="47.14548" lon="5.63867">
        <ele>210</ele>
        <time>2014-06-14T01:41:57Z</time>
      </trkpt>
      <trkpt lat="47.14562" lon="5.63954">
        <ele>210</ele>
        <time>2014-06-14T01:42:12Z</time>
      </trkpt>
      <trkpt lat="47.14576" lon="5.64046">
        <ele>210</ele>
        <time>2014-06-14T01:42:28Z</time>
      </trkpt>
      <trkpt lat="47.1459" lon="5.64135">
        <ele>214</ele>
        <time>2014-06-14T01:42:43Z</time>
      </trkpt>
      <trkpt lat="47.14602" lon="5.64236">
        <ele>212</ele>
        <time>2014-06-14T01:42:59Z</time>
      </trkpt>
      <trkpt lat="47.14624" lon="5.64337">
        <ele>211</ele>
        <time>2014-06-14T01:43:15Z</time>
      </trkpt>
      <trkpt lat="47.14644" lon="5.6444">
        <ele>211</ele>
        <time>2014-06-14T01:43:30Z</time>
      </trkpt>
      <trkpt lat="47.14661" lon="5.64545">
        <ele>210</ele>
        <time>2014-06-14T01:43:46Z</time>
      </trkpt>
      <trkpt lat="47.14672" lon="5.64637">
        <ele>214</ele>
        <time>2014-06-14T01:44:01Z</time>
      </trkpt>
      <trkpt lat="47.14679" lon="5.64736">
        <ele>212</ele>
        <time>2014-06-14T01:44:17Z</time>
      </trkpt>
      <trkpt lat="47.14685" lon="5.6483">
        <ele>211</ele>
        <time>2014-06-14T01:44:32Z</time>
      </trkpt>
      <trkpt lat="47.14691" lon="5.64931">
        <ele>213</ele>
        <time>2014-06-14T01:44:47Z</time>
      </trkpt>
      <trkpt lat="47.14692" lon="5.65039">
        <ele>213</ele>
        <time>2014-06-14T01:45:03Z</time>
      </trkpt>
      <trkpt lat="47.14691" lon="5.65151">
        <ele>213</ele>
        <time>2014-06-14T01:45:19Z</time>
      </trkpt>
      <trkpt lat="47.14669" lon="5.65251">
        <ele>209</ele>
        <time>2014-06-14T01:45:35Z</time>
      </trkpt>
      <trkpt lat="47.1463" lon="5.65338">
        <ele>210</ele>
        <time>2014-06-14T01:45:50Z</time>
      </trkpt>
      <trkpt lat="47.14617" lon="5.65441">
        <ele>210</ele>
        <time>2014-06-14T01:46:06Z</time>
      </trkpt>
      <trkpt lat="47.1461" lon="5.65546">
        <ele>210</ele>
        <time>2014-06-14T01:46:21Z</time>
      </trkpt>
      <trkpt lat="47.14602" lon="5.65612">
        <ele>211</ele>
        <time>2014-06-14T01:46:36Z</time>
      </trkpt>
      <trkpt lat="47.146" lon="5.65611">
        <ele>211</ele>
        <time>2014-06-14T01:46:51Z</time>
      </trkpt>
      <trkpt lat="47.14601" lon="5.6561">
        <ele>211</ele>
        <time>2014-06-14T01:47:07Z</time>
      </trkpt>
      <trkpt lat="47.146" lon="5.65608">
        <ele>211</ele>
        <time>2014-06-14T01:47:23Z</time>
      </trkpt>
      <trkpt lat="47.14598" lon="5.65616">
        <ele>211</ele>
        <time>2014-06-14T01:47:38Z</time>
      </trkpt>
      <trkpt lat="47.14588" lon="5.65617">
        <ele>210</ele>
        <time>2014-06-14T01:47:54Z</time>
      </trkpt>
      <trkpt lat="47.14542" lon="5.65607">
        <ele>208</ele>
        <time>2014-06-14T01:48:09Z</time>
      </trkpt>
      <trkpt lat="47.14489" lon="5.65596">
        <ele>207</ele>
        <time>2014-06-14T01:48:25Z</time>
      </trkpt>
      <trkpt lat="47.14435" lon="5.65589">
        <ele>208</ele>
        <time>2014-06-14T01:48:40Z</time>
      </trkpt>
      <trkpt lat="47.14364" lon="5.65583">
        <ele>207</ele>
        <time>2014-06-14T01:48:56Z</time>
      </trkpt>
      <trkpt lat="47.14284" lon="5.65568">
        <ele>206</ele>
        <time>2014-06-14T01:49:12Z</time>
      </trkpt>
      <trkpt lat="47.14212" lon="5.65551">
        <ele>207</ele>
        <time>2014-06-14T01:49:27Z</time>
      </trkpt>
      <trkpt lat="47.14139" lon="5.65536">
        <ele>208</ele>
        <time>2014-06-14T01:49:42Z</time>
      </trkpt>
      <trkpt lat="47.14063" lon="5.65511">
        <ele>208</ele>
        <time>2014-06-14T01:49:57Z</time>
      </trkpt>
      <trkpt lat="47.13975" lon="5.65504">
        <ele>207</ele>
        <time>2014-06-14T01:50:13Z</time>
      </trkpt>
      <trkpt lat="47.1389" lon="5.65535">
        <ele>207</ele>
        <time>2014-06-14T01:50:29Z</time>
      </trkpt>
      <trkpt lat="47.13823" lon="5.65623">
        <ele>206</ele>
        <time>2014-06-14T01:50:45Z</time>
      </trkpt>
      <trkpt lat="47.13763" lon="5.65711">
        <ele>206</ele>
        <time>2014-06-14T01:51:00Z</time>
      </trkpt>
      <trkpt lat="47.1377" lon="5.65841">
        <ele>206</ele>
        <time>2014-06-14T01:51:16Z</time>
      </trkpt>
      <trkpt lat="47.13754" lon="5.65956">
        <ele>208</ele>
        <time>2014-06-14T01:51:31Z</time>
      </trkpt>
      <trkpt lat="47.13741" lon="5.66066">
        <ele>207</ele>
        <time>2014-06-14T01:51:46Z</time>
      </trkpt>
      <trkpt lat="47.13729" lon="5.6619">
        <ele>208</ele>
        <time>2014-06-14T01:52:02Z</time>
      </trkpt>
      <trkpt lat="47.13719" lon="5.66309">
        <ele>207</ele>
        <time>2014-06-14T01:52:18Z</time>
      </trkpt>
      <trkpt lat="47.13709" lon="5.66416">
        <ele>207</ele>
        <time>2014-06-14T01:52:33Z</time>
      </trkpt>
      <trkpt lat="47.13699" lon="5.66522">
        <ele>208</ele>
        <time>2014-06-14T01:52:48Z</time>
      </trkpt>
      <trkpt lat="47.13672" lon="5.66636">
        <ele>208</ele>
        <time>2014-06-14T01:53:04Z</time>
      </trkpt>
      <trkpt lat="47.13645" lon="5.66741">
        <ele>206</ele>
        <time>2014-06-14T01:53:19Z</time>
      </trkpt>
      <trkpt lat="47.13613" lon="5.66857">
        <ele>207</ele>
        <time>2014-06-14T01:53:35Z</time>
      </trkpt>
      <trkpt lat="47.13583" lon="5.66964">
        <ele>210</ele>
        <time>2014-06-14T01:53:51Z</time>
      </trkpt>
      <trkpt lat="47.13559" lon="5.6707">
        <ele>211</ele>
        <time>2014-06-14T01:54:07Z</time>
      </trkpt>
      <trkpt lat="47.13526" lon="5.67184">
        <ele>212</ele>
        <time>2014-06-14T01:54:23Z</time>
      </trkpt>
      <trkpt lat="47.13495" lon="5.67294">
        <ele>212</ele>
        <time>2014-06-14T01:54:39Z</time>
      </trkpt>
      <trkpt lat="47.13467" lon="5.67393">
        <ele>211</ele>
        <time>2014-06-14T01:54:55Z</time>
      </trkpt>
      <trkpt lat="47.13453" lon="5.67406">
        <ele>212</ele>
        <time>2014-06-14T01:55:10Z</time>
      </trkpt>
      <trkpt lat="47.13455" lon="5.67417">
        <ele>212</ele>
        <time>2014-06-14T01:55:25Z</time>
      </trkpt>
      <trkpt lat="47.13455" lon="5.67417">
        <ele>212</ele>
        <time>2014-06-14T01:55:40Z</time>
      </trkpt>
      <trkpt lat="47.13455" lon="5.67417">
        <ele>212</ele>
        <time>2014-06-14T01:55:55Z</time>
      </trkpt>
      <trkpt lat="47.13455" lon="5.67417">
        <ele>212</ele>
        <time>2014-06-14T01:56:10Z</time>
      </trkpt>
      <trkpt lat="47.13455" lon="5.67417">
        <ele>212</ele>
        <time>2014-06-14T01:56:26Z</time>
      </trkpt>
      <trkpt lat="47.13455" lon="5.67417">
        <ele>212</ele>
        <time>2014-06-14T01:56:42Z</time>
      </trkpt>
      <trkpt lat="47.13455" lon="5.67417">
        <ele>212</ele>
        <time>2014-06-14T01:56:58Z</time>
      </trkpt>
      <trkpt lat="47.13455" lon="5.67425">
        <ele>212</ele>
        <time>2014-06-14T01:57:13Z</time>
      </trkpt>
      <trkpt lat="47.13456" lon="5.67421">
        <ele>212</ele>
        <time>2014-06-14T01:57:29Z</time>
      </trkpt>
      <trkpt lat="47.13454" lon="5.67419">
        <ele>212</ele>
        <time>2014-06-14T01:57:44Z</time>
      </trkpt>
      <trkpt lat="47.13454" lon="5.67419">
        <ele>212</ele>
        <time>2014-06-14T01:58:00Z</time>
      </trkpt>
      <trkpt lat="47.13453" lon="5.67426">
        <ele>212</ele>
        <time>2014-06-14T01:58:15Z</time>
      </trkpt>
      <trkpt lat="47.13441" lon="5.6749">
        <ele>213</ele>
        <time>2014-06-14T01:58:31Z</time>
      </trkpt>
      <trkpt lat="47.13391" lon="5.67576">
        <ele>216</ele>
        <time>2014-06-14T01:58:47Z</time>
      </trkpt>
      <trkpt lat="47.13337" lon="5.67654">
        <ele>216</ele>
        <time>2014-06-14T01:59:02Z</time>
      </trkpt>
      <trkpt lat="47.13282" lon="5.67726">
        <ele>218</ele>
        <time>2014-06-14T01:59:18Z</time>
      </trkpt>
      <trkpt lat="47.1323" lon="5.67804">
        <ele>219</ele>
        <time>2014-06-14T01:59:33Z</time>
      </trkpt>
      <trkpt lat="47.13214" lon="5.6792">
        <ele>211</ele>
        <time>2014-06-14T01:59:49Z</time>
      </trkpt>
      <trkpt lat="47.1322" lon="5.68043">
        <ele>209</ele>
        <time>2014-06-14T02:00:04Z</time>
      </trkpt>
      <trkpt lat="47.13228" lon="5.68163">
        <ele>209</ele>
        <time>2014-06-14T02:00:20Z</time>
      </trkpt>
      <trkpt lat="47.13237" lon="5.68283">
        <ele>209</ele>
        <time>2014-06-14T02:00:35Z</time>
      </trkpt>
      <trkpt lat="47.13236" lon="5.68408">
        <ele>209</ele>
        <time>2014-06-14T02:00:51Z</time>
      </trkpt>
      <trkpt lat="47.13237" lon="5.68523">
        <ele>210</ele>
        <time>2014-06-14T02:01:06Z</time>
      </trkpt>
      <trkpt lat="47.13236" lon="5.6864">
        <ele>210</ele>
        <time>2014-06-14T02:01:21Z</time>
      </trkpt>
      <trkpt lat="47.13205" lon="5.68752">
        <ele>211</ele>
        <time>2014-06-14T02:01:37Z</time>
      </trkpt>
      <trkpt lat="47.13175" lon="5.68852">
        <ele>211</ele>
        <time>2014-06-14T02:01:52Z</time>
      </trkpt>
      <trkpt lat="47.13137" lon="5.68938">
        <ele>212</ele>
        <time>2014-06-14T02:02:08Z</time>
      </trkpt>
      <trkpt lat="47.13096" lon="5.68999">
        <ele>215</ele>
        <time>2014-06-14T02:02:24Z</time>
      </trkpt>
      <trkpt lat="47.13083" lon="5.69055">
        <ele>217</ele>
        <time>2014-06-14T02:02:40Z</time>
      </trkpt>
      <trkpt lat="47.13099" lon="5.69078">
        <ele>218</ele>
        <time>2014-06-14T02:02:55Z</time>
      </trkpt>
      <trkpt lat="47.13116" lon="5.69109">
        <ele>217</ele>
        <time>2014-06-14T02:03:10Z</time>
      </trkpt>
      <trkpt lat="47.13111" lon="5.69129">
        <ele>217</ele>
        <time>2014-06-14T02:03:26Z</time>
      </trkpt>
      <trkpt lat="47.13146" lon="5.69239">
        <ele>215</ele>
        <time>2014-06-14T02:03:42Z</time>
      </trkpt>
      <trkpt lat="47.13191" lon="5.69341">
        <ele>215</ele>
        <time>2014-06-14T02:03:58Z</time>
      </trkpt>
      <trkpt lat="47.13225" lon="5.69434">
        <ele>216</ele>
        <time>2014-06-14T02:04:13Z</time>
      </trkpt>
      <trkpt lat="47.13258" lon="5.69524">
        <ele>217</ele>
        <time>2014-06-14T02:04:29Z</time>
      </trkpt>
      <trkpt lat="47.13291" lon="5.69611">
        <ele>219</ele>
        <time>2014-06-14T02:04:45Z</time>
      </trkpt>
      <trkpt lat="47.13331" lon="5.69705">
        <ele>223</ele>
        <time>2014-06-14T02:05:00Z</time>
      </trkpt>
      <trkpt lat="47.13365" lon="5.69794">
        <ele>223</ele>
        <time>2014-06-14T02:05:15Z</time>
      </trkpt>
      <trkpt lat="47.13399" lon="5.69878">
        <ele>224</ele>
        <time>2014-06-14T02:05:30Z</time>
      </trkpt>
      <trkpt lat="47.13438" lon="5.69977">
        <ele>219</ele>
        <time>2014-06-14T02:05:46Z</time>
      </trkpt>
      <trkpt lat="47.13475" lon="5.70075">
        <ele>219</ele>
        <time>2014-06-14T02:06:02Z</time>
      </trkpt>
      <trkpt lat="47.13487" lon="5.70183">
        <ele>222</ele>
        <time>2014-06-14T02:06:18Z</time>
      </trkpt>
      <trkpt lat="47.1349" lon="5.70295">
        <ele>224</ele>
        <time>2014-06-14T02:06:33Z</time>
      </trkpt>
      <trkpt lat="47.13499" lon="5.70408">
        <ele>223</ele>
        <time>2014-06-14T02:06:50Z</time>
      </trkpt>
      <trkpt lat="47.1352" lon="5.70514">
        <ele>217</ele>
        <time>2014-06-14T02:07:06Z</time>
      </trkpt>
      <trkpt lat="47.13574" lon="5.70583">
        <ele>212</ele>
        <time>2014-06-14T02:07:22Z</time>
      </trkpt>
      <trkpt lat="47.13634" lon="5.70652">
        <ele>210</ele>
        <time>2014-06-14T02:07:37Z</time>
      </trkpt>
      <trkpt lat="47.13687" lon="5.70719">
        <ele>210</ele>
        <time>2014-06-14T02:07:52Z</time>
      </trkpt>
      <trkpt lat="47.13742" lon="5.70784">
        <ele>210</ele>
        <time>2014-06-14T02:08:08Z</time>
      </trkpt>
      <trkpt lat="47.13798" lon="5.70851">
        <ele>211</ele>
        <time>2014-06-14T02:08:23Z</time>
      </trkpt>
      <trkpt lat="47.13853" lon="5.7093">
        <ele>212</ele>
        <time>2014-06-14T02:08:39Z</time>
      </trkpt>
      <trkpt lat="47.13853" lon="5.71043">
        <ele>211</ele>
        <time>2014-06-14T02:08:55Z</time>
      </trkpt>
      <trkpt lat="47.13856" lon="5.71155">
        <ele>211</ele>
        <time>2014-06-14T02:09:10Z</time>
      </trkpt>
      <trkpt lat="47.13868" lon="5.7128">
        <ele>211</ele>
        <time>2014-06-14T02:09:26Z</time>
      </trkpt>
      <trkpt lat="47.13885" lon="5.71427">
        <ele>213</ele>
        <time>2014-06-14T02:09:41Z</time>
      </trkpt>
      <trkpt lat="47.13914" lon="5.7157">
        <ele>215</ele>
        <time>2014-06-14T02:09:57Z</time>
      </trkpt>
      <trkpt lat="47.13957" lon="5.71704">
        <ele>212</ele>
        <time>2014-06-14T02:10:13Z</time>
      </trkpt>
      <trkpt lat="47.14" lon="5.71808">
        <ele>210</ele>
        <time>2014-06-14T02:10:29Z</time>
      </trkpt>
      <trkpt lat="47.14045" lon="5.71905">
        <ele>212</ele>
        <time>2014-06-14T02:10:44Z</time>
      </trkpt>
      <trkpt lat="47.1408" lon="5.72023">
        <ele>216</ele>
        <time>2014-06-14T02:10:59Z</time>
      </trkpt>
      <trkpt lat="47.14124" lon="5.7211">
        <ele>217</ele>
        <time>2014-06-14T02:11:15Z</time>
      </trkpt>
      <trkpt lat="47.14168" lon="5.7218">
        <ele>213</ele>
        <time>2014-06-14T02:11:30Z</time>
      </trkpt>
      <trkpt lat="47.14221" lon="5.72241">
        <ele>212</ele>
        <time>2014-06-14T02:11:45Z</time>
      </trkpt>
      <trkpt lat="47.14272" lon="5.72317">
        <ele>213</ele>
        <time>2014-06-14T02:12:01Z</time>
      </trkpt>
      <trkpt lat="47.14315" lon="5.724">
        <ele>214</ele>
        <time>2014-06-14T02:12:17Z</time>
      </trkpt>
      <trkpt lat="47.14364" lon="5.72492">
        <ele>216</ele>
        <time>2014-06-14T02:12:32Z</time>
      </trkpt>
      <trkpt lat="47.14406" lon="5.72568">
        <ele>217</ele>
        <time>2014-06-14T02:12:47Z</time>
      </trkpt>
      <trkpt lat="47.14423" lon="5.72617">
        <ele>218</ele>
        <time>2014-06-14T02:13:02Z</time>
      </trkpt>
      <trkpt lat="47.14418" lon="5.72666">
        <ele>225</ele>
        <time>2014-06-14T02:13:17Z</time>
      </trkpt>
      <trkpt lat="47.14387" lon="5.727">
        <ele>227</ele>
        <time>2014-06-14T02:13:33Z</time>
      </trkpt>
      <trkpt lat="47.14354" lon="5.72726">
        <ele>227</ele>
        <time>2014-06-14T02:13:49Z</time>
      </trkpt>
      <trkpt lat="47.14313" lon="5.72733">
        <ele>229</ele>
        <time>2014-06-14T02:14:04Z</time>
      </trkpt>
      <trkpt lat="47.14266" lon="5.72734">
        <ele>229</ele>
        <time>2014-06-14T02:14:19Z</time>
      </trkpt>
      <trkpt lat="47.14216" lon="5.72731">
        <ele>231</ele>
        <time>2014-06-14T02:14:35Z</time>
      </trkpt>
      <trkpt lat="47.14167" lon="5.72732">
        <ele>232</ele>
        <time>2014-06-14T02:14:51Z</time>
      </trkpt>
      <trkpt lat="47.1412" lon="5.72714">
        <ele>233</ele>
        <time>2014-06-14T02:15:06Z</time>
      </trkpt>
      <trkpt lat="47.14072" lon="5.72692">
        <ele>235</ele>
        <time>2014-06-14T02:15:22Z</time>
      </trkpt>
      <trkpt lat="47.14023" lon="5.72662">
        <ele>237</ele>
        <time>2014-06-14T02:15:37Z</time>
      </trkpt>
      <trkpt lat="47.13982" lon="5.72647">
        <ele>242</ele>
        <time>2014-06-14T02:15:53Z</time>
      </trkpt>
      <trkpt lat="47.13941" lon="5.72649">
        <ele>245</ele>
        <time>2014-06-14T02:16:10Z</time>
      </trkpt>
      <trkpt lat="47.13898" lon="5.72654">
        <ele>248</ele>
        <time>2014-06-14T02:16:25Z</time>
      </trkpt>
      <trkpt lat="47.13858" lon="5.72656">
        <ele>250</ele>
        <time>2014-06-14T02:16:41Z</time>
      </trkpt>
      <trkpt lat="47.13817" lon="5.7266">
        <ele>252</ele>
        <time>2014-06-14T02:16:56Z</time>
      </trkpt>
      <trkpt lat="47.13775" lon="5.72667">
        <ele>254</ele>
        <time>2014-06-14T02:17:12Z</time>
      </trkpt>
      <trkpt lat="47.13731" lon="5.72687">
        <ele>256</ele>
        <time>2014-06-14T02:17:28Z</time>
      </trkpt>
      <trkpt lat="47.137" lon="5.727">
        <ele>257</ele>
        <time>2014-06-14T02:17:43Z</time>
      </trkpt>
      <trkpt lat="47.137" lon="5.727">
        <ele>257</ele>
        <time>2014-06-14T02:17:59Z</time>
      </trkpt>
      <trkpt lat="47.137" lon="5.72698">
        <ele>256</ele>
        <time>2014-06-14T02:18:14Z</time>
      </trkpt>
      <trkpt lat="47.137" lon="5.72698">
        <ele>256</ele>
        <time>2014-06-14T02:18:30Z</time>
      </trkpt>
      <trkpt lat="47.13702" lon="5.72702">
        <ele>257</ele>
        <time>2014-06-14T02:18:45Z</time>
      </trkpt>
      <trkpt lat="47.13702" lon="5.72702">
        <ele>257</ele>
        <time>2014-06-14T02:19:01Z</time>
      </trkpt>
      <trkpt lat="47.13702" lon="5.72702">
        <ele>257</ele>
        <time>2014-06-14T02:19:18Z</time>
      </trkpt>
      <trkpt lat="47.13702" lon="5.72702">
        <ele>257</ele>
        <time>2014-06-14T02:19:33Z</time>
      </trkpt>
      <trkpt lat="47.13702" lon="5.72702">
        <ele>257</ele>
        <time>2014-06-14T02:19:49Z</time>
      </trkpt>
      <trkpt lat="47.13702" lon="5.72702">
        <ele>257</ele>
        <time>2014-06-14T02:20:04Z</time>
      </trkpt>
      <trkpt lat="47.13702" lon="5.72702">
        <ele>257</ele>
        <time>2014-06-14T02:20:20Z</time>
      </trkpt>
      <trkpt lat="47.13698" lon="5.72703">
        <ele>257</ele>
        <time>2014-06-14T02:20:35Z</time>
      </trkpt>
      <trkpt lat="47.13697" lon="5.72705">
        <ele>257</ele>
        <time>2014-06-14T02:20:50Z</time>
      </trkpt>
      <trkpt lat="47.13697" lon="5.72702">
        <ele>257</ele>
        <time>2014-06-14T02:21:06Z</time>
      </trkpt>
      <trkpt lat="47.137" lon="5.72704">
        <ele>257</ele>
        <time>2014-06-14T02:21:22Z</time>
      </trkpt>
      <trkpt lat="47.137" lon="5.72704">
        <ele>257</ele>
        <time>2014-06-14T02:21:37Z</time>
      </trkpt>
      <trkpt lat="47.13702" lon="5.72701">
        <ele>257</ele>
        <time>2014-06-14T02:21:52Z</time>
      </trkpt>
      <trkpt lat="47.13701" lon="5.72701">
        <ele>257</ele>
        <time>2014-06-14T02:22:08Z</time>
      </trkpt>
      <trkpt lat="47.13701" lon="5.72701">
        <ele>257</ele>
        <time>2014-06-14T02:22:23Z</time>
      </trkpt>
      <trkpt lat="47.13701" lon="5.72701">
        <ele>257</ele>
        <time>2014-06-14T02:22:40Z</time>
      </trkpt>
      <trkpt lat="47.13701" lon="5.72701">
        <ele>257</ele>
        <time>2014-06-14T02:22:56Z</time>
      </trkpt>
      <trkpt lat="47.13701" lon="5.72701">
        <ele>257</ele>
        <time>2014-06-14T02:23:12Z</time>
      </trkpt>
      <trkpt lat="47.13701" lon="5.72701">
        <ele>257</ele>
        <time>2014-06-14T02:23:28Z</time>
      </trkpt>
      <trkpt lat="47.13701" lon="5.72701">
        <ele>257</ele>
        <time>2014-06-14T02:23:44Z</time>
      </trkpt>
      <trkpt lat="47.13701" lon="5.72701">
        <ele>257</ele>
        <time>2014-06-14T02:24:00Z</time>
      </trkpt>
      <trkpt lat="47.13701" lon="5.72701">
        <ele>257</ele>
        <time>2014-06-14T02:24:15Z</time>
      </trkpt>
      <trkpt lat="47.13701" lon="5.72701">
        <ele>257</ele>
        <time>2014-06-14T02:24:30Z</time>
      </trkpt>
      <trkpt lat="47.13701" lon="5.72701">
        <ele>257</ele>
        <time>2014-06-14T02:24:45Z</time>
      </trkpt>
      <trkpt lat="47.13701" lon="5.72701">
        <ele>257</ele>
        <time>2014-06-14T02:25:00Z</time>
      </trkpt>
      <trkpt lat="47.13701" lon="5.72701">
        <ele>257</ele>
        <time>2014-06-14T02:25:16Z</time>
      </trkpt>
      <trkpt lat="47.13701" lon="5.72701">
        <ele>257</ele>
        <time>2014-06-14T02:25:31Z</time>
      </trkpt>
      <trkpt lat="47.13701" lon="5.72701">
        <ele>257</ele>
        <time>2014-06-14T02:25:46Z</time>
      </trkpt>
      <trkpt lat="47.13701" lon="5.72701">
        <ele>257</ele>
        <time>2014-06-14T02:26:03Z</time>
      </trkpt>
      <trkpt lat="47.13701" lon="5.72701">
        <ele>257</ele>
        <time>2014-06-14T02:26:18Z</time>
      </trkpt>
      <trkpt lat="47.13701" lon="5.72701">
        <ele>257</ele>
        <time>2014-06-14T02:26:34Z</time>
      </trkpt>
      <trkpt lat="47.13701" lon="5.72701">
        <ele>257</ele>
        <time>2014-06-14T02:26:49Z</time>
      </trkpt>
      <trkpt lat="47.13701" lon="5.72701">
        <ele>257</ele>
        <time>2014-06-14T02:27:05Z</time>
      </trkpt>
      <trkpt lat="47.13701" lon="5.72701">
        <ele>257</ele>
        <time>2014-06-14T02:27:20Z</time>
      </trkpt>
      <trkpt lat="47.13701" lon="5.72701">
        <ele>257</ele>
        <time>2014-06-14T02:27:36Z</time>
      </trkpt>
      <trkpt lat="47.13701" lon="5.72701">
        <ele>257</ele>
        <time>2014-06-14T02:27:51Z</time>
      </trkpt>
      <trkpt lat="47.13701" lon="5.72701">
        <ele>257</ele>
        <time>2014-06-14T02:28:06Z</time>
      </trkpt>
      <trkpt lat="47.13701" lon="5.72701">
        <ele>257</ele>
        <time>2014-06-14T02:28:22Z</time>
      </trkpt>
      <trkpt lat="47.13701" lon="5.72701">
        <ele>257</ele>
        <time>2014-06-14T02:28:37Z</time>
      </trkpt>
      <trkpt lat="47.13701" lon="5.72701">
        <ele>257</ele>
        <time>2014-06-14T02:28:53Z</time>
      </trkpt>
      <trkpt lat="47.13701" lon="5.72701">
        <ele>257</ele>
        <time>2014-06-14T02:29:09Z</time>
      </trkpt>
      <trkpt lat="47.13701" lon="5.72701">
        <ele>257</ele>
        <time>2014-06-14T02:29:24Z</time>
      </trkpt>
      <trkpt lat="47.13701" lon="5.72701">
        <ele>257</ele>
        <time>2014-06-14T02:29:40Z</time>
      </trkpt>
      <trkpt lat="47.13701" lon="5.72701">
        <ele>257</ele>
        <time>2014-06-14T02:29:55Z</time>
      </trkpt>
      <trkpt lat="47.13701" lon="5.72701">
        <ele>257</ele>
        <time>2014-06-14T02:30:10Z</time>
      </trkpt>
      <trkpt lat="47.13701" lon="5.72701">
        <ele>257</ele>
        <time>2014-06-14T02:30:26Z</time>
      </trkpt>
      <trkpt lat="47.13701" lon="5.72701">
        <ele>257</ele>
        <time>2014-06-14T02:30:42Z</time>
      </trkpt>
      <trkpt lat="47.13701" lon="5.72701">
        <ele>257</ele>
        <time>2014-06-14T02:30:57Z</time>
      </trkpt>
      <trkpt lat="47.13701" lon="5.72701">
        <ele>257</ele>
        <time>2014-06-14T02:31:13Z</time>
      </trkpt>
      <trkpt lat="47.13701" lon="5.72701">
        <ele>257</ele>
        <time>2014-06-14T02:31:29Z</time>
      </trkpt>
      <trkpt lat="47.13701" lon="5.72701">
        <ele>257</ele>
        <time>2014-06-14T02:31:44Z</time>
      </trkpt>
      <trkpt lat="47.13701" lon="5.72701">
        <ele>257</ele>
        <time>2014-06-14T02:32:00Z</time>
      </trkpt>
      <trkpt lat="47.13701" lon="5.72701">
        <ele>257</ele>
        <time>2014-06-14T02:32:16Z</time>
      </trkpt>
      <trkpt lat="47.13701" lon="5.72701">
        <ele>257</ele>
        <time>2014-06-14T02:32:32Z</time>
      </trkpt>
      <trkpt lat="47.13701" lon="5.72701">
        <ele>257</ele>
        <time>2014-06-14T02:32:47Z</time>
      </trkpt>
      <trkpt lat="47.13701" lon="5.72701">
        <ele>257</ele>
        <time>2014-06-14T02:33:02Z</time>
      </trkpt>
      <trkpt lat="47.13702" lon="5.72699">
        <ele>256</ele>
        <time>2014-06-14T02:33:17Z</time>
      </trkpt>
      <trkpt lat="47.137" lon="5.727">
        <ele>257</ele>
        <time>2014-06-14T02:33:33Z</time>
      </trkpt>
      <trkpt lat="47.13702" lon="5.72698">
        <ele>256</ele>
        <time>2014-06-14T02:33:49Z</time>
      </trkpt>
      <trkpt lat="47.13702" lon="5.72699">
        <ele>256</ele>
        <time>2014-06-14T02:34:04Z</time>
      </trkpt>
      <trkpt lat="47.13701" lon="5.72696">
        <ele>256</ele>
        <time>2014-06-14T02:34:19Z</time>
      </trkpt>
      <trkpt lat="47.13695" lon="5.72699">
        <ele>257</ele>
        <time>2014-06-14T02:34:35Z</time>
      </trkpt>
      <trkpt lat="47.13696" lon="5.727">
        <ele>257</ele>
        <time>2014-06-14T02:34:51Z</time>
      </trkpt>
      <trkpt lat="47.13696" lon="5.727">
        <ele>257</ele>
        <time>2014-06-14T02:35:06Z</time>
      </trkpt>
      <trkpt lat="47.13684" lon="5.72709">
        <ele>257</ele>
        <time>2014-06-14T02:35:22Z</time>
      </trkpt>
      <trkpt lat="47.13635" lon="5.72729">
        <ele>257</ele>
        <time>2014-06-14T02:35:38Z</time>
      </trkpt>
      <trkpt lat="47.13566" lon="5.72759">
        <ele>255</ele>
        <time>2014-06-14T02:35:54Z</time>
      </trkpt>
      <trkpt lat="47.13497" lon="5.72785">
        <ele>254</ele>
        <time>2014-06-14T02:36:09Z</time>
      </trkpt>
      <trkpt lat="47.13427" lon="5.72798">
        <ele>255</ele>
        <time>2014-06-14T02:36:24Z</time>
      </trkpt>
      <trkpt lat="47.13366" lon="5.72829">
        <ele>258</ele>
        <time>2014-06-14T02:36:39Z</time>
      </trkpt>
      <trkpt lat="47.13313" lon="5.72852">
        <ele>263</ele>
        <time>2014-06-14T02:36:54Z</time>
      </trkpt>
      <trkpt lat="47.13257" lon="5.72876">
        <ele>265</ele>
        <time>2014-06-14T02:37:11Z</time>
      </trkpt>
      <trkpt lat="47.132" lon="5.72896">
        <ele>268</ele>
        <time>2014-06-14T02:37:26Z</time>
      </trkpt>
      <trkpt lat="47.13162" lon="5.72907">
        <ele>269</ele>
        <time>2014-06-14T02:37:42Z</time>
      </trkpt>
      <trkpt lat="47.13122" lon="5.72925">
        <ele>269</ele>
        <time>2014-06-14T02:37:57Z</time>
      </trkpt>
      <trkpt lat="47.13072" lon="5.72931">
        <ele>268</ele>
        <time>2014-06-14T02:38:12Z</time>
      </trkpt>
      <trkpt lat="47.13016" lon="5.72916">
        <ele>269</ele>
        <time>2014-06-14T02:38:28Z</time>
      </trkpt>
      <trkpt lat="47.12924" lon="5.72895">
        <ele>267</ele>
        <time>2014-06-14T02:38:43Z</time>
      </trkpt>
      <trkpt lat="47.1279" lon="5.72844">
        <ele>253</ele>
        <time>2014-06-14T02:38:58Z</time>
      </trkpt>
      <trkpt lat="47.12628" lon="5.72845">
        <ele>243</ele>
        <time>2014-06-14T02:39:14Z</time>
      </trkpt>
      <trkpt lat="47.12519" lon="5.72881">
        <ele>243</ele>
        <time>2014-06-14T02:39:31Z</time>
      </trkpt>
      <trkpt lat="47.12477" lon="5.72981">
        <ele>244</ele>
        <time>2014-06-14T02:39:46Z</time>
      </trkpt>
      <trkpt lat="47.12429" lon="5.73072">
        <ele>243</ele>
        <time>2014-06-14T02:40:01Z</time>
      </trkpt>
      <trkpt lat="47.12379" lon="5.73155">
        <ele>240</ele>
        <time>2014-06-14T02:40:17Z</time>
      </trkpt>
      <trkpt lat="47.12327" lon="5.73246">
        <ele>239</ele>
        <time>2014-06-14T02:40:33Z</time>
      </trkpt>
      <trkpt lat="47.1228" lon="5.73326">
        <ele>239</ele>
        <time>2014-06-14T02:40:48Z</time>
      </trkpt>
      <trkpt lat="47.12234" lon="5.73411">
        <ele>240</ele>
        <time>2014-06-14T02:41:04Z</time>
      </trkpt>
      <trkpt lat="47.12186" lon="5.73499">
        <ele>240</ele>
        <time>2014-06-14T02:41:19Z</time>
      </trkpt>
      <trkpt lat="47.1213" lon="5.73583">
        <ele>240</ele>
        <time>2014-06-14T02:41:34Z</time>
      </trkpt>
      <trkpt lat="47.1208" lon="5.73635">
        <ele>237</ele>
        <time>2014-06-14T02:41:50Z</time>
      </trkpt>
      <trkpt lat="47.12025" lon="5.73655">
        <ele>236</ele>
        <time>2014-06-14T02:42:05Z</time>
      </trkpt>
      <trkpt lat="47.1194" lon="5.73667">
        <ele>237</ele>
        <time>2014-06-14T02:42:20Z</time>
      </trkpt>
      <trkpt lat="47.11873" lon="5.73666">
        <ele>243</ele>
        <time>2014-06-14T02:42:36Z</time>
      </trkpt>
      <trkpt lat="47.11825" lon="5.73653">
        <ele>247</ele>
        <time>2014-06-14T02:42:51Z</time>
      </trkpt>
      <trkpt lat="47.11778" lon="5.73629">
        <ele>251</ele>
        <time>2014-06-14T02:43:07Z</time>
      </trkpt>
      <trkpt lat="47.11729" lon="5.73598">
        <ele>254</ele>
        <time>2014-06-14T02:43:22Z</time>
      </trkpt>
      <trkpt lat="47.11695" lon="5.7357">
        <ele>255</ele>
        <time>2014-06-14T02:43:37Z</time>
      </trkpt>
      <trkpt lat="47.11653" lon="5.73545">
        <ele>256</ele>
        <time>2014-06-14T02:43:53Z</time>
      </trkpt>
      <trkpt lat="47.11604" lon="5.73517">
        <ele>257</ele>
        <time>2014-06-14T02:44:08Z</time>
      </trkpt>
      <trkpt lat="47.11552" lon="5.73498">
        <ele>260</ele>
        <time>2014-06-14T02:44:25Z</time>
      </trkpt>
      <trkpt lat="47.115" lon="5.73493">
        <ele>263</ele>
        <time>2014-06-14T02:44:40Z</time>
      </trkpt>
      <trkpt lat="47.11449" lon="5.73511">
        <ele>264</ele>
        <time>2014-06-14T02:44:57Z</time>
      </trkpt>
      <trkpt lat="47.11388" lon="5.7354">
        <ele>264</ele>
        <time>2014-06-14T02:45:12Z</time>
      </trkpt>
      <trkpt lat="47.11309" lon="5.73575">
        <ele>265</ele>
        <time>2014-06-14T02:45:28Z</time>
      </trkpt>
      <trkpt lat="47.11221" lon="5.73617">
        <ele>267</ele>
        <time>2014-06-14T02:45:43Z</time>
      </trkpt>
      <trkpt lat="47.11139" lon="5.73654">
        <ele>269</ele>
        <time>2014-06-14T02:45:59Z</time>
      </trkpt>
      <trkpt lat="47.1106" lon="5.73693">
        <ele>269</ele>
        <time>2014-06-14T02:46:15Z</time>
      </trkpt>
      <trkpt lat="47.10987" lon="5.7373">
        <ele>269</ele>
        <time>2014-06-14T02:46:30Z</time>
      </trkpt>
      <trkpt lat="47.10904" lon="5.73768">
        <ele>269</ele>
        <time>2014-06-14T02:46:46Z</time>
      </trkpt>
      <trkpt lat="47.10818" lon="5.73808">
        <ele>269</ele>
        <time>2014-06-14T02:47:01Z</time>
      </trkpt>
      <trkpt lat="47.10749" lon="5.73843">
        <ele>271</ele>
        <time>2014-06-14T02:47:17Z</time>
      </trkpt>
      <trkpt lat="47.10687" lon="5.73873">
        <ele>271</ele>
        <time>2014-06-14T02:47:33Z</time>
      </trkpt>
      <trkpt lat="47.10625" lon="5.73898">
        <ele>271</ele>
        <time>2014-06-14T02:47:48Z</time>
      </trkpt>
      <trkpt lat="47.10552" lon="5.73934">
        <ele>271</ele>
        <time>2014-06-14T02:48:04Z</time>
      </trkpt>
      <trkpt lat="47.10467" lon="5.73974">
        <ele>270</ele>
        <time>2014-06-14T02:48:19Z</time>
      </trkpt>
      <trkpt lat="47.10364" lon="5.74022">
        <ele>271</ele>
        <time>2014-06-14T02:48:36Z</time>
      </trkpt>
      <trkpt lat="47.10272" lon="5.74069">
        <ele>273</ele>
        <time>2014-06-14T02:48:52Z</time>
      </trkpt>
      <trkpt lat="47.10182" lon="5.74114">
        <ele>273</ele>
        <time>2014-06-14T02:49:07Z</time>
      </trkpt>
      <trkpt lat="47.10094" lon="5.74149">
        <ele>272</ele>
        <time>2014-06-14T02:49:23Z</time>
      </trkpt>
      <trkpt lat="47.09999" lon="5.74192">
        <ele>270</ele>
        <time>2014-06-14T02:49:38Z</time>
      </trkpt>
      <trkpt lat="47.09904" lon="5.74236">
        <ele>269</ele>
        <time>2014-06-14T02:49:54Z</time>
      </trkpt>
      <trkpt lat="47.09815" lon="5.74277">
        <ele>269</ele>
        <time>2014-06-14T02:50:10Z</time>
      </trkpt>
      <trkpt lat="47.09715" lon="5.74326">
        <ele>266</ele>
        <time>2014-06-14T02:50:25Z</time>
      </trkpt>
      <trkpt lat="47.09613" lon="5.74374">
        <ele>263</ele>
        <time>2014-06-14T02:50:41Z</time>
      </trkpt>
      <trkpt lat="47.09484" lon="5.74433">
        <ele>259</ele>
        <time>2014-06-14T02:50:57Z</time>
      </trkpt>
      <trkpt lat="47.09372" lon="5.74487">
        <ele>260</ele>
        <time>2014-06-14T02:51:13Z</time>
      </trkpt>
      <trkpt lat="47.09299" lon="5.74522">
        <ele>262</ele>
        <time>2014-06-14T02:51:28Z</time>
      </trkpt>
      <trkpt lat="47.09201" lon="5.74566">
        <ele>263</ele>
        <time>2014-06-14T02:51:44Z</time>
      </trkpt>
      <trkpt lat="47.09116" lon="5.74609">
        <ele>265</ele>
        <time>2014-06-14T02:51:59Z</time>
      </trkpt>
      <trkpt lat="47.09023" lon="5.74656">
        <ele>266</ele>
        <time>2014-06-14T02:52:14Z</time>
      </trkpt>
      <trkpt lat="47.08948" lon="5.74692">
        <ele>268</ele>
        <time>2014-06-14T02:52:29Z</time>
      </trkpt>
      <trkpt lat="47.08869" lon="5.74728">
        <ele>269</ele>
        <time>2014-06-14T02:52:45Z</time>
      </trkpt>
      <trkpt lat="47.08793" lon="5.74762">
        <ele>270</ele>
        <time>2014-06-14T02:53:01Z</time>
      </trkpt>
      <trkpt lat="47.08713" lon="5.74803">
        <ele>271</ele>
        <time>2014-06-14T02:53:17Z</time>
      </trkpt>
      <trkpt lat="47.08629" lon="5.74841">
        <ele>271</ele>
        <time>2014-06-14T02:53:33Z</time>
      </trkpt>
      <trkpt lat="47.08536" lon="5.74885">
        <ele>272</ele>
        <time>2014-06-14T02:53:49Z</time>
      </trkpt>
      <trkpt lat="47.08449" lon="5.74931">
        <ele>270</ele>
        <time>2014-06-14T02:54:04Z</time>
      </trkpt>
      <trkpt lat="47.08353" lon="5.74975">
        <ele>270</ele>
        <time>2014-06-14T02:54:20Z</time>
      </trkpt>
      <trkpt lat="47.08268" lon="5.75018">
        <ele>273</ele>
        <time>2014-06-14T02:54:36Z</time>
      </trkpt>
      <trkpt lat="47.08185" lon="5.75055">
        <ele>274</ele>
        <time>2014-06-14T02:54:52Z</time>
      </trkpt>
      <trkpt lat="47.08098" lon="5.75101">
        <ele>276</ele>
        <time>2014-06-14T02:55:08Z</time>
      </trkpt>
      <trkpt lat="47.0801" lon="5.75142">
        <ele>275</ele>
        <time>2014-06-14T02:55:24Z</time>
      </trkpt>
      <trkpt lat="47.07927" lon="5.75184">
        <ele>274</ele>
        <time>2014-06-14T02:55:40Z</time>
      </trkpt>
      <trkpt lat="47.07845" lon="5.75223">
        <ele>273</ele>
        <time>2014-06-14T02:55:55Z</time>
      </trkpt>
      <trkpt lat="47.07757" lon="5.75267">
        <ele>273</ele>
        <time>2014-06-14T02:56:10Z</time>
      </trkpt>
      <trkpt lat="47.07658" lon="5.75315">
        <ele>272</ele>
        <time>2014-06-14T02:56:26Z</time>
      </trkpt>
      <trkpt lat="47.07563" lon="5.75361">
        <ele>270</ele>
        <time>2014-06-14T02:56:41Z</time>
      </trkpt>
      <trkpt lat="47.07478" lon="5.75403">
        <ele>270</ele>
        <time>2014-06-14T02:56:57Z</time>
      </trkpt>
      <trkpt lat="47.07384" lon="5.75449">
        <ele>270</ele>
        <time>2014-06-14T02:57:13Z</time>
      </trkpt>
      <trkpt lat="47.0729" lon="5.75496">
        <ele>270</ele>
        <time>2014-06-14T02:57:28Z</time>
      </trkpt>
      <trkpt lat="47.07201" lon="5.7554">
        <ele>271</ele>
        <time>2014-06-14T02:57:44Z</time>
      </trkpt>
      <trkpt lat="47.07111" lon="5.75585">
        <ele>270</ele>
        <time>2014-06-14T02:57:59Z</time>
      </trkpt>
      <trkpt lat="47.07008" lon="5.75635">
        <ele>267</ele>
        <time>2014-06-14T02:58:15Z</time>
      </trkpt>
      <trkpt lat="47.069" lon="5.75688">
        <ele>265</ele>
        <time>2014-06-14T02:58:31Z</time>
      </trkpt>
      <trkpt lat="47.06809" lon="5.75733">
        <ele>268</ele>
        <time>2014-06-14T02:58:47Z</time>
      </trkpt>
      <trkpt lat="47.06718" lon="5.75781">
        <ele>271</ele>
        <time>2014-06-14T02:59:02Z</time>
      </trkpt>
      <trkpt lat="47.06638" lon="5.7582">
        <ele>272</ele>
        <time>2014-06-14T02:59:18Z</time>
      </trkpt>
      <trkpt lat="47.06536" lon="5.7587">
        <ele>269</ele>
        <time>2014-06-14T02:59:34Z</time>
      </trkpt>
      <trkpt lat="47.06416" lon="5.75928">
        <ele>265</ele>
        <time>2014-06-14T02:59:50Z</time>
      </trkpt>
      <trkpt lat="47.06312" lon="5.75982">
        <ele>268</ele>
        <time>2014-06-14T03:00:05Z</time>
      </trkpt>
      <trkpt lat="47.06226" lon="5.76024">
        <ele>268</ele>
        <time>2014-06-14T03:00:21Z</time>
      </trkpt>
      <trkpt lat="47.06133" lon="5.76069">
        <ele>267</ele>
        <time>2014-06-14T03:00:37Z</time>
      </trkpt>
      <trkpt lat="47.06041" lon="5.76117">
        <ele>269</ele>
        <time>2014-06-14T03:00:52Z</time>
      </trkpt>
      <trkpt lat="47.05948" lon="5.76164">
        <ele>266</ele>
        <time>2014-06-14T03:01:09Z</time>
      </trkpt>
      <trkpt lat="47.05849" lon="5.76214">
        <ele>263</ele>
        <time>2014-06-14T03:01:24Z</time>
      </trkpt>
      <trkpt lat="47.05732" lon="5.76273">
        <ele>259</ele>
        <time>2014-06-14T03:01:39Z</time>
      </trkpt>
      <trkpt lat="47.05627" lon="5.76322">
        <ele>260</ele>
        <time>2014-06-14T03:01:55Z</time>
      </trkpt>
      <trkpt lat="47.05533" lon="5.76364">
        <ele>262</ele>
        <time>2014-06-14T03:02:11Z</time>
      </trkpt>
      <trkpt lat="47.05421" lon="5.7642">
        <ele>261</ele>
        <time>2014-06-14T03:02:26Z</time>
      </trkpt>
      <trkpt lat="47.0531" lon="5.76475">
        <ele>261</ele>
        <time>2014-06-14T03:02:42Z</time>
      </trkpt>
      <trkpt lat="47.05227" lon="5.76517">
        <ele>264</ele>
        <time>2014-06-14T03:02:57Z</time>
      </trkpt>
      <trkpt lat="47.05152" lon="5.76557">
        <ele>263</ele>
        <time>2014-06-14T03:03:12Z</time>
      </trkpt>
      <trkpt lat="47.05067" lon="5.76598">
        <ele>263</ele>
        <time>2014-06-14T03:03:28Z</time>
      </trkpt>
      <trkpt lat="47.04982" lon="5.76641">
        <ele>264</ele>
        <time>2014-06-14T03:03:44Z</time>
      </trkpt>
      <trkpt lat="47.04885" lon="5.76685">
        <ele>261</ele>
        <time>2014-06-14T03:03:59Z</time>
      </trkpt>
      <trkpt lat="47.04843" lon="5.76675">
        <ele>261</ele>
        <time>2014-06-14T03:04:15Z</time>
      </trkpt>
      <trkpt lat="47.04848" lon="5.76666">
        <ele>262</ele>
        <time>2014-06-14T03:04:30Z</time>
      </trkpt>
      <trkpt lat="47.04858" lon="5.76655">
        <ele>262</ele>
        <time>2014-06-14T03:04:46Z</time>
      </trkpt>
      <trkpt lat="47.04865" lon="5.76654">
        <ele>262</ele>
        <time>2014-06-14T03:05:02Z</time>
      </trkpt>
      <trkpt lat="47.04865" lon="5.76654">
        <ele>262</ele>
        <time>2014-06-14T03:05:18Z</time>
      </trkpt>
      <trkpt lat="47.04865" lon="5.76654">
        <ele>262</ele>
        <time>2014-06-14T03:05:33Z</time>
      </trkpt>
      <trkpt lat="47.0486" lon="5.76648">
        <ele>262</ele>
        <time>2014-06-14T03:05:49Z</time>
      </trkpt>
      <trkpt lat="47.0486" lon="5.76656">
        <ele>262</ele>
        <time>2014-06-14T03:06:05Z</time>
      </trkpt>
      <trkpt lat="47.04852" lon="5.76663">
        <ele>262</ele>
        <time>2014-06-14T03:06:21Z</time>
      </trkpt>
      <trkpt lat="47.04852" lon="5.76666">
        <ele>262</ele>
        <time>2014-06-14T03:06:37Z</time>
      </trkpt>
      <trkpt lat="47.0485" lon="5.76661">
        <ele>262</ele>
        <time>2014-06-14T03:06:52Z</time>
      </trkpt>
      <trkpt lat="47.04849" lon="5.76662">
        <ele>262</ele>
        <time>2014-06-14T03:07:07Z</time>
      </trkpt>
      <trkpt lat="47.04849" lon="5.76665">
        <ele>262</ele>
        <time>2014-06-14T03:07:22Z</time>
      </trkpt>
      <trkpt lat="47.04848" lon="5.76663">
        <ele>262</ele>
        <time>2014-06-14T03:07:38Z</time>
      </trkpt>
      <trkpt lat="47.04847" lon="5.76666">
        <ele>261</ele>
        <time>2014-06-14T03:07:53Z</time>
      </trkpt>
      <trkpt lat="47.04849" lon="5.76667">
        <ele>261</ele>
        <time>2014-06-14T03:08:08Z</time>
      </trkpt>
      <trkpt lat="47.04849" lon="5.76668">
        <ele>261</ele>
        <time>2014-06-14T03:08:24Z</time>
      </trkpt>
      <trkpt lat="47.04849" lon="5.76668">
        <ele>261</ele>
        <time>2014-06-14T03:08:40Z</time>
      </trkpt>
      <trkpt lat="47.04849" lon="5.76668">
        <ele>261</ele>
        <time>2014-06-14T03:08:55Z</time>
      </trkpt>
      <trkpt lat="47.04849" lon="5.76668">
        <ele>261</ele>
        <time>2014-06-14T03:09:11Z</time>
      </trkpt>
      <trkpt lat="47.04848" lon="5.76668">
        <ele>261</ele>
        <time>2014-06-14T03:09:26Z</time>
      </trkpt>
      <trkpt lat="47.04847" lon="5.76669">
        <ele>261</ele>
        <time>2014-06-14T03:09:42Z</time>
      </trkpt>
      <trkpt lat="47.04847" lon="5.7667">
        <ele>261</ele>
        <time>2014-06-14T03:09:57Z</time>
      </trkpt>
      <trkpt lat="47.04845" lon="5.76672">
        <ele>261</ele>
        <time>2014-06-14T03:10:13Z</time>
      </trkpt>
      <trkpt lat="47.04845" lon="5.76672">
        <ele>261</ele>
        <time>2014-06-14T03:10:28Z</time>
      </trkpt>
      <trkpt lat="47.04845" lon="5.76672">
        <ele>261</ele>
        <time>2014-06-14T03:10:43Z</time>
      </trkpt>
      <trkpt lat="47.04845" lon="5.76672">
        <ele>261</ele>
        <time>2014-06-14T03:10:58Z</time>
      </trkpt>
      <trkpt lat="47.04847" lon="5.76666">
        <ele>261</ele>
        <time>2014-06-14T03:11:15Z</time>
      </trkpt>
      <trkpt lat="47.04848" lon="5.76665">
        <ele>262</ele>
        <time>2014-06-14T03:11:30Z</time>
      </trkpt>
      <trkpt lat="47.04848" lon="5.76665">
        <ele>262</ele>
        <time>2014-06-14T03:11:45Z</time>
      </trkpt>
      <trkpt lat="47.04848" lon="5.76665">
        <ele>262</ele>
        <time>2014-06-14T03:12:01Z</time>
      </trkpt>
      <trkpt lat="47.04845" lon="5.76668">
        <ele>261</ele>
        <time>2014-06-14T03:12:17Z</time>
      </trkpt>
      <trkpt lat="47.04843" lon="5.76666">
        <ele>261</ele>
        <time>2014-06-14T03:12:32Z</time>
      </trkpt>
      <trkpt lat="47.04842" lon="5.76666">
        <ele>261</ele>
        <time>2014-06-14T03:12:47Z</time>
      </trkpt>
      <trkpt lat="47.04842" lon="5.76665">
        <ele>261</ele>
        <time>2014-06-14T03:13:02Z</time>
      </trkpt>
      <trkpt lat="47.04842" lon="5.76665">
        <ele>261</ele>
        <time>2014-06-14T03:13:18Z</time>
      </trkpt>
      <trkpt lat="47.04842" lon="5.76666">
        <ele>261</ele>
        <time>2014-06-14T03:13:34Z</time>
      </trkpt>
      <trkpt lat="47.04845" lon="5.76667">
        <ele>261</ele>
        <time>2014-06-14T03:13:49Z</time>
      </trkpt>
      <trkpt lat="47.04845" lon="5.76667">
        <ele>261</ele>
        <time>2014-06-14T03:14:04Z</time>
      </trkpt>
      <trkpt lat="47.04845" lon="5.76667">
        <ele>261</ele>
        <time>2014-06-14T03:14:20Z</time>
      </trkpt>
      <trkpt lat="47.04846" lon="5.76673">
        <ele>261</ele>
        <time>2014-06-14T03:14:36Z</time>
      </trkpt>
      <trkpt lat="47.04847" lon="5.76674">
        <ele>261</ele>
        <time>2014-06-14T03:14:52Z</time>
      </trkpt>
      <trkpt lat="47.04847" lon="5.76674">
        <ele>261</ele>
        <time>2014-06-14T03:15:08Z</time>
      </trkpt>
      <trkpt lat="47.04847" lon="5.76676">
        <ele>261</ele>
        <time>2014-06-14T03:15:24Z</time>
      </trkpt>
      <trkpt lat="47.04847" lon="5.76676">
        <ele>261</ele>
        <time>2014-06-14T03:15:39Z</time>
      </trkpt>
      <trkpt lat="47.04847" lon="5.76676">
        <ele>261</ele>
        <time>2014-06-14T03:15:55Z</time>
      </trkpt>
      <trkpt lat="47.04847" lon="5.76676">
        <ele>261</ele>
        <time>2014-06-14T03:16:11Z</time>
      </trkpt>
      <trkpt lat="47.04847" lon="5.76676">
        <ele>261</ele>
        <time>2014-06-14T03:16:26Z</time>
      </trkpt>
      <trkpt lat="47.04847" lon="5.76676">
        <ele>261</ele>
        <time>2014-06-14T03:16:42Z</time>
      </trkpt>
      <trkpt lat="47.04845" lon="5.7667">
        <ele>261</ele>
        <time>2014-06-14T03:16:58Z</time>
      </trkpt>
      <trkpt lat="47.04845" lon="5.76668">
        <ele>261</ele>
        <time>2014-06-14T03:17:13Z</time>
      </trkpt>
      <trkpt lat="47.04845" lon="5.76668">
        <ele>261</ele>
        <time>2014-06-14T03:17:29Z</time>
      </trkpt>
      <trkpt lat="47.04845" lon="5.76668">
        <ele>261</ele>
        <time>2014-06-14T03:17:44Z</time>
      </trkpt>
      <trkpt lat="47.04845" lon="5.76668">
        <ele>261</ele>
        <time>2014-06-14T03:18:00Z</time>
      </trkpt>
      <trkpt lat="47.04845" lon="5.76668">
        <ele>261</ele>
        <time>2014-06-14T03:18:16Z</time>
      </trkpt>
      <trkpt lat="47.04845" lon="5.76668">
        <ele>261</ele>
        <time>2014-06-14T03:18:32Z</time>
      </trkpt>
      <trkpt lat="47.04848" lon="5.76666">
        <ele>262</ele>
        <time>2014-06-14T03:18:47Z</time>
      </trkpt>
      <trkpt lat="47.04852" lon="5.76656">
        <ele>262</ele>
        <time>2014-06-14T03:19:03Z</time>
      </trkpt>
      <trkpt lat="47.04828" lon="5.76646">
        <ele>261</ele>
        <time>2014-06-14T03:19:18Z</time>
      </trkpt>
      <trkpt lat="47.04814" lon="5.76614">
        <ele>261</ele>
        <time>2014-06-14T03:19:34Z</time>
      </trkpt>
      <trkpt lat="47.04799" lon="5.7657">
        <ele>261</ele>
        <time>2014-06-14T03:19:50Z</time>
      </trkpt>
      <trkpt lat="47.04796" lon="5.76486">
        <ele>259</ele>
        <time>2014-06-14T03:20:05Z</time>
      </trkpt>
      <trkpt lat="47.0479" lon="5.76382">
        <ele>260</ele>
        <time>2014-06-14T03:20:20Z</time>
      </trkpt>
      <trkpt lat="47.04783" lon="5.7628">
        <ele>262</ele>
        <time>2014-06-14T03:20:36Z</time>
      </trkpt>
      <trkpt lat="47.04738" lon="5.76177">
        <ele>262</ele>
        <time>2014-06-14T03:20:51Z</time>
      </trkpt>
      <trkpt lat="47.04677" lon="5.76082">
        <ele>261</ele>
        <time>2014-06-14T03:21:07Z</time>
      </trkpt>
      <trkpt lat="47.04619" lon="5.75999">
        <ele>258</ele>
        <time>2014-06-14T03:21:22Z</time>
      </trkpt>
      <trkpt lat="47.04566" lon="5.76015">
        <ele>258</ele>
        <time>2014-06-14T03:21:37Z</time>
      </trkpt>
      <trkpt lat="47.04497" lon="5.76062">
        <ele>256</ele>
        <time>2014-06-14T03:21:52Z</time>
      </trkpt>
      <trkpt lat="47.04408" lon="5.76095">
        <ele>253</ele>
        <time>2014-06-14T03:22:08Z</time>
      </trkpt>
      <trkpt lat="47.04324" lon="5.76173">
        <ele>250</ele>
        <time>2014-06-14T03:22:24Z</time>
      </trkpt>
      <trkpt lat="47.04257" lon="5.76277">
        <ele>253</ele>
        <time>2014-06-14T03:22:39Z</time>
      </trkpt>
      <trkpt lat="47.04196" lon="5.76361">
        <ele>253</ele>
        <time>2014-06-14T03:22:54Z</time>
      </trkpt>
      <trkpt lat="47.04119" lon="5.7643">
        <ele>251</ele>
        <time>2014-06-14T03:23:10Z</time>
      </trkpt>
      <trkpt lat="47.04029" lon="5.76518">
        <ele>248</ele>
        <time>2014-06-14T03:23:25Z</time>
      </trkpt>
      <trkpt lat="47.03922" lon="5.76535">
        <ele>243</ele>
        <time>2014-06-14T03:23:40Z</time>
      </trkpt>
      <trkpt lat="47.03834" lon="5.76486">
        <ele>240</ele>
        <time>2014-06-14T03:23:56Z</time>
      </trkpt>
      <trkpt lat="47.0372" lon="5.76453">
        <ele>235</ele>
        <time>2014-06-14T03:24:11Z</time>
      </trkpt>
      <trkpt lat="47.03595" lon="5.7644">
        <ele>233</ele>
        <time>2014-06-14T03:24:27Z</time>
      </trkpt>
      <trkpt lat="47.03466" lon="5.76459">
        <ele>232</ele>
        <time>2014-06-14T03:24:42Z</time>
      </trkpt>
      <trkpt lat="47.03366" lon="5.76493">
        <ele>231</ele>
        <time>2014-06-14T03:24:57Z</time>
      </trkpt>
      <trkpt lat="47.03288" lon="5.76522">
        <ele>232</ele>
        <time>2014-06-14T03:25:13Z</time>
      </trkpt>
      <trkpt lat="47.03171" lon="5.76563">
        <ele>232</ele>
        <time>2014-06-14T03:25:29Z</time>
      </trkpt>
      <trkpt lat="47.03081" lon="5.76599">
        <ele>232</ele>
        <time>2014-06-14T03:25:44Z</time>
      </trkpt>
      <trkpt lat="47.02984" lon="5.76633">
        <ele>232</ele>
        <time>2014-06-14T03:26:00Z</time>
      </trkpt>
      <trkpt lat="47.02938" lon="5.76645">
        <ele>232</ele>
        <time>2014-06-14T03:26:16Z</time>
      </trkpt>
      <trkpt lat="47.02942" lon="5.76687">
        <ele>232</ele>
        <time>2014-06-14T03:26:31Z</time>
      </trkpt>
      <trkpt lat="47.02958" lon="5.76745">
        <ele>233</ele>
        <time>2014-06-14T03:26:47Z</time>
      </trkpt>
      <trkpt lat="47.0298" lon="5.76815">
        <ele>233</ele>
        <time>2014-06-14T03:27:02Z</time>
      </trkpt>
      <trkpt lat="47.03015" lon="5.76893">
        <ele>234</ele>
        <time>2014-06-14T03:27:17Z</time>
      </trkpt>
      <trkpt lat="47.03055" lon="5.76954">
        <ele>233</ele>
        <time>2014-06-14T03:27:33Z</time>
      </trkpt>
      <trkpt lat="47.03085" lon="5.77033">
        <ele>233</ele>
        <time>2014-06-14T03:27:48Z</time>
      </trkpt>
      <trkpt lat="47.03084" lon="5.77101">
        <ele>233</ele>
        <time>2014-06-14T03:28:04Z</time>
      </trkpt>
      <trkpt lat="47.03045" lon="5.77166">
        <ele>233</ele>
        <time>2014-06-14T03:28:19Z</time>
      </trkpt>
      <trkpt lat="47.02998" lon="5.77236">
        <ele>233</ele>
        <time>2014-06-14T03:28:35Z</time>
      </trkpt>
      <trkpt lat="47.02979" lon="5.77323">
        <ele>234</ele>
        <time>2014-06-14T03:28:50Z</time>
      </trkpt>
      <trkpt lat="47.03003" lon="5.77399">
        <ele>234</ele>
        <time>2014-06-14T03:29:06Z</time>
      </trkpt>
      <trkpt lat="47.03031" lon="5.77481">
        <ele>233</ele>
        <time>2014-06-14T03:29:21Z</time>
      </trkpt>
      <trkpt lat="47.03059" lon="5.77562">
        <ele>233</ele>
        <time>2014-06-14T03:29:36Z</time>
      </trkpt>
      <trkpt lat="47.03085" lon="5.77636">
        <ele>233</ele>
        <time>2014-06-14T03:29:51Z</time>
      </trkpt>
      <trkpt lat="47.03113" lon="5.77721">
        <ele>234</ele>
        <time>2014-06-14T03:30:07Z</time>
      </trkpt>
      <trkpt lat="47.0314" lon="5.77795">
        <ele>234</ele>
        <time>2014-06-14T03:30:22Z</time>
      </trkpt>
      <trkpt lat="47.03171" lon="5.77826">
        <ele>234</ele>
        <time>2014-06-14T03:30:38Z</time>
      </trkpt>
      <trkpt lat="47.03192" lon="5.77847">
        <ele>234</ele>
        <time>2014-06-14T03:30:53Z</time>
      </trkpt>
      <trkpt lat="47.03189" lon="5.77846">
        <ele>234</ele>
        <time>2014-06-14T03:31:08Z</time>
      </trkpt>
      <trkpt lat="47.03188" lon="5.77848">
        <ele>234</ele>
        <time>2014-06-14T03:31:24Z</time>
      </trkpt>
      <trkpt lat="47.03188" lon="5.77847">
        <ele>234</ele>
        <time>2014-06-14T03:31:39Z</time>
      </trkpt>
      <trkpt lat="47.03193" lon="5.77841">
        <ele>234</ele>
        <time>2014-06-14T03:31:55Z</time>
      </trkpt>
      <trkpt lat="47.03213" lon="5.77833">
        <ele>235</ele>
        <time>2014-06-14T03:32:10Z</time>
      </trkpt>
      <trkpt lat="47.03216" lon="5.77835">
        <ele>235</ele>
        <time>2014-06-14T03:32:25Z</time>
      </trkpt>
      <trkpt lat="47.03206" lon="5.77844">
        <ele>234</ele>
        <time>2014-06-14T03:32:41Z</time>
      </trkpt>
      <trkpt lat="47.03196" lon="5.77843">
        <ele>234</ele>
        <time>2014-06-14T03:32:57Z</time>
      </trkpt>
      <trkpt lat="47.03192" lon="5.77848">
        <ele>234</ele>
        <time>2014-06-14T03:33:12Z</time>
      </trkpt>
      <trkpt lat="47.03191" lon="5.77849">
        <ele>234</ele>
        <time>2014-06-14T03:33:28Z</time>
      </trkpt>
      <trkpt lat="47.03192" lon="5.77848">
        <ele>234</ele>
        <time>2014-06-14T03:33:43Z</time>
      </trkpt>
      <trkpt lat="47.0319" lon="5.77849">
        <ele>234</ele>
        <time>2014-06-14T03:33:58Z</time>
      </trkpt>
      <trkpt lat="47.03192" lon="5.77845">
        <ele>234</ele>
        <time>2014-06-14T03:34:14Z</time>
      </trkpt>
      <trkpt lat="47.03193" lon="5.77844">
        <ele>234</ele>
        <time>2014-06-14T03:34:30Z</time>
      </trkpt>
      <trkpt lat="47.03194" lon="5.77846">
        <ele>234</ele>
        <time>2014-06-14T03:34:45Z</time>
      </trkpt>
      <trkpt lat="47.032" lon="5.77843">
        <ele>234</ele>
        <time>2014-06-14T03:35:01Z</time>
      </trkpt>
      <trkpt lat="47.03216" lon="5.77833">
        <ele>235</ele>
        <time>2014-06-14T03:35:16Z</time>
      </trkpt>
      <trkpt lat="47.03226" lon="5.77823">
        <ele>235</ele>
        <time>2014-06-14T03:35:31Z</time>
      </trkpt>
      <trkpt lat="47.03233" lon="5.7782">
        <ele>235</ele>
        <time>2014-06-14T03:35:47Z</time>
      </trkpt>
      <trkpt lat="47.03234" lon="5.77821">
        <ele>235</ele>
        <time>2014-06-14T03:36:02Z</time>
      </trkpt>
      <trkpt lat="47.03229" lon="5.77819">
        <ele>235</ele>
        <time>2014-06-14T03:36:17Z</time>
      </trkpt>
      <trkpt lat="47.03218" lon="5.77831">
        <ele>235</ele>
        <time>2014-06-14T03:36:33Z</time>
      </trkpt>
      <trkpt lat="47.0322" lon="5.77835">
        <ele>235</ele>
        <time>2014-06-14T03:36:48Z</time>
      </trkpt>
      <trkpt lat="47.03219" lon="5.77832">
        <ele>235</ele>
        <time>2014-06-14T03:37:03Z</time>
      </trkpt>
      <trkpt lat="47.0321" lon="5.77833">
        <ele>235</ele>
        <time>2014-06-14T03:37:19Z</time>
      </trkpt>
      <trkpt lat="47.03201" lon="5.77842">
        <ele>234</ele>
        <time>2014-06-14T03:37:34Z</time>
      </trkpt>
      <trkpt lat="47.03192" lon="5.77853">
        <ele>234</ele>
        <time>2014-06-14T03:37:50Z</time>
      </trkpt>
      <trkpt lat="47.03171" lon="5.77864">
        <ele>234</ele>
        <time>2014-06-14T03:38:05Z</time>
      </trkpt>
      <trkpt lat="47.03156" lon="5.77876">
        <ele>234</ele>
        <time>2014-06-14T03:38:21Z</time>
      </trkpt>
      <trkpt lat="47.03156" lon="5.77876">
        <ele>234</ele>
        <time>2014-06-14T03:38:36Z</time>
      </trkpt>
      <trkpt lat="47.03156" lon="5.77876">
        <ele>234</ele>
        <time>2014-06-14T03:38:52Z</time>
      </trkpt>
      <trkpt lat="47.03155" lon="5.77872">
        <ele>234</ele>
        <time>2014-06-14T03:39:07Z</time>
      </trkpt>
      <trkpt lat="47.03154" lon="5.77869">
        <ele>234</ele>
        <time>2014-06-14T03:39:23Z</time>
      </trkpt>
      <trkpt lat="47.03155" lon="5.77868">
        <ele>234</ele>
        <time>2014-06-14T03:39:39Z</time>
      </trkpt>
      <trkpt lat="47.03156" lon="5.7787">
        <ele>234</ele>
        <time>2014-06-14T03:39:54Z</time>
      </trkpt>
      <trkpt lat="47.03158" lon="5.77869">
        <ele>234</ele>
        <time>2014-06-14T03:40:10Z</time>
      </trkpt>
      <trkpt lat="47.03158" lon="5.77869">
        <ele>234</ele>
        <time>2014-06-14T03:40:26Z</time>
      </trkpt>
      <trkpt lat="47.03158" lon="5.77869">
        <ele>234</ele>
        <time>2014-06-14T03:40:42Z</time>
      </trkpt>
      <trkpt lat="47.03158" lon="5.77869">
        <ele>234</ele>
        <time>2014-06-14T03:40:57Z</time>
      </trkpt>
      <trkpt lat="47.03158" lon="5.77869">
        <ele>234</ele>
        <time>2014-06-14T03:41:13Z</time>
      </trkpt>
      <trkpt lat="47.03165" lon="5.77876">
        <ele>234</ele>
        <time>2014-06-14T03:41:29Z</time>
      </trkpt>
      <trkpt lat="47.03172" lon="5.77877">
        <ele>234</ele>
        <time>2014-06-14T03:41:45Z</time>
      </trkpt>
      <trkpt lat="47.03172" lon="5.77878">
        <ele>234</ele>
        <time>2014-06-14T03:42:00Z</time>
      </trkpt>
      <trkpt lat="47.03169" lon="5.77859">
        <ele>234</ele>
        <time>2014-06-14T03:42:16Z</time>
      </trkpt>
      <trkpt lat="47.03172" lon="5.77878">
        <ele>234</ele>
        <time>2014-06-14T03:42:31Z</time>
      </trkpt>
      <trkpt lat="47.03172" lon="5.77878">
        <ele>234</ele>
        <time>2014-06-14T03:42:47Z</time>
      </trkpt>
      <trkpt lat="47.03172" lon="5.77878">
        <ele>234</ele>
        <time>2014-06-14T03:43:05Z</time>
      </trkpt>
      <trkpt lat="47.03166" lon="5.77871">
        <ele>234</ele>
        <time>2014-06-14T03:43:20Z</time>
      </trkpt>
      <trkpt lat="47.03158" lon="5.77871">
        <ele>234</ele>
        <time>2014-06-14T03:43:36Z</time>
      </trkpt>
      <trkpt lat="47.03159" lon="5.77871">
        <ele>234</ele>
        <time>2014-06-14T03:43:51Z</time>
      </trkpt>
      <trkpt lat="47.03159" lon="5.77871">
        <ele>234</ele>
        <time>2014-06-14T03:44:07Z</time>
      </trkpt>
      <trkpt lat="47.03159" lon="5.77871">
        <ele>234</ele>
        <time>2014-06-14T03:44:22Z</time>
      </trkpt>
      <trkpt lat="47.03161" lon="5.77867">
        <ele>234</ele>
        <time>2014-06-14T03:44:37Z</time>
      </trkpt>
      <trkpt lat="47.0316" lon="5.77869">
        <ele>234</ele>
        <time>2014-06-14T03:44:53Z</time>
      </trkpt>
      <trkpt lat="47.0316" lon="5.77869">
        <ele>234</ele>
        <time>2014-06-14T03:45:08Z</time>
      </trkpt>
      <trkpt lat="47.03163" lon="5.77861">
        <ele>234</ele>
        <time>2014-06-14T03:45:24Z</time>
      </trkpt>
      <trkpt lat="47.03153" lon="5.77815">
        <ele>234</ele>
        <time>2014-06-14T03:45:39Z</time>
      </trkpt>
      <trkpt lat="47.03121" lon="5.77735">
        <ele>234</ele>
        <time>2014-06-14T03:45:55Z</time>
      </trkpt>
      <trkpt lat="47.03125" lon="5.77722">
        <ele>234</ele>
        <time>2014-06-14T03:46:11Z</time>
      </trkpt>
      <trkpt lat="47.03124" lon="5.77724">
        <ele>234</ele>
        <time>2014-06-14T03:46:27Z</time>
      </trkpt>
      <trkpt lat="47.03123" lon="5.77721">
        <ele>234</ele>
        <time>2014-06-14T03:46:42Z</time>
      </trkpt>
      <trkpt lat="47.03124" lon="5.77723">
        <ele>234</ele>
        <time>2014-06-14T03:46:57Z</time>
      </trkpt>
      <trkpt lat="47.03124" lon="5.77724">
        <ele>234</ele>
        <time>2014-06-14T03:47:13Z</time>
      </trkpt>
      <trkpt lat="47.03124" lon="5.77724">
        <ele>234</ele>
        <time>2014-06-14T03:47:28Z</time>
      </trkpt>
      <trkpt lat="47.03125" lon="5.77717">
        <ele>234</ele>
        <time>2014-06-14T03:47:44Z</time>
      </trkpt>
      <trkpt lat="47.03125" lon="5.77717">
        <ele>234</ele>
        <time>2014-06-14T03:47:59Z</time>
      </trkpt>
      <trkpt lat="47.03125" lon="5.77717">
        <ele>234</ele>
        <time>2014-06-14T03:48:15Z</time>
      </trkpt>
      <trkpt lat="47.03125" lon="5.77717">
        <ele>234</ele>
        <time>2014-06-14T03:48:31Z</time>
      </trkpt>
      <trkpt lat="47.03125" lon="5.77717">
        <ele>234</ele>
        <time>2014-06-14T03:48:47Z</time>
      </trkpt>
      <trkpt lat="47.03125" lon="5.77717">
        <ele>234</ele>
        <time>2014-06-14T03:49:02Z</time>
      </trkpt>
      <trkpt lat="47.03125" lon="5.77717">
        <ele>234</ele>
        <time>2014-06-14T03:49:17Z</time>
      </trkpt>
      <trkpt lat="47.03125" lon="5.77717">
        <ele>234</ele>
        <time>2014-06-14T03:49:32Z</time>
      </trkpt>
      <trkpt lat="47.03125" lon="5.77717">
        <ele>234</ele>
        <time>2014-06-14T03:49:48Z</time>
      </trkpt>
      <trkpt lat="47.03125" lon="5.77717">
        <ele>234</ele>
        <time>2014-06-14T03:50:04Z</time>
      </trkpt>
      <trkpt lat="47.03125" lon="5.77717">
        <ele>234</ele>
        <time>2014-06-14T03:50:19Z</time>
      </trkpt>
      <trkpt lat="47.03125" lon="5.77717">
        <ele>234</ele>
        <time>2014-06-14T03:50:35Z</time>
      </trkpt>
      <trkpt lat="47.03125" lon="5.77717">
        <ele>234</ele>
        <time>2014-06-14T03:50:50Z</time>
      </trkpt>
      <trkpt lat="47.03125" lon="5.77717">
        <ele>234</ele>
        <time>2014-06-14T03:51:06Z</time>
      </trkpt>
      <trkpt lat="47.03125" lon="5.77717">
        <ele>234</ele>
        <time>2014-06-14T03:51:22Z</time>
      </trkpt>
      <trkpt lat="47.03125" lon="5.77717">
        <ele>234</ele>
        <time>2014-06-14T03:51:37Z</time>
      </trkpt>
      <trkpt lat="47.03125" lon="5.77717">
        <ele>234</ele>
        <time>2014-06-14T03:51:53Z</time>
      </trkpt>
      <trkpt lat="47.03125" lon="5.77717">
        <ele>234</ele>
        <time>2014-06-14T03:52:09Z</time>
      </trkpt>
      <trkpt lat="47.03125" lon="5.77717">
        <ele>234</ele>
        <time>2014-06-14T03:52:24Z</time>
      </trkpt>
      <trkpt lat="47.03125" lon="5.77717">
        <ele>234</ele>
        <time>2014-06-14T03:52:40Z</time>
      </trkpt>
      <trkpt lat="47.03125" lon="5.77717">
        <ele>234</ele>
        <time>2014-06-14T03:52:55Z</time>
      </trkpt>
      <trkpt lat="47.03125" lon="5.77717">
        <ele>234</ele>
        <time>2014-06-14T03:53:11Z</time>
      </trkpt>
      <trkpt lat="47.03125" lon="5.77717">
        <ele>234</ele>
        <time>2014-06-14T03:53:26Z</time>
      </trkpt>
      <trkpt lat="47.03125" lon="5.77717">
        <ele>234</ele>
        <time>2014-06-14T03:53:41Z</time>
      </trkpt>
      <trkpt lat="47.03125" lon="5.77717">
        <ele>234</ele>
        <time>2014-06-14T03:53:56Z</time>
      </trkpt>
      <trkpt lat="47.03125" lon="5.77717">
        <ele>234</ele>
        <time>2014-06-14T03:54:11Z</time>
      </trkpt>
      <trkpt lat="47.03125" lon="5.77717">
        <ele>234</ele>
        <time>2014-06-14T03:54:26Z</time>
      </trkpt>
      <trkpt lat="47.03125" lon="5.77717">
        <ele>234</ele>
        <time>2014-06-14T03:54:42Z</time>
      </trkpt>
      <trkpt lat="47.03125" lon="5.77717">
        <ele>234</ele>
        <time>2014-06-14T03:54:57Z</time>
      </trkpt>
      <trkpt lat="47.03125" lon="5.77717">
        <ele>234</ele>
        <time>2014-06-14T03:55:12Z</time>
      </trkpt>
      <trkpt lat="47.03125" lon="5.77717">
        <ele>234</ele>
        <time>2014-06-14T03:55:27Z</time>
      </trkpt>
      <trkpt lat="47.03125" lon="5.77717">
        <ele>234</ele>
        <time>2014-06-14T03:55:43Z</time>
      </trkpt>
      <trkpt lat="47.03125" lon="5.77717">
        <ele>234</ele>
        <time>2014-06-14T03:55:58Z</time>
      </trkpt>
      <trkpt lat="47.03125" lon="5.77717">
        <ele>234</ele>
        <time>2014-06-14T03:56:13Z</time>
      </trkpt>
      <trkpt lat="47.03125" lon="5.77717">
        <ele>234</ele>
        <time>2014-06-14T03:56:29Z</time>
      </trkpt>
      <trkpt lat="47.03125" lon="5.77717">
        <ele>234</ele>
        <time>2014-06-14T03:56:45Z</time>
      </trkpt>
      <trkpt lat="47.03125" lon="5.77717">
        <ele>234</ele>
        <time>2014-06-14T03:57:00Z</time>
      </trkpt>
      <trkpt lat="47.03125" lon="5.77717">
        <ele>234</ele>
        <time>2014-06-14T03:57:16Z</time>
      </trkpt>
      <trkpt lat="47.03125" lon="5.77717">
        <ele>234</ele>
        <time>2014-06-14T03:57:31Z</time>
      </trkpt>
      <trkpt lat="47.03125" lon="5.77717">
        <ele>234</ele>
        <time>2014-06-14T03:57:46Z</time>
      </trkpt>
      <trkpt lat="47.03125" lon="5.77717">
        <ele>234</ele>
        <time>2014-06-14T03:58:02Z</time>
      </trkpt>
      <trkpt lat="47.03125" lon="5.77717">
        <ele>234</ele>
        <time>2014-06-14T03:58:18Z</time>
      </trkpt>
      <trkpt lat="47.03125" lon="5.77717">
        <ele>234</ele>
        <time>2014-06-14T03:58:34Z</time>
      </trkpt>
      <trkpt lat="47.03125" lon="5.77717">
        <ele>234</ele>
        <time>2014-06-14T03:58:49Z</time>
      </trkpt>
      <trkpt lat="47.03125" lon="5.77717">
        <ele>234</ele>
        <time>2014-06-14T03:59:04Z</time>
      </trkpt>
      <trkpt lat="47.03125" lon="5.77717">
        <ele>234</ele>
        <time>2014-06-14T03:59:20Z</time>
      </trkpt>
      <trkpt lat="47.03125" lon="5.77717">
        <ele>234</ele>
        <time>2014-06-14T03:59:35Z</time>
      </trkpt>
      <trkpt lat="47.03125" lon="5.77717">
        <ele>234</ele>
        <time>2014-06-14T03:59:50Z</time>
      </trkpt>
      <trkpt lat="47.03125" lon="5.77717">
        <ele>234</ele>
        <time>2014-06-14T04:00:06Z</time>
      </trkpt>
      <trkpt lat="47.03125" lon="5.77717">
        <ele>234</ele>
        <time>2014-06-14T04:00:21Z</time>
      </trkpt>
      <trkpt lat="47.03125" lon="5.77717">
        <ele>234</ele>
        <time>2014-06-14T04:00:37Z</time>
      </trkpt>
      <trkpt lat="47.03125" lon="5.77717">
        <ele>234</ele>
        <time>2014-06-14T04:00:52Z</time>
      </trkpt>
      <trkpt lat="47.03125" lon="5.77717">
        <ele>234</ele>
        <time>2014-06-14T04:01:08Z</time>
      </trkpt>
      <trkpt lat="47.03125" lon="5.77717">
        <ele>234</ele>
        <time>2014-06-14T04:01:24Z</time>
      </trkpt>
      <trkpt lat="47.03125" lon="5.77717">
        <ele>234</ele>
        <time>2014-06-14T04:01:39Z</time>
      </trkpt>
      <trkpt lat="47.03125" lon="5.77717">
        <ele>234</ele>
        <time>2014-06-14T04:01:55Z</time>
      </trkpt>
      <trkpt lat="47.03125" lon="5.77717">
        <ele>234</ele>
        <time>2014-06-14T04:02:10Z</time>
      </trkpt>
      <trkpt lat="47.03125" lon="5.77717">
        <ele>234</ele>
        <time>2014-06-14T04:02:26Z</time>
      </trkpt>
      <trkpt lat="47.03125" lon="5.77717">
        <ele>234</ele>
        <time>2014-06-14T04:02:42Z</time>
      </trkpt>
      <trkpt lat="47.03125" lon="5.77717">
        <ele>234</ele>
        <time>2014-06-14T04:02:57Z</time>
      </trkpt>
      <trkpt lat="47.03125" lon="5.77717">
        <ele>234</ele>
        <time>2014-06-14T04:03:13Z</time>
      </trkpt>
      <trkpt lat="47.03125" lon="5.77717">
        <ele>234</ele>
        <time>2014-06-14T04:03:28Z</time>
      </trkpt>
      <trkpt lat="47.03125" lon="5.77717">
        <ele>234</ele>
        <time>2014-06-14T04:03:44Z</time>
      </trkpt>
      <trkpt lat="47.03125" lon="5.77717">
        <ele>234</ele>
        <time>2014-06-14T04:03:59Z</time>
      </trkpt>
      <trkpt lat="47.03125" lon="5.77717">
        <ele>234</ele>
        <time>2014-06-14T04:04:14Z</time>
      </trkpt>
      <trkpt lat="47.03125" lon="5.77717">
        <ele>234</ele>
        <time>2014-06-14T04:04:29Z</time>
      </trkpt>
      <trkpt lat="47.03125" lon="5.77717">
        <ele>234</ele>
        <time>2014-06-14T04:04:45Z</time>
      </trkpt>
      <trkpt lat="47.03124" lon="5.77719">
        <ele>234</ele>
        <time>2014-06-14T04:05:00Z</time>
      </trkpt>
      <trkpt lat="47.03124" lon="5.77719">
        <ele>234</ele>
        <time>2014-06-14T04:05:15Z</time>
      </trkpt>
      <trkpt lat="47.03125" lon="5.77719">
        <ele>234</ele>
        <time>2014-06-14T04:05:31Z</time>
      </trkpt>
      <trkpt lat="47.03125" lon="5.77719">
        <ele>234</ele>
        <time>2014-06-14T04:05:47Z</time>
      </trkpt>
      <trkpt lat="47.03125" lon="5.77719">
        <ele>234</ele>
        <time>2014-06-14T04:06:02Z</time>
      </trkpt>
      <trkpt lat="47.03125" lon="5.77723">
        <ele>234</ele>
        <time>2014-06-14T04:06:17Z</time>
      </trkpt>
      <trkpt lat="47.03125" lon="5.77723">
        <ele>234</ele>
        <time>2014-06-14T04:06:33Z</time>
      </trkpt>
      <trkpt lat="47.03125" lon="5.77724">
        <ele>234</ele>
        <time>2014-06-14T04:06:49Z</time>
      </trkpt>
      <trkpt lat="47.03125" lon="5.77724">
        <ele>234</ele>
        <time>2014-06-14T04:07:05Z</time>
      </trkpt>
      <trkpt lat="47.03125" lon="5.77724">
        <ele>234</ele>
        <time>2014-06-14T04:07:20Z</time>
      </trkpt>
      <trkpt lat="47.03127" lon="5.77717">
        <ele>234</ele>
        <time>2014-06-14T04:07:35Z</time>
      </trkpt>
      <trkpt lat="47.03127" lon="5.77717">
        <ele>234</ele>
        <time>2014-06-14T04:07:50Z</time>
      </trkpt>
      <trkpt lat="47.03128" lon="5.77717">
        <ele>234</ele>
        <time>2014-06-14T04:08:05Z</time>
      </trkpt>
      <trkpt lat="47.03128" lon="5.77717">
        <ele>234</ele>
        <time>2014-06-14T04:08:21Z</time>
      </trkpt>
      <trkpt lat="47.03128" lon="5.77717">
        <ele>234</ele>
        <time>2014-06-14T04:08:36Z</time>
      </trkpt>
      <trkpt lat="47.03128" lon="5.77717">
        <ele>234</ele>
        <time>2014-06-14T04:08:52Z</time>
      </trkpt>
      <trkpt lat="47.03128" lon="5.77717">
        <ele>234</ele>
        <time>2014-06-14T04:09:07Z</time>
      </trkpt>
      <trkpt lat="47.03128" lon="5.77717">
        <ele>234</ele>
        <time>2014-06-14T04:09:23Z</time>
      </trkpt>
      <trkpt lat="47.03128" lon="5.77717">
        <ele>234</ele>
        <time>2014-06-14T04:09:38Z</time>
      </trkpt>
      <trkpt lat="47.03128" lon="5.77717">
        <ele>234</ele>
        <time>2014-06-14T04:09:53Z</time>
      </trkpt>
      <trkpt lat="47.03128" lon="5.77717">
        <ele>234</ele>
        <time>2014-06-14T04:10:09Z</time>
      </trkpt>
      <trkpt lat="47.03128" lon="5.77717">
        <ele>234</ele>
        <time>2014-06-14T04:10:24Z</time>
      </trkpt>
      <trkpt lat="47.03128" lon="5.77717">
        <ele>234</ele>
        <time>2014-06-14T04:10:40Z</time>
      </trkpt>
      <trkpt lat="47.03128" lon="5.77717">
        <ele>234</ele>
        <time>2014-06-14T04:10:56Z</time>
      </trkpt>
      <trkpt lat="47.03128" lon="5.77717">
        <ele>234</ele>
        <time>2014-06-14T04:11:12Z</time>
      </trkpt>
      <trkpt lat="47.03128" lon="5.77717">
        <ele>234</ele>
        <time>2014-06-14T04:11:27Z</time>
      </trkpt>
      <trkpt lat="47.03128" lon="5.77717">
        <ele>234</ele>
        <time>2014-06-14T04:11:42Z</time>
      </trkpt>
      <trkpt lat="47.03128" lon="5.77717">
        <ele>234</ele>
        <time>2014-06-14T04:11:58Z</time>
      </trkpt>
      <trkpt lat="47.03128" lon="5.77717">
        <ele>234</ele>
        <time>2014-06-14T04:12:13Z</time>
      </trkpt>
      <trkpt lat="47.03128" lon="5.77717">
        <ele>234</ele>
        <time>2014-06-14T04:12:29Z</time>
      </trkpt>
      <trkpt lat="47.03128" lon="5.77717">
        <ele>234</ele>
        <time>2014-06-14T04:12:44Z</time>
      </trkpt>
      <trkpt lat="47.03128" lon="5.77717">
        <ele>234</ele>
        <time>2014-06-14T04:12:59Z</time>
      </trkpt>
      <trkpt lat="47.03128" lon="5.77717">
        <ele>234</ele>
        <time>2014-06-14T04:13:15Z</time>
      </trkpt>
      <trkpt lat="47.03128" lon="5.77717">
        <ele>234</ele>
        <time>2014-06-14T04:13:31Z</time>
      </trkpt>
      <trkpt lat="47.03128" lon="5.77717">
        <ele>234</ele>
        <time>2014-06-14T04:13:47Z</time>
      </trkpt>
      <trkpt lat="47.03128" lon="5.77717">
        <ele>234</ele>
        <time>2014-06-14T04:14:02Z</time>
      </trkpt>
      <trkpt lat="47.03128" lon="5.77717">
        <ele>234</ele>
        <time>2014-06-14T04:14:17Z</time>
      </trkpt>
      <trkpt lat="47.03128" lon="5.77717">
        <ele>234</ele>
        <time>2014-06-14T04:14:33Z</time>
      </trkpt>
      <trkpt lat="47.03128" lon="5.77717">
        <ele>234</ele>
        <time>2014-06-14T04:14:49Z</time>
      </trkpt>
      <trkpt lat="47.03128" lon="5.77717">
        <ele>234</ele>
        <time>2014-06-14T04:15:04Z</time>
      </trkpt>
      <trkpt lat="47.03128" lon="5.77717">
        <ele>234</ele>
        <time>2014-06-14T04:15:20Z</time>
      </trkpt>
      <trkpt lat="47.03128" lon="5.77719">
        <ele>234</ele>
        <time>2014-06-14T04:15:36Z</time>
      </trkpt>
      <trkpt lat="47.03128" lon="5.77719">
        <ele>234</ele>
        <time>2014-06-14T04:15:51Z</time>
      </trkpt>
      <trkpt lat="47.03128" lon="5.77719">
        <ele>234</ele>
        <time>2014-06-14T04:16:07Z</time>
      </trkpt>
      <trkpt lat="47.03128" lon="5.77719">
        <ele>234</ele>
        <time>2014-06-14T04:16:22Z</time>
      </trkpt>
      <trkpt lat="47.03128" lon="5.77719">
        <ele>234</ele>
        <time>2014-06-14T04:16:38Z</time>
      </trkpt>
      <trkpt lat="47.03128" lon="5.77719">
        <ele>234</ele>
        <time>2014-06-14T04:16:53Z</time>
      </trkpt>
      <trkpt lat="47.03128" lon="5.77719">
        <ele>234</ele>
        <time>2014-06-14T04:17:08Z</time>
      </trkpt>
      <trkpt lat="47.03128" lon="5.77719">
        <ele>234</ele>
        <time>2014-06-14T04:17:24Z</time>
      </trkpt>
      <trkpt lat="47.03123" lon="5.77717">
        <ele>234</ele>
        <time>2014-06-14T04:17:39Z</time>
      </trkpt>
      <trkpt lat="47.03121" lon="5.77722">
        <ele>234</ele>
        <time>2014-06-14T04:17:54Z</time>
      </trkpt>
      <trkpt lat="47.03121" lon="5.77722">
        <ele>234</ele>
        <time>2014-06-14T04:18:09Z</time>
      </trkpt>
      <trkpt lat="47.03121" lon="5.77722">
        <ele>234</ele>
        <time>2014-06-14T04:18:25Z</time>
      </trkpt>
      <trkpt lat="47.03124" lon="5.77718">
        <ele>234</ele>
        <time>2014-06-14T04:18:40Z</time>
      </trkpt>
      <trkpt lat="47.03124" lon="5.77718">
        <ele>234</ele>
        <time>2014-06-14T04:18:56Z</time>
      </trkpt>
      <trkpt lat="47.03124" lon="5.77718">
        <ele>234</ele>
        <time>2014-06-14T04:19:12Z</time>
      </trkpt>
      <trkpt lat="47.03124" lon="5.77718">
        <ele>234</ele>
        <time>2014-06-14T04:19:28Z</time>
      </trkpt>
      <trkpt lat="47.03124" lon="5.77718">
        <ele>234</ele>
        <time>2014-06-14T04:19:44Z</time>
      </trkpt>
      <trkpt lat="47.03124" lon="5.77718">
        <ele>234</ele>
        <time>2014-06-14T04:20:00Z</time>
      </trkpt>
      <trkpt lat="47.03124" lon="5.77718">
        <ele>234</ele>
        <time>2014-06-14T04:20:16Z</time>
      </trkpt>
      <trkpt lat="47.03124" lon="5.77718">
        <ele>234</ele>
        <time>2014-06-14T04:20:32Z</time>
      </trkpt>
      <trkpt lat="47.03124" lon="5.77718">
        <ele>234</ele>
        <time>2014-06-14T04:20:47Z</time>
      </trkpt>
      <trkpt lat="47.03124" lon="5.77718">
        <ele>234</ele>
        <time>2014-06-14T04:21:03Z</time>
      </trkpt>
      <trkpt lat="47.03124" lon="5.77718">
        <ele>234</ele>
        <time>2014-06-14T04:21:18Z</time>
      </trkpt>
      <trkpt lat="47.03128" lon="5.7772">
        <ele>234</ele>
        <time>2014-06-14T04:21:34Z</time>
      </trkpt>
      <trkpt lat="47.03131" lon="5.7772">
        <ele>234</ele>
        <time>2014-06-14T04:21:49Z</time>
      </trkpt>
      <trkpt lat="47.03131" lon="5.7772">
        <ele>234</ele>
        <time>2014-06-14T04:22:04Z</time>
      </trkpt>
      <trkpt lat="47.03127" lon="5.77723">
        <ele>234</ele>
        <time>2014-06-14T04:22:20Z</time>
      </trkpt>
      <trkpt lat="47.03127" lon="5.77724">
        <ele>234</ele>
        <time>2014-06-14T04:22:36Z</time>
      </trkpt>
      <trkpt lat="47.03127" lon="5.77724">
        <ele>234</ele>
        <time>2014-06-14T04:22:52Z</time>
      </trkpt>
      <trkpt lat="47.03127" lon="5.77724">
        <ele>234</ele>
        <time>2014-06-14T04:23:08Z</time>
      </trkpt>
      <trkpt lat="47.03127" lon="5.77724">
        <ele>234</ele>
        <time>2014-06-14T04:23:23Z</time>
      </trkpt>
      <trkpt lat="47.03129" lon="5.7772">
        <ele>234</ele>
        <time>2014-06-14T04:23:39Z</time>
      </trkpt>
      <trkpt lat="47.03128" lon="5.77726">
        <ele>234</ele>
        <time>2014-06-14T04:23:54Z</time>
      </trkpt>
      <trkpt lat="47.03127" lon="5.77728">
        <ele>234</ele>
        <time>2014-06-14T04:24:10Z</time>
      </trkpt>
      <trkpt lat="47.03124" lon="5.77752">
        <ele>234</ele>
        <time>2014-06-14T04:24:26Z</time>
      </trkpt>
      <trkpt lat="47.03126" lon="5.77759">
        <ele>234</ele>
        <time>2014-06-14T04:24:41Z</time>
      </trkpt>
      <trkpt lat="47.03133" lon="5.77771">
        <ele>234</ele>
        <time>2014-06-14T04:24:57Z</time>
      </trkpt>
      <trkpt lat="47.03163" lon="5.77845">
        <ele>234</ele>
        <time>2014-06-14T04:25:12Z</time>
      </trkpt>
      <trkpt lat="47.0312" lon="5.77897">
        <ele>234</ele>
        <time>2014-06-14T04:25:28Z</time>
      </trkpt>
      <trkpt lat="47.03069" lon="5.77936">
        <ele>234</ele>
        <time>2014-06-14T04:25:43Z</time>
      </trkpt>
      <trkpt lat="47.03016" lon="5.77968">
        <ele>233</ele>
        <time>2014-06-14T04:25:59Z</time>
      </trkpt>
      <trkpt lat="47.02965" lon="5.78002">
        <ele>233</ele>
        <time>2014-06-14T04:26:15Z</time>
      </trkpt>
      <trkpt lat="47.0291" lon="5.78035">
        <ele>233</ele>
        <time>2014-06-14T04:26:31Z</time>
      </trkpt>
      <trkpt lat="47.02855" lon="5.78077">
        <ele>233</ele>
        <time>2014-06-14T04:26:46Z</time>
      </trkpt>
      <trkpt lat="47.02793" lon="5.78121">
        <ele>232</ele>
        <time>2014-06-14T04:27:02Z</time>
      </trkpt>
      <trkpt lat="47.02731" lon="5.7816">
        <ele>232</ele>
        <time>2014-06-14T04:27:18Z</time>
      </trkpt>
      <trkpt lat="47.0267" lon="5.78204">
        <ele>231</ele>
        <time>2014-06-14T04:27:34Z</time>
      </trkpt>
      <trkpt lat="47.02608" lon="5.78243">
        <ele>231</ele>
        <time>2014-06-14T04:27:50Z</time>
      </trkpt>
      <trkpt lat="47.02545" lon="5.78288">
        <ele>232</ele>
        <time>2014-06-14T04:28:06Z</time>
      </trkpt>
      <trkpt lat="47.0248" lon="5.78331">
        <ele>232</ele>
        <time>2014-06-14T04:28:22Z</time>
      </trkpt>
      <trkpt lat="47.02411" lon="5.78379">
        <ele>232</ele>
        <time>2014-06-14T04:28:38Z</time>
      </trkpt>
      <trkpt lat="47.02353" lon="5.78421">
        <ele>232</ele>
        <time>2014-06-14T04:28:53Z</time>
      </trkpt>
      <trkpt lat="47.02287" lon="5.78466">
        <ele>233</ele>
        <time>2014-06-14T04:29:09Z</time>
      </trkpt>
      <trkpt lat="47.02222" lon="5.78514">
        <ele>234</ele>
        <time>2014-06-14T04:29:25Z</time>
      </trkpt>
      <trkpt lat="47.02152" lon="5.78558">
        <ele>233</ele>
        <time>2014-06-14T04:29:41Z</time>
      </trkpt>
      <trkpt lat="47.02092" lon="5.786">
        <ele>232</ele>
        <time>2014-06-14T04:29:57Z</time>
      </trkpt>
      <trkpt lat="47.02038" lon="5.78637">
        <ele>232</ele>
        <time>2014-06-14T04:30:13Z</time>
      </trkpt>
      <trkpt lat="47.01965" lon="5.78689">
        <ele>232</ele>
        <time>2014-06-14T04:30:29Z</time>
      </trkpt>
      <trkpt lat="47.01935" lon="5.78752">
        <ele>232</ele>
        <time>2014-06-14T04:30:44Z</time>
      </trkpt>
      <trkpt lat="47.01976" lon="5.78824">
        <ele>231</ele>
        <time>2014-06-14T04:30:59Z</time>
      </trkpt>
      <trkpt lat="47.0202" lon="5.78904">
        <ele>232</ele>
        <time>2014-06-14T04:31:15Z</time>
      </trkpt>
      <trkpt lat="47.02062" lon="5.78971">
        <ele>232</ele>
        <time>2014-06-14T04:31:31Z</time>
      </trkpt>
      <trkpt lat="47.02107" lon="5.79036">
        <ele>232</ele>
        <time>2014-06-14T04:31:47Z</time>
      </trkpt>
      <trkpt lat="47.02151" lon="5.79097">
        <ele>233</ele>
        <time>2014-06-14T04:32:03Z</time>
      </trkpt>
      <trkpt lat="47.0219" lon="5.79152">
        <ele>233</ele>
        <time>2014-06-14T04:32:18Z</time>
      </trkpt>
      <trkpt lat="47.02235" lon="5.79215">
        <ele>233</ele>
        <time>2014-06-14T04:32:34Z</time>
      </trkpt>
      <trkpt lat="47.02285" lon="5.79271">
        <ele>233</ele>
        <time>2014-06-14T04:32:50Z</time>
      </trkpt>
      <trkpt lat="47.02332" lon="5.79325">
        <ele>232</ele>
        <time>2014-06-14T04:33:05Z</time>
      </trkpt>
      <trkpt lat="47.0238" lon="5.79375">
        <ele>232</ele>
        <time>2014-06-14T04:33:20Z</time>
      </trkpt>
      <trkpt lat="47.0243" lon="5.79428">
        <ele>232</ele>
        <time>2014-06-14T04:33:35Z</time>
      </trkpt>
      <trkpt lat="47.0248" lon="5.79479">
        <ele>232</ele>
        <time>2014-06-14T04:33:50Z</time>
      </trkpt>
      <trkpt lat="47.02533" lon="5.79534">
        <ele>233</ele>
        <time>2014-06-14T04:34:06Z</time>
      </trkpt>
      <trkpt lat="47.02589" lon="5.79585">
        <ele>234</ele>
        <time>2014-06-14T04:34:22Z</time>
      </trkpt>
      <trkpt lat="47.0264" lon="5.79657">
        <ele>233</ele>
        <time>2014-06-14T04:34:37Z</time>
      </trkpt>
      <trkpt lat="47.0269" lon="5.79737">
        <ele>234</ele>
        <time>2014-06-14T04:34:52Z</time>
      </trkpt>
      <trkpt lat="47.02746" lon="5.79786">
        <ele>233</ele>
        <time>2014-06-14T04:35:08Z</time>
      </trkpt>
      <trkpt lat="47.02768" lon="5.79794">
        <ele>233</ele>
        <time>2014-06-14T04:35:24Z</time>
      </trkpt>
      <trkpt lat="47.02767" lon="5.79803">
        <ele>233</ele>
        <time>2014-06-14T04:35:40Z</time>
      </trkpt>
      <trkpt lat="47.02781" lon="5.79817">
        <ele>233</ele>
        <time>2014-06-14T04:35:56Z</time>
      </trkpt>
      <trkpt lat="47.02806" lon="5.7984">
        <ele>233</ele>
        <time>2014-06-14T04:36:11Z</time>
      </trkpt>
      <trkpt lat="47.02847" lon="5.79872">
        <ele>233</ele>
        <time>2014-06-14T04:36:27Z</time>
      </trkpt>
      <trkpt lat="47.0289" lon="5.79902">
        <ele>232</ele>
        <time>2014-06-14T04:36:43Z</time>
      </trkpt>
      <trkpt lat="47.02937" lon="5.79934">
        <ele>233</ele>
        <time>2014-06-14T04:36:59Z</time>
      </trkpt>
      <trkpt lat="47.0298" lon="5.79967">
        <ele>233</ele>
        <time>2014-06-14T04:37:15Z</time>
      </trkpt>
      <trkpt lat="47.03026" lon="5.8">
        <ele>234</ele>
        <time>2014-06-14T04:37:30Z</time>
      </trkpt>
      <trkpt lat="47.03081" lon="5.8002">
        <ele>234</ele>
        <time>2014-06-14T04:37:46Z</time>
      </trkpt>
      <trkpt lat="47.03133" lon="5.80033">
        <ele>235</ele>
        <time>2014-06-14T04:38:01Z</time>
      </trkpt>
      <trkpt lat="47.03187" lon="5.80043">
        <ele>235</ele>
        <time>2014-06-14T04:38:16Z</time>
      </trkpt>
      <trkpt lat="47.03237" lon="5.80043">
        <ele>235</ele>
        <time>2014-06-14T04:38:31Z</time>
      </trkpt>
      <trkpt lat="47.03289" lon="5.8004">
        <ele>235</ele>
        <time>2014-06-14T04:38:47Z</time>
      </trkpt>
      <trkpt lat="47.03344" lon="5.8005">
        <ele>236</ele>
        <time>2014-06-14T04:39:03Z</time>
      </trkpt>
      <trkpt lat="47.034" lon="5.80068">
        <ele>236</ele>
        <time>2014-06-14T04:39:19Z</time>
      </trkpt>
      <trkpt lat="47.03431" lon="5.80089">
        <ele>236</ele>
        <time>2014-06-14T04:39:34Z</time>
      </trkpt>
      <trkpt lat="47.03431" lon="5.80095">
        <ele>236</ele>
        <time>2014-06-14T04:39:50Z</time>
      </trkpt>
      <trkpt lat="47.03466" lon="5.80133">
        <ele>237</ele>
        <time>2014-06-14T04:40:05Z</time>
      </trkpt>
      <trkpt lat="47.0351" lon="5.80158">
        <ele>238</ele>
        <time>2014-06-14T04:40:20Z</time>
      </trkpt>
      <trkpt lat="47.03548" lon="5.80197">
        <ele>240</ele>
        <time>2014-06-14T04:40:35Z</time>
      </trkpt>
      <trkpt lat="47.03584" lon="5.80242">
        <ele>241</ele>
        <time>2014-06-14T04:40:51Z</time>
      </trkpt>
      <trkpt lat="47.0362" lon="5.8028">
        <ele>241</ele>
        <time>2014-06-14T04:41:07Z</time>
      </trkpt>
      <trkpt lat="47.03652" lon="5.80317">
        <ele>241</ele>
        <time>2014-06-14T04:41:22Z</time>
      </trkpt>
      <trkpt lat="47.03688" lon="5.80359">
        <ele>242</ele>
        <time>2014-06-14T04:41:38Z</time>
      </trkpt>
      <trkpt lat="47.03715" lon="5.80405">
        <ele>242</ele>
        <time>2014-06-14T04:41:53Z</time>
      </trkpt>
      <trkpt lat="47.03741" lon="5.80453">
        <ele>246</ele>
        <time>2014-06-14T04:42:09Z</time>
      </trkpt>
      <trkpt lat="47.03767" lon="5.80502">
        <ele>248</ele>
        <time>2014-06-14T04:42:25Z</time>
      </trkpt>
      <trkpt lat="47.03793" lon="5.80553">
        <ele>249</ele>
        <time>2014-06-14T04:42:41Z</time>
      </trkpt>
      <trkpt lat="47.03817" lon="5.80606">
        <ele>252</ele>
        <time>2014-06-14T04:42:57Z</time>
      </trkpt>
      <trkpt lat="47.03842" lon="5.80653">
        <ele>251</ele>
        <time>2014-06-14T04:43:12Z</time>
      </trkpt>
      <trkpt lat="47.03865" lon="5.80701">
        <ele>254</ele>
        <time>2014-06-14T04:43:27Z</time>
      </trkpt>
      <trkpt lat="47.03875" lon="5.8076">
        <ele>257</ele>
        <time>2014-06-14T04:43:43Z</time>
      </trkpt>
      <trkpt lat="47.03865" lon="5.80808">
        <ele>259</ele>
        <time>2014-06-14T04:43:59Z</time>
      </trkpt>
      <trkpt lat="47.03864" lon="5.80851">
        <ele>264</ele>
        <time>2014-06-14T04:44:15Z</time>
      </trkpt>
      <trkpt lat="47.03877" lon="5.80901">
        <ele>265</ele>
        <time>2014-06-14T04:44:30Z</time>
      </trkpt>
      <trkpt lat="47.03889" lon="5.80947">
        <ele>268</ele>
        <time>2014-06-14T04:44:45Z</time>
      </trkpt>
      <trkpt lat="47.03896" lon="5.81044">
        <ele>266</ele>
        <time>2014-06-14T04:45:01Z</time>
      </trkpt>
      <trkpt lat="47.03952" lon="5.8126">
        <ele>251</ele>
        <time>2014-06-14T04:45:17Z</time>
      </trkpt>
      <trkpt lat="47.03931" lon="5.81314">
        <ele>251</ele>
        <time>2014-06-14T04:45:33Z</time>
      </trkpt>
      <trkpt lat="47.03938" lon="5.81317">
        <ele>251</ele>
        <time>2014-06-14T04:45:49Z</time>
      </trkpt>
      <trkpt lat="47.03936" lon="5.81314">
        <ele>251</ele>
        <time>2014-06-14T04:46:04Z</time>
      </trkpt>
      <trkpt lat="47.03936" lon="5.81314">
        <ele>251</ele>
        <time>2014-06-14T04:46:20Z</time>
      </trkpt>
      <trkpt lat="47.03936" lon="5.81314">
        <ele>251</ele>
        <time>2014-06-14T04:46:36Z</time>
      </trkpt>
      <trkpt lat="47.03936" lon="5.81314">
        <ele>251</ele>
        <time>2014-06-14T04:46:52Z</time>
      </trkpt>
      <trkpt lat="47.03936" lon="5.81314">
        <ele>251</ele>
        <time>2014-06-14T04:47:08Z</time>
      </trkpt>
      <trkpt lat="47.03936" lon="5.81314">
        <ele>251</ele>
        <time>2014-06-14T04:47:24Z</time>
      </trkpt>
      <trkpt lat="47.03939" lon="5.81308">
        <ele>251</ele>
        <time>2014-06-14T04:47:39Z</time>
      </trkpt>
      <trkpt lat="47.03933" lon="5.81315">
        <ele>251</ele>
        <time>2014-06-14T04:47:55Z</time>
      </trkpt>
      <trkpt lat="47.03933" lon="5.81315">
        <ele>251</ele>
        <time>2014-06-14T04:48:10Z</time>
      </trkpt>
      <trkpt lat="47.03933" lon="5.81315">
        <ele>251</ele>
        <time>2014-06-14T04:48:26Z</time>
      </trkpt>
      <trkpt lat="47.03933" lon="5.81315">
        <ele>251</ele>
        <time>2014-06-14T04:48:41Z</time>
      </trkpt>
      <trkpt lat="47.03933" lon="5.81315">
        <ele>251</ele>
        <time>2014-06-14T04:48:56Z</time>
      </trkpt>
      <trkpt lat="47.03933" lon="5.81315">
        <ele>251</ele>
        <time>2014-06-14T04:49:11Z</time>
      </trkpt>
      <trkpt lat="47.03933" lon="5.81315">
        <ele>251</ele>
        <time>2014-06-14T04:49:27Z</time>
      </trkpt>
      <trkpt lat="47.03933" lon="5.81315">
        <ele>251</ele>
        <time>2014-06-14T04:49:42Z</time>
      </trkpt>
      <trkpt lat="47.03933" lon="5.81315">
        <ele>251</ele>
        <time>2014-06-14T04:49:57Z</time>
      </trkpt>
      <trkpt lat="47.03933" lon="5.81315">
        <ele>251</ele>
        <time>2014-06-14T04:50:13Z</time>
      </trkpt>
      <trkpt lat="47.03933" lon="5.81308">
        <ele>251</ele>
        <time>2014-06-14T04:50:28Z</time>
      </trkpt>
      <trkpt lat="47.03933" lon="5.81308">
        <ele>251</ele>
        <time>2014-06-14T04:50:44Z</time>
      </trkpt>
      <trkpt lat="47.03933" lon="5.81308">
        <ele>251</ele>
        <time>2014-06-14T04:50:59Z</time>
      </trkpt>
      <trkpt lat="47.03933" lon="5.81308">
        <ele>251</ele>
        <time>2014-06-14T04:51:15Z</time>
      </trkpt>
      <trkpt lat="47.03933" lon="5.81308">
        <ele>251</ele>
        <time>2014-06-14T04:51:30Z</time>
      </trkpt>
      <trkpt lat="47.03933" lon="5.81308">
        <ele>251</ele>
        <time>2014-06-14T04:51:45Z</time>
      </trkpt>
      <trkpt lat="47.03932" lon="5.81312">
        <ele>251</ele>
        <time>2014-06-14T04:52:01Z</time>
      </trkpt>
      <trkpt lat="47.03929" lon="5.81318">
        <ele>252</ele>
        <time>2014-06-14T04:52:17Z</time>
      </trkpt>
      <trkpt lat="47.03935" lon="5.81308">
        <ele>251</ele>
        <time>2014-06-14T04:52:32Z</time>
      </trkpt>
      <trkpt lat="47.03933" lon="5.81304">
        <ele>251</ele>
        <time>2014-06-14T04:52:48Z</time>
      </trkpt>
      <trkpt lat="47.03901" lon="5.81299">
        <ele>255</ele>
        <time>2014-06-14T04:53:03Z</time>
      </trkpt>
      <trkpt lat="47.03853" lon="5.81321">
        <ele>254</ele>
        <time>2014-06-14T04:53:19Z</time>
      </trkpt>
      <trkpt lat="47.03821" lon="5.81343">
        <ele>253</ele>
        <time>2014-06-14T04:53:34Z</time>
      </trkpt>
      <trkpt lat="47.03793" lon="5.81387">
        <ele>251</ele>
        <time>2014-06-14T04:53:49Z</time>
      </trkpt>
      <trkpt lat="47.03724" lon="5.81425">
        <ele>247</ele>
        <time>2014-06-14T04:54:05Z</time>
      </trkpt>
      <trkpt lat="47.03653" lon="5.81426">
        <ele>248</ele>
        <time>2014-06-14T04:54:20Z</time>
      </trkpt>
      <trkpt lat="47.03542" lon="5.81411">
        <ele>257</ele>
        <time>2014-06-14T04:54:35Z</time>
      </trkpt>
      <trkpt lat="47.03462" lon="5.81392">
        <ele>256</ele>
        <time>2014-06-14T04:54:50Z</time>
      </trkpt>
      <trkpt lat="47.03409" lon="5.81388">
        <ele>252</ele>
        <time>2014-06-14T04:55:06Z</time>
      </trkpt>
      <trkpt lat="47.03352" lon="5.8141">
        <ele>248</ele>
        <time>2014-06-14T04:55:21Z</time>
      </trkpt>
      <trkpt lat="47.03301" lon="5.81424">
        <ele>239</ele>
        <time>2014-06-14T04:55:37Z</time>
      </trkpt>
      <trkpt lat="47.03243" lon="5.81423">
        <ele>238</ele>
        <time>2014-06-14T04:55:53Z</time>
      </trkpt>
      <trkpt lat="47.03189" lon="5.81424">
        <ele>239</ele>
        <time>2014-06-14T04:56:08Z</time>
      </trkpt>
      <trkpt lat="47.03128" lon="5.81438">
        <ele>240</ele>
        <time>2014-06-14T04:56:23Z</time>
      </trkpt>
      <trkpt lat="47.03069" lon="5.81455">
        <ele>241</ele>
        <time>2014-06-14T04:56:39Z</time>
      </trkpt>
      <trkpt lat="47.03011" lon="5.81463">
        <ele>240</ele>
        <time>2014-06-14T04:56:54Z</time>
      </trkpt>
      <trkpt lat="47.02939" lon="5.8146">
        <ele>239</ele>
        <time>2014-06-14T04:57:10Z</time>
      </trkpt>
      <trkpt lat="47.02877" lon="5.81457">
        <ele>238</ele>
        <time>2014-06-14T04:57:25Z</time>
      </trkpt>
      <trkpt lat="47.02808" lon="5.8147">
        <ele>238</ele>
        <time>2014-06-14T04:57:41Z</time>
      </trkpt>
      <trkpt lat="47.02741" lon="5.81505">
        <ele>238</ele>
        <time>2014-06-14T04:57:57Z</time>
      </trkpt>
      <trkpt lat="47.02675" lon="5.81504">
        <ele>238</ele>
        <time>2014-06-14T04:58:12Z</time>
      </trkpt>
      <trkpt lat="47.02605" lon="5.81482">
        <ele>239</ele>
        <time>2014-06-14T04:58:28Z</time>
      </trkpt>
      <trkpt lat="47.02535" lon="5.81459">
        <ele>239</ele>
        <time>2014-06-14T04:58:44Z</time>
      </trkpt>
      <trkpt lat="47.02467" lon="5.81428">
        <ele>240</ele>
        <time>2014-06-14T04:58:59Z</time>
      </trkpt>
      <trkpt lat="47.02393" lon="5.81386">
        <ele>241</ele>
        <time>2014-06-14T04:59:15Z</time>
      </trkpt>
      <trkpt lat="47.02356" lon="5.81357">
        <ele>241</ele>
        <time>2014-06-14T04:59:31Z</time>
      </trkpt>
      <trkpt lat="47.02371" lon="5.8137">
        <ele>241</ele>
        <time>2014-06-14T04:59:46Z</time>
      </trkpt>
      <trkpt lat="47.02339" lon="5.81346">
        <ele>242</ele>
        <time>2014-06-14T05:00:02Z</time>
      </trkpt>
      <trkpt lat="47.02294" lon="5.813">
        <ele>244</ele>
        <time>2014-06-14T05:00:17Z</time>
      </trkpt>
      <trkpt lat="47.02239" lon="5.81249">
        <ele>248</ele>
        <time>2014-06-14T05:00:33Z</time>
      </trkpt>
      <trkpt lat="47.02197" lon="5.81206">
        <ele>250</ele>
        <time>2014-06-14T05:00:48Z</time>
      </trkpt>
      <trkpt lat="47.02174" lon="5.81178">
        <ele>250</ele>
        <time>2014-06-14T05:01:04Z</time>
      </trkpt>
      <trkpt lat="47.0213" lon="5.81142">
        <ele>251</ele>
        <time>2014-06-14T05:01:19Z</time>
      </trkpt>
      <trkpt lat="47.02074" lon="5.81116">
        <ele>248</ele>
        <time>2014-06-14T05:01:35Z</time>
      </trkpt>
      <trkpt lat="47.0202" lon="5.81087">
        <ele>247</ele>
        <time>2014-06-14T05:01:50Z</time>
      </trkpt>
      <trkpt lat="47.01957" lon="5.81049">
        <ele>251</ele>
        <time>2014-06-14T05:02:06Z</time>
      </trkpt>
      <trkpt lat="47.01887" lon="5.81018">
        <ele>250</ele>
        <time>2014-06-14T05:02:22Z</time>
      </trkpt>
      <trkpt lat="47.01817" lon="5.80993">
        <ele>254</ele>
        <time>2014-06-14T05:02:38Z</time>
      </trkpt>
      <trkpt lat="47.01761" lon="5.80973">
        <ele>255</ele>
        <time>2014-06-14T05:02:53Z</time>
      </trkpt>
      <trkpt lat="47.01698" lon="5.80942">
        <ele>253</ele>
        <time>2014-06-14T05:03:09Z</time>
      </trkpt>
      <trkpt lat="47.01626" lon="5.80912">
        <ele>260</ele>
        <time>2014-06-14T05:03:24Z</time>
      </trkpt>
      <trkpt lat="47.01552" lon="5.80877">
        <ele>255</ele>
        <time>2014-06-14T05:03:40Z</time>
      </trkpt>
      <trkpt lat="47.0148" lon="5.80839">
        <ele>252</ele>
        <time>2014-06-14T05:03:56Z</time>
      </trkpt>
      <trkpt lat="47.0141" lon="5.80805">
        <ele>258</ele>
        <time>2014-06-14T05:04:12Z</time>
      </trkpt>
      <trkpt lat="47.01332" lon="5.80782">
        <ele>258</ele>
        <time>2014-06-14T05:04:28Z</time>
      </trkpt>
      <trkpt lat="47.0125" lon="5.80774">
        <ele>258</ele>
        <time>2014-06-14T05:04:44Z</time>
      </trkpt>
      <trkpt lat="47.01169" lon="5.80774">
        <ele>254</ele>
        <time>2014-06-14T05:05:00Z</time>
      </trkpt>
      <trkpt lat="47.01096" lon="5.80775">
        <ele>255</ele>
        <time>2014-06-14T05:05:15Z</time>
      </trkpt>
      <trkpt lat="47.01028" lon="5.80781">
        <ele>256</ele>
        <time>2014-06-14T05:05:31Z</time>
      </trkpt>
      <trkpt lat="47.00949" lon="5.8079">
        <ele>258</ele>
        <time>2014-06-14T05:05:46Z</time>
      </trkpt>
      <trkpt lat="47.00885" lon="5.80803">
        <ele>260</ele>
        <time>2014-06-14T05:06:01Z</time>
      </trkpt>
      <trkpt lat="47.00825" lon="5.80833">
        <ele>256</ele>
        <time>2014-06-14T05:06:17Z</time>
      </trkpt>
      <trkpt lat="47.00824" lon="5.80884">
        <ele>248</ele>
        <time>2014-06-14T05:06:32Z</time>
      </trkpt>
      <trkpt lat="47.00833" lon="5.80948">
        <ele>242</ele>
        <time>2014-06-14T05:06:48Z</time>
      </trkpt>
      <trkpt lat="47.0085" lon="5.80996">
        <ele>242</ele>
        <time>2014-06-14T05:07:04Z</time>
      </trkpt>
      <trkpt lat="47.00871" lon="5.81024">
        <ele>242</ele>
        <time>2014-06-14T05:07:19Z</time>
      </trkpt>
      <trkpt lat="47.00869" lon="5.81021">
        <ele>242</ele>
        <time>2014-06-14T05:07:34Z</time>
      </trkpt>
      <trkpt lat="47.00899" lon="5.81017">
        <ele>241</ele>
        <time>2014-06-14T05:07:50Z</time>
      </trkpt>
      <trkpt lat="47.009" lon="5.81014">
        <ele>241</ele>
        <time>2014-06-14T05:08:05Z</time>
      </trkpt>
      <trkpt lat="47.00891" lon="5.81024">
        <ele>241</ele>
        <time>2014-06-14T05:08:21Z</time>
      </trkpt>
      <trkpt lat="47.00893" lon="5.81022">
        <ele>241</ele>
        <time>2014-06-14T05:08:37Z</time>
      </trkpt>
      <trkpt lat="47.00894" lon="5.81022">
        <ele>241</ele>
        <time>2014-06-14T05:08:52Z</time>
      </trkpt>
      <trkpt lat="47.00895" lon="5.81021">
        <ele>241</ele>
        <time>2014-06-14T05:09:08Z</time>
      </trkpt>
      <trkpt lat="47.00895" lon="5.81021">
        <ele>241</ele>
        <time>2014-06-14T05:09:23Z</time>
      </trkpt>
      <trkpt lat="47.00895" lon="5.81021">
        <ele>241</ele>
        <time>2014-06-14T05:09:39Z</time>
      </trkpt>
      <trkpt lat="47.00895" lon="5.81021">
        <ele>241</ele>
        <time>2014-06-14T05:09:54Z</time>
      </trkpt>
      <trkpt lat="47.00895" lon="5.81021">
        <ele>241</ele>
        <time>2014-06-14T05:10:10Z</time>
      </trkpt>
      <trkpt lat="47.00895" lon="5.81021">
        <ele>241</ele>
        <time>2014-06-14T05:10:26Z</time>
      </trkpt>
      <trkpt lat="47.00895" lon="5.81021">
        <ele>241</ele>
        <time>2014-06-14T05:10:41Z</time>
      </trkpt>
      <trkpt lat="47.00895" lon="5.81021">
        <ele>241</ele>
        <time>2014-06-14T05:10:56Z</time>
      </trkpt>
      <trkpt lat="47.00895" lon="5.81021">
        <ele>241</ele>
        <time>2014-06-14T05:11:12Z</time>
      </trkpt>
      <trkpt lat="47.00895" lon="5.81021">
        <ele>241</ele>
        <time>2014-06-14T05:11:28Z</time>
      </trkpt>
      <trkpt lat="47.00895" lon="5.81021">
        <ele>241</ele>
        <time>2014-06-14T05:11:44Z</time>
      </trkpt>
      <trkpt lat="47.00895" lon="5.81021">
        <ele>241</ele>
        <time>2014-06-14T05:11:59Z</time>
      </trkpt>
      <trkpt lat="47.00895" lon="5.81021">
        <ele>241</ele>
        <time>2014-06-14T05:12:14Z</time>
      </trkpt>
      <trkpt lat="47.00895" lon="5.81021">
        <ele>241</ele>
        <time>2014-06-14T05:12:30Z</time>
      </trkpt>
      <trkpt lat="47.00895" lon="5.81021">
        <ele>241</ele>
        <time>2014-06-14T05:12:46Z</time>
      </trkpt>
      <trkpt lat="47.00895" lon="5.81021">
        <ele>241</ele>
        <time>2014-06-14T05:13:01Z</time>
      </trkpt>
      <trkpt lat="47.00895" lon="5.81021">
        <ele>241</ele>
        <time>2014-06-14T05:13:17Z</time>
      </trkpt>
      <trkpt lat="47.00895" lon="5.81021">
        <ele>241</ele>
        <time>2014-06-14T05:13:32Z</time>
      </trkpt>
      <trkpt lat="47.00895" lon="5.81021">
        <ele>241</ele>
        <time>2014-06-14T05:13:48Z</time>
      </trkpt>
      <trkpt lat="47.00895" lon="5.81021">
        <ele>241</ele>
        <time>2014-06-14T05:14:04Z</time>
      </trkpt>
      <trkpt lat="47.00895" lon="5.81021">
        <ele>241</ele>
        <time>2014-06-14T05:14:19Z</time>
      </trkpt>
      <trkpt lat="47.00895" lon="5.81021">
        <ele>241</ele>
        <time>2014-06-14T05:14:35Z</time>
      </trkpt>
      <trkpt lat="47.00895" lon="5.81021">
        <ele>241</ele>
        <time>2014-06-14T05:14:50Z</time>
      </trkpt>
      <trkpt lat="47.00895" lon="5.81021">
        <ele>241</ele>
        <time>2014-06-14T05:15:06Z</time>
      </trkpt>
      <trkpt lat="47.00895" lon="5.81021">
        <ele>241</ele>
        <time>2014-06-14T05:15:21Z</time>
      </trkpt>
      <trkpt lat="47.00895" lon="5.81021">
        <ele>241</ele>
        <time>2014-06-14T05:15:37Z</time>
      </trkpt>
      <trkpt lat="47.00895" lon="5.81021">
        <ele>241</ele>
        <time>2014-06-14T05:15:53Z</time>
      </trkpt>
      <trkpt lat="47.00895" lon="5.81021">
        <ele>241</ele>
        <time>2014-06-14T05:16:08Z</time>
      </trkpt>
      <trkpt lat="47.00895" lon="5.81021">
        <ele>241</ele>
        <time>2014-06-14T05:16:24Z</time>
      </trkpt>
      <trkpt lat="47.00895" lon="5.81021">
        <ele>241</ele>
        <time>2014-06-14T05:16:39Z</time>
      </trkpt>
      <trkpt lat="47.00895" lon="5.81021">
        <ele>241</ele>
        <time>2014-06-14T05:16:55Z</time>
      </trkpt>
      <trkpt lat="47.00895" lon="5.81021">
        <ele>241</ele>
        <time>2014-06-14T05:17:10Z</time>
      </trkpt>
      <trkpt lat="47.00895" lon="5.81021">
        <ele>241</ele>
        <time>2014-06-14T05:17:26Z</time>
      </trkpt>
      <trkpt lat="47.00895" lon="5.81021">
        <ele>241</ele>
        <time>2014-06-14T05:17:41Z</time>
      </trkpt>
      <trkpt lat="47.00895" lon="5.81021">
        <ele>241</ele>
        <time>2014-06-14T05:17:57Z</time>
      </trkpt>
      <trkpt lat="47.00895" lon="5.81021">
        <ele>241</ele>
        <time>2014-06-14T05:18:13Z</time>
      </trkpt>
      <trkpt lat="47.00895" lon="5.81021">
        <ele>241</ele>
        <time>2014-06-14T05:18:28Z</time>
      </trkpt>
      <trkpt lat="47.00895" lon="5.81021">
        <ele>241</ele>
        <time>2014-06-14T05:18:44Z</time>
      </trkpt>
      <trkpt lat="47.00895" lon="5.81021">
        <ele>241</ele>
        <time>2014-06-14T05:19:00Z</time>
      </trkpt>
      <trkpt lat="47.00895" lon="5.81021">
        <ele>241</ele>
        <time>2014-06-14T05:19:15Z</time>
      </trkpt>
      <trkpt lat="47.00895" lon="5.81021">
        <ele>241</ele>
        <time>2014-06-14T05:19:30Z</time>
      </trkpt>
      <trkpt lat="47.00895" lon="5.81021">
        <ele>241</ele>
        <time>2014-06-14T05:19:46Z</time>
      </trkpt>
      <trkpt lat="47.00895" lon="5.81021">
        <ele>241</ele>
        <time>2014-06-14T05:20:01Z</time>
      </trkpt>
      <trkpt lat="47.00895" lon="5.81021">
        <ele>241</ele>
        <time>2014-06-14T05:20:17Z</time>
      </trkpt>
      <trkpt lat="47.00895" lon="5.81021">
        <ele>241</ele>
        <time>2014-06-14T05:20:32Z</time>
      </trkpt>
      <trkpt lat="47.00895" lon="5.81021">
        <ele>241</ele>
        <time>2014-06-14T05:20:48Z</time>
      </trkpt>
      <trkpt lat="47.00895" lon="5.81021">
        <ele>241</ele>
        <time>2014-06-14T05:21:04Z</time>
      </trkpt>
      <trkpt lat="47.00895" lon="5.81021">
        <ele>241</ele>
        <time>2014-06-14T05:21:20Z</time>
      </trkpt>
      <trkpt lat="47.00895" lon="5.81021">
        <ele>241</ele>
        <time>2014-06-14T05:21:36Z</time>
      </trkpt>
      <trkpt lat="47.00895" lon="5.81021">
        <ele>241</ele>
        <time>2014-06-14T05:21:51Z</time>
      </trkpt>
      <trkpt lat="47.00895" lon="5.81021">
        <ele>241</ele>
        <time>2014-06-14T05:22:07Z</time>
      </trkpt>
      <trkpt lat="47.00895" lon="5.81021">
        <ele>241</ele>
        <time>2014-06-14T05:22:22Z</time>
      </trkpt>
      <trkpt lat="47.00895" lon="5.81021">
        <ele>241</ele>
        <time>2014-06-14T05:22:38Z</time>
      </trkpt>
      <trkpt lat="47.00895" lon="5.81021">
        <ele>241</ele>
        <time>2014-06-14T05:22:53Z</time>
      </trkpt>
      <trkpt lat="47.00895" lon="5.81021">
        <ele>241</ele>
        <time>2014-06-14T05:23:09Z</time>
      </trkpt>
      <trkpt lat="47.00895" lon="5.81021">
        <ele>241</ele>
        <time>2014-06-14T05:23:25Z</time>
      </trkpt>
      <trkpt lat="47.00895" lon="5.81021">
        <ele>241</ele>
        <time>2014-06-14T05:23:40Z</time>
      </trkpt>
      <trkpt lat="47.00895" lon="5.81021">
        <ele>241</ele>
        <time>2014-06-14T05:23:56Z</time>
      </trkpt>
      <trkpt lat="47.00895" lon="5.81021">
        <ele>241</ele>
        <time>2014-06-14T05:24:12Z</time>
      </trkpt>
      <trkpt lat="47.00895" lon="5.81021">
        <ele>241</ele>
        <time>2014-06-14T05:24:27Z</time>
      </trkpt>
      <trkpt lat="47.00895" lon="5.81021">
        <ele>241</ele>
        <time>2014-06-14T05:24:42Z</time>
      </trkpt>
      <trkpt lat="47.00895" lon="5.81021">
        <ele>241</ele>
        <time>2014-06-14T05:24:58Z</time>
      </trkpt>
      <trkpt lat="47.00895" lon="5.81021">
        <ele>241</ele>
        <time>2014-06-14T05:25:13Z</time>
      </trkpt>
      <trkpt lat="47.00895" lon="5.81021">
        <ele>241</ele>
        <time>2014-06-14T05:25:29Z</time>
      </trkpt>
      <trkpt lat="47.00895" lon="5.81021">
        <ele>241</ele>
        <time>2014-06-14T05:25:44Z</time>
      </trkpt>
      <trkpt lat="47.00895" lon="5.81021">
        <ele>241</ele>
        <time>2014-06-14T05:26:00Z</time>
      </trkpt>
      <trkpt lat="47.00895" lon="5.81021">
        <ele>241</ele>
        <time>2014-06-14T05:26:16Z</time>
      </trkpt>
      <trkpt lat="47.00895" lon="5.81021">
        <ele>241</ele>
        <time>2014-06-14T05:26:32Z</time>
      </trkpt>
      <trkpt lat="47.00895" lon="5.81021">
        <ele>241</ele>
        <time>2014-06-14T05:26:48Z</time>
      </trkpt>
      <trkpt lat="47.00895" lon="5.81021">
        <ele>241</ele>
        <time>2014-06-14T05:27:04Z</time>
      </trkpt>
      <trkpt lat="47.00895" lon="5.81021">
        <ele>241</ele>
        <time>2014-06-14T05:27:20Z</time>
      </trkpt>
      <trkpt lat="47.00895" lon="5.81021">
        <ele>241</ele>
        <time>2014-06-14T05:27:35Z</time>
      </trkpt>
      <trkpt lat="47.00895" lon="5.81021">
        <ele>241</ele>
        <time>2014-06-14T05:27:51Z</time>
      </trkpt>
      <trkpt lat="47.00891" lon="5.81016">
        <ele>241</ele>
        <time>2014-06-14T05:28:06Z</time>
      </trkpt>
      <trkpt lat="47.00891" lon="5.81016">
        <ele>241</ele>
        <time>2014-06-14T05:28:21Z</time>
      </trkpt>
      <trkpt lat="47.00891" lon="5.81016">
        <ele>241</ele>
        <time>2014-06-14T05:28:36Z</time>
      </trkpt>
      <trkpt lat="47.00891" lon="5.81016">
        <ele>241</ele>
        <time>2014-06-14T05:28:52Z</time>
      </trkpt>
      <trkpt lat="47.00891" lon="5.81016">
        <ele>241</ele>
        <time>2014-06-14T05:29:07Z</time>
      </trkpt>
      <trkpt lat="47.00891" lon="5.81016">
        <ele>241</ele>
        <time>2014-06-14T05:29:23Z</time>
      </trkpt>
      <trkpt lat="47.00891" lon="5.81016">
        <ele>241</ele>
        <time>2014-06-14T05:29:39Z</time>
      </trkpt>
      <trkpt lat="47.00891" lon="5.81016">
        <ele>241</ele>
        <time>2014-06-14T05:29:54Z</time>
      </trkpt>
      <trkpt lat="47.00891" lon="5.81016">
        <ele>241</ele>
        <time>2014-06-14T05:30:09Z</time>
      </trkpt>
      <trkpt lat="47.00891" lon="5.81016">
        <ele>241</ele>
        <time>2014-06-14T05:30:24Z</time>
      </trkpt>
      <trkpt lat="47.00891" lon="5.81016">
        <ele>241</ele>
        <time>2014-06-14T05:30:39Z</time>
      </trkpt>
      <trkpt lat="47.00891" lon="5.81016">
        <ele>241</ele>
        <time>2014-06-14T05:30:55Z</time>
      </trkpt>
      <trkpt lat="47.00891" lon="5.81016">
        <ele>241</ele>
        <time>2014-06-14T05:31:10Z</time>
      </trkpt>
      <trkpt lat="47.00891" lon="5.81016">
        <ele>241</ele>
        <time>2014-06-14T05:31:26Z</time>
      </trkpt>
      <trkpt lat="47.00891" lon="5.81016">
        <ele>241</ele>
        <time>2014-06-14T05:31:42Z</time>
      </trkpt>
      <trkpt lat="47.00891" lon="5.81016">
        <ele>241</ele>
        <time>2014-06-14T05:31:57Z</time>
      </trkpt>
      <trkpt lat="47.00891" lon="5.81016">
        <ele>241</ele>
        <time>2014-06-14T05:32:13Z</time>
      </trkpt>
      <trkpt lat="47.00891" lon="5.81016">
        <ele>241</ele>
        <time>2014-06-14T05:32:29Z</time>
      </trkpt>
      <trkpt lat="47.00891" lon="5.81016">
        <ele>241</ele>
        <time>2014-06-14T05:32:45Z</time>
      </trkpt>
      <trkpt lat="47.00891" lon="5.81016">
        <ele>241</ele>
        <time>2014-06-14T05:33:01Z</time>
      </trkpt>
      <trkpt lat="47.00891" lon="5.81016">
        <ele>241</ele>
        <time>2014-06-14T05:33:16Z</time>
      </trkpt>
      <trkpt lat="47.00891" lon="5.81016">
        <ele>241</ele>
        <time>2014-06-14T05:33:31Z</time>
      </trkpt>
      <trkpt lat="47.00891" lon="5.81016">
        <ele>241</ele>
        <time>2014-06-14T05:33:47Z</time>
      </trkpt>
      <trkpt lat="47.00891" lon="5.81016">
        <ele>241</ele>
        <time>2014-06-14T05:34:02Z</time>
      </trkpt>
      <trkpt lat="47.00891" lon="5.81016">
        <ele>241</ele>
        <time>2014-06-14T05:34:18Z</time>
      </trkpt>
      <trkpt lat="47.00891" lon="5.81016">
        <ele>241</ele>
        <time>2014-06-14T05:34:33Z</time>
      </trkpt>
      <trkpt lat="47.00891" lon="5.81016">
        <ele>241</ele>
        <time>2014-06-14T05:34:48Z</time>
      </trkpt>
      <trkpt lat="47.00891" lon="5.81016">
        <ele>241</ele>
        <time>2014-06-14T05:35:04Z</time>
      </trkpt>
      <trkpt lat="47.00891" lon="5.81016">
        <ele>241</ele>
        <time>2014-06-14T05:35:19Z</time>
      </trkpt>
      <trkpt lat="47.00891" lon="5.81016">
        <ele>241</ele>
        <time>2014-06-14T05:35:35Z</time>
      </trkpt>
      <trkpt lat="47.00891" lon="5.81016">
        <ele>241</ele>
        <time>2014-06-14T05:35:50Z</time>
      </trkpt>
      <trkpt lat="47.00891" lon="5.81016">
        <ele>241</ele>
        <time>2014-06-14T05:36:05Z</time>
      </trkpt>
      <trkpt lat="47.00891" lon="5.81016">
        <ele>241</ele>
        <time>2014-06-14T05:36:21Z</time>
      </trkpt>
      <trkpt lat="47.00891" lon="5.81016">
        <ele>241</ele>
        <time>2014-06-14T05:36:36Z</time>
      </trkpt>
      <trkpt lat="47.00891" lon="5.81016">
        <ele>241</ele>
        <time>2014-06-14T05:36:52Z</time>
      </trkpt>
      <trkpt lat="47.00891" lon="5.81016">
        <ele>241</ele>
        <time>2014-06-14T05:37:07Z</time>
      </trkpt>
      <trkpt lat="47.00891" lon="5.81016">
        <ele>241</ele>
        <time>2014-06-14T05:37:23Z</time>
      </trkpt>
      <trkpt lat="47.00891" lon="5.81016">
        <ele>241</ele>
        <time>2014-06-14T05:37:38Z</time>
      </trkpt>
      <trkpt lat="47.00891" lon="5.81016">
        <ele>241</ele>
        <time>2014-06-14T05:37:54Z</time>
      </trkpt>
      <trkpt lat="47.00891" lon="5.81016">
        <ele>241</ele>
        <time>2014-06-14T05:38:09Z</time>
      </trkpt>
      <trkpt lat="47.00891" lon="5.81016">
        <ele>241</ele>
        <time>2014-06-14T05:38:25Z</time>
      </trkpt>
      <trkpt lat="47.00891" lon="5.81016">
        <ele>241</ele>
        <time>2014-06-14T05:38:40Z</time>
      </trkpt>
      <trkpt lat="47.00891" lon="5.81016">
        <ele>241</ele>
        <time>2014-06-14T05:38:56Z</time>
      </trkpt>
      <trkpt lat="47.00891" lon="5.81016">
        <ele>241</ele>
        <time>2014-06-14T05:39:12Z</time>
      </trkpt>
      <trkpt lat="47.00891" lon="5.81016">
        <ele>241</ele>
        <time>2014-06-14T05:39:27Z</time>
      </trkpt>
      <trkpt lat="47.00891" lon="5.81016">
        <ele>241</ele>
        <time>2014-06-14T05:39:43Z</time>
      </trkpt>
      <trkpt lat="47.00891" lon="5.81016">
        <ele>241</ele>
        <time>2014-06-14T05:39:58Z</time>
      </trkpt>
      <trkpt lat="47.00891" lon="5.81016">
        <ele>241</ele>
        <time>2014-06-14T05:40:14Z</time>
      </trkpt>
      <trkpt lat="47.00891" lon="5.81016">
        <ele>241</ele>
        <time>2014-06-14T05:40:29Z</time>
      </trkpt>
      <trkpt lat="47.00891" lon="5.81016">
        <ele>241</ele>
        <time>2014-06-14T05:40:44Z</time>
      </trkpt>
      <trkpt lat="47.00891" lon="5.81016">
        <ele>241</ele>
        <time>2014-06-14T05:41:00Z</time>
      </trkpt>
      <trkpt lat="47.00891" lon="5.81016">
        <ele>241</ele>
        <time>2014-06-14T05:41:16Z</time>
      </trkpt>
      <trkpt lat="47.00891" lon="5.81016">
        <ele>241</ele>
        <time>2014-06-14T05:41:31Z</time>
      </trkpt>
      <trkpt lat="47.00891" lon="5.81016">
        <ele>241</ele>
        <time>2014-06-14T05:41:47Z</time>
      </trkpt>
      <trkpt lat="47.00891" lon="5.81016">
        <ele>241</ele>
        <time>2014-06-14T05:42:02Z</time>
      </trkpt>
      <trkpt lat="47.00891" lon="5.81016">
        <ele>241</ele>
        <time>2014-06-14T05:42:18Z</time>
      </trkpt>
      <trkpt lat="47.00891" lon="5.81016">
        <ele>241</ele>
        <time>2014-06-14T05:42:34Z</time>
      </trkpt>
      <trkpt lat="47.00891" lon="5.81016">
        <ele>241</ele>
        <time>2014-06-14T05:42:49Z</time>
      </trkpt>
      <trkpt lat="47.00891" lon="5.81016">
        <ele>241</ele>
        <time>2014-06-14T05:43:05Z</time>
      </trkpt>
      <trkpt lat="47.00891" lon="5.81016">
        <ele>241</ele>
        <time>2014-06-14T05:43:20Z</time>
      </trkpt>
      <trkpt lat="47.00891" lon="5.81016">
        <ele>241</ele>
        <time>2014-06-14T05:43:35Z</time>
      </trkpt>
      <trkpt lat="47.00891" lon="5.81016">
        <ele>241</ele>
        <time>2014-06-14T05:43:50Z</time>
      </trkpt>
      <trkpt lat="47.00891" lon="5.81016">
        <ele>241</ele>
        <time>2014-06-14T05:44:05Z</time>
      </trkpt>
      <trkpt lat="47.00891" lon="5.81016">
        <ele>241</ele>
        <time>2014-06-14T05:44:20Z</time>
      </trkpt>
      <trkpt lat="47.00891" lon="5.81016">
        <ele>241</ele>
        <time>2014-06-14T05:44:36Z</time>
      </trkpt>
      <trkpt lat="47.00891" lon="5.81016">
        <ele>241</ele>
        <time>2014-06-14T05:44:52Z</time>
      </trkpt>
      <trkpt lat="47.00891" lon="5.81016">
        <ele>241</ele>
        <time>2014-06-14T05:45:08Z</time>
      </trkpt>
      <trkpt lat="47.00891" lon="5.81016">
        <ele>241</ele>
        <time>2014-06-14T05:45:24Z</time>
      </trkpt>
      <trkpt lat="47.00887" lon="5.81019">
        <ele>241</ele>
        <time>2014-06-14T05:45:40Z</time>
      </trkpt>
      <trkpt lat="47.00887" lon="5.81019">
        <ele>241</ele>
        <time>2014-06-14T05:45:55Z</time>
      </trkpt>
      <trkpt lat="47.00887" lon="5.8102">
        <ele>241</ele>
        <time>2014-06-14T05:46:10Z</time>
      </trkpt>
      <trkpt lat="47.00887" lon="5.8102">
        <ele>241</ele>
        <time>2014-06-14T05:46:25Z</time>
      </trkpt>
      <trkpt lat="47.00887" lon="5.8102">
        <ele>241</ele>
        <time>2014-06-14T05:46:41Z</time>
      </trkpt>
      <trkpt lat="47.00887" lon="5.8102">
        <ele>241</ele>
        <time>2014-06-14T05:46:57Z</time>
      </trkpt>
      <trkpt lat="47.00887" lon="5.8102">
        <ele>241</ele>
        <time>2014-06-14T05:47:12Z</time>
      </trkpt>
      <trkpt lat="47.00887" lon="5.8102">
        <ele>241</ele>
        <time>2014-06-14T05:47:28Z</time>
      </trkpt>
      <trkpt lat="47.00887" lon="5.8102">
        <ele>241</ele>
        <time>2014-06-14T05:47:43Z</time>
      </trkpt>
      <trkpt lat="47.00887" lon="5.8102">
        <ele>241</ele>
        <time>2014-06-14T05:47:59Z</time>
      </trkpt>
      <trkpt lat="47.00887" lon="5.8102">
        <ele>241</ele>
        <time>2014-06-14T05:48:14Z</time>
      </trkpt>
      <trkpt lat="47.00887" lon="5.8102">
        <ele>241</ele>
        <time>2014-06-14T05:48:30Z</time>
      </trkpt>
      <trkpt lat="47.00887" lon="5.8102">
        <ele>241</ele>
        <time>2014-06-14T05:48:45Z</time>
      </trkpt>
      <trkpt lat="47.00887" lon="5.8102">
        <ele>241</ele>
        <time>2014-06-14T05:49:01Z</time>
      </trkpt>
      <trkpt lat="47.00887" lon="5.8102">
        <ele>241</ele>
        <time>2014-06-14T05:49:16Z</time>
      </trkpt>
      <trkpt lat="47.00887" lon="5.8102">
        <ele>241</ele>
        <time>2014-06-14T05:49:32Z</time>
      </trkpt>
      <trkpt lat="47.00887" lon="5.8102">
        <ele>241</ele>
        <time>2014-06-14T05:49:47Z</time>
      </trkpt>
      <trkpt lat="47.00887" lon="5.8102">
        <ele>241</ele>
        <time>2014-06-14T05:50:02Z</time>
      </trkpt>
      <trkpt lat="47.00887" lon="5.8102">
        <ele>241</ele>
        <time>2014-06-14T05:50:18Z</time>
      </trkpt>
      <trkpt lat="47.00887" lon="5.8102">
        <ele>241</ele>
        <time>2014-06-14T05:50:34Z</time>
      </trkpt>
      <trkpt lat="47.00887" lon="5.8102">
        <ele>241</ele>
        <time>2014-06-14T05:50:49Z</time>
      </trkpt>
      <trkpt lat="47.00887" lon="5.8102">
        <ele>241</ele>
        <time>2014-06-14T05:51:05Z</time>
      </trkpt>
      <trkpt lat="47.00887" lon="5.8102">
        <ele>241</ele>
        <time>2014-06-14T05:51:21Z</time>
      </trkpt>
      <trkpt lat="47.00887" lon="5.8102">
        <ele>241</ele>
        <time>2014-06-14T05:51:37Z</time>
      </trkpt>
      <trkpt lat="47.00887" lon="5.8102">
        <ele>241</ele>
        <time>2014-06-14T05:51:52Z</time>
      </trkpt>
      <trkpt lat="47.00887" lon="5.8102">
        <ele>241</ele>
        <time>2014-06-14T05:52:08Z</time>
      </trkpt>
      <trkpt lat="47.00887" lon="5.8102">
        <ele>241</ele>
        <time>2014-06-14T05:52:24Z</time>
      </trkpt>
      <trkpt lat="47.00887" lon="5.8102">
        <ele>241</ele>
        <time>2014-06-14T05:52:40Z</time>
      </trkpt>
      <trkpt lat="47.00887" lon="5.8102">
        <ele>241</ele>
        <time>2014-06-14T05:52:55Z</time>
      </trkpt>
      <trkpt lat="47.00887" lon="5.8102">
        <ele>241</ele>
        <time>2014-06-14T05:53:10Z</time>
      </trkpt>
      <trkpt lat="47.00887" lon="5.8102">
        <ele>241</ele>
        <time>2014-06-14T05:53:26Z</time>
      </trkpt>
      <trkpt lat="47.00887" lon="5.8102">
        <ele>241</ele>
        <time>2014-06-14T05:53:41Z</time>
      </trkpt>
      <trkpt lat="47.00887" lon="5.8102">
        <ele>241</ele>
        <time>2014-06-14T05:53:56Z</time>
      </trkpt>
      <trkpt lat="47.00887" lon="5.8102">
        <ele>241</ele>
        <time>2014-06-14T05:54:12Z</time>
      </trkpt>
      <trkpt lat="47.00887" lon="5.8102">
        <ele>241</ele>
        <time>2014-06-14T05:54:27Z</time>
      </trkpt>
      <trkpt lat="47.00887" lon="5.8102">
        <ele>241</ele>
        <time>2014-06-14T05:54:43Z</time>
      </trkpt>
      <trkpt lat="47.00887" lon="5.8102">
        <ele>241</ele>
        <time>2014-06-14T05:54:59Z</time>
      </trkpt>
      <trkpt lat="47.00887" lon="5.8102">
        <ele>241</ele>
        <time>2014-06-14T05:55:15Z</time>
      </trkpt>
      <trkpt lat="47.00887" lon="5.8102">
        <ele>241</ele>
        <time>2014-06-14T05:55:31Z</time>
      </trkpt>
      <trkpt lat="47.00887" lon="5.8102">
        <ele>241</ele>
        <time>2014-06-14T05:55:47Z</time>
      </trkpt>
      <trkpt lat="47.00887" lon="5.8102">
        <ele>241</ele>
        <time>2014-06-14T05:56:02Z</time>
      </trkpt>
      <trkpt lat="47.00887" lon="5.8102">
        <ele>241</ele>
        <time>2014-06-14T05:56:18Z</time>
      </trkpt>
      <trkpt lat="47.00887" lon="5.8102">
        <ele>241</ele>
        <time>2014-06-14T05:56:34Z</time>
      </trkpt>
      <trkpt lat="47.00887" lon="5.8102">
        <ele>241</ele>
        <time>2014-06-14T05:56:50Z</time>
      </trkpt>
      <trkpt lat="47.00887" lon="5.8102">
        <ele>241</ele>
        <time>2014-06-14T05:57:06Z</time>
      </trkpt>
      <trkpt lat="47.0089" lon="5.81015">
        <ele>241</ele>
        <time>2014-06-14T05:57:21Z</time>
      </trkpt>
      <trkpt lat="47.00891" lon="5.81014">
        <ele>241</ele>
        <time>2014-06-14T05:57:37Z</time>
      </trkpt>
      <trkpt lat="47.00893" lon="5.81014">
        <ele>241</ele>
        <time>2014-06-14T05:57:53Z</time>
      </trkpt>
      <trkpt lat="47.00896" lon="5.81013">
        <ele>241</ele>
        <time>2014-06-14T05:58:09Z</time>
      </trkpt>
      <trkpt lat="47.00897" lon="5.81013">
        <ele>241</ele>
        <time>2014-06-14T05:58:24Z</time>
      </trkpt>
      <trkpt lat="47.00891" lon="5.81015">
        <ele>241</ele>
        <time>2014-06-14T05:58:40Z</time>
      </trkpt>
      <trkpt lat="47.00891" lon="5.81012">
        <ele>241</ele>
        <time>2014-06-14T05:58:56Z</time>
      </trkpt>
      <trkpt lat="47.00891" lon="5.81012">
        <ele>241</ele>
        <time>2014-06-14T05:59:11Z</time>
      </trkpt>
      <trkpt lat="47.00891" lon="5.81012">
        <ele>241</ele>
        <time>2014-06-14T05:59:27Z</time>
      </trkpt>
      <trkpt lat="47.00893" lon="5.81013">
        <ele>241</ele>
        <time>2014-06-14T05:59:42Z</time>
      </trkpt>
      <trkpt lat="47.00891" lon="5.81009">
        <ele>241</ele>
        <time>2014-06-14T05:59:58Z</time>
      </trkpt>
      <trkpt lat="47.00891" lon="5.81009">
        <ele>241</ele>
        <time>2014-06-14T06:00:13Z</time>
      </trkpt>
      <trkpt lat="47.00891" lon="5.81009">
        <ele>241</ele>
        <time>2014-06-14T06:00:28Z</time>
      </trkpt>
      <trkpt lat="47.00891" lon="5.81009">
        <ele>241</ele>
        <time>2014-06-14T06:00:44Z</time>
      </trkpt>
      <trkpt lat="47.00891" lon="5.81009">
        <ele>241</ele>
        <time>2014-06-14T06:01:00Z</time>
      </trkpt>
      <trkpt lat="47.00892" lon="5.81015">
        <ele>241</ele>
        <time>2014-06-14T06:01:15Z</time>
      </trkpt>
      <trkpt lat="47.00893" lon="5.81013">
        <ele>241</ele>
        <time>2014-06-14T06:01:31Z</time>
      </trkpt>
      <trkpt lat="47.00867" lon="5.81011">
        <ele>242</ele>
        <time>2014-06-14T06:01:47Z</time>
      </trkpt>
      <trkpt lat="47.00838" lon="5.80977">
        <ele>242</ele>
        <time>2014-06-14T06:02:03Z</time>
      </trkpt>
      <trkpt lat="47.00824" lon="5.80928">
        <ele>242</ele>
        <time>2014-06-14T06:02:19Z</time>
      </trkpt>
      <trkpt lat="47.00819" lon="5.80872">
        <ele>249</ele>
        <time>2014-06-14T06:02:35Z</time>
      </trkpt>
      <trkpt lat="47.00797" lon="5.80844">
        <ele>252</ele>
        <time>2014-06-14T06:02:50Z</time>
      </trkpt>
      <trkpt lat="47.00764" lon="5.80865">
        <ele>253</ele>
        <time>2014-06-14T06:03:06Z</time>
      </trkpt>
      <trkpt lat="47.00735" lon="5.80882">
        <ele>258</ele>
        <time>2014-06-14T06:03:21Z</time>
      </trkpt>
      <trkpt lat="47.00702" lon="5.80912">
        <ele>257</ele>
        <time>2014-06-14T06:03:37Z</time>
      </trkpt>
      <trkpt lat="47.00669" lon="5.80951">
        <ele>247</ele>
        <time>2014-06-14T06:03:52Z</time>
      </trkpt>
      <trkpt lat="47.00632" lon="5.80988">
        <ele>252</ele>
        <time>2014-06-14T06:04:08Z</time>
      </trkpt>
      <trkpt lat="47.006" lon="5.8102">
        <ele>248</ele>
        <time>2014-06-14T06:04:23Z</time>
      </trkpt>
      <trkpt lat="47.00593" lon="5.81032">
        <ele>248</ele>
        <time>2014-06-14T06:04:39Z</time>
      </trkpt>
      <trkpt lat="47.00593" lon="5.81023">
        <ele>249</ele>
        <time>2014-06-14T06:04:55Z</time>
      </trkpt>
      <trkpt lat="47.00591" lon="5.81017">
        <ele>249</ele>
        <time>2014-06-14T06:05:11Z</time>
      </trkpt>
      <trkpt lat="47.00569" lon="5.81056">
        <ele>254</ele>
        <time>2014-06-14T06:05:26Z</time>
      </trkpt>
      <trkpt lat="47.00557" lon="5.8108">
        <ele>254</ele>
        <time>2014-06-14T06:05:41Z</time>
      </trkpt>
      <trkpt lat="47.00536" lon="5.81133">
        <ele>251</ele>
        <time>2014-06-14T06:05:57Z</time>
      </trkpt>
      <trkpt lat="47.00507" lon="5.81208">
        <ele>248</ele>
        <time>2014-06-14T06:06:13Z</time>
      </trkpt>
      <trkpt lat="47.00491" lon="5.81316">
        <ele>252</ele>
        <time>2014-06-14T06:06:28Z</time>
      </trkpt>
      <trkpt lat="47.00456" lon="5.81363">
        <ele>251</ele>
        <time>2014-06-14T06:06:43Z</time>
      </trkpt>
      <trkpt lat="47.0042" lon="5.81393">
        <ele>251</ele>
        <time>2014-06-14T06:06:59Z</time>
      </trkpt>
      <trkpt lat="47.004" lon="5.81451">
        <ele>254</ele>
        <time>2014-06-14T06:07:14Z</time>
      </trkpt>
      <trkpt lat="47.00378" lon="5.81538">
        <ele>252</ele>
        <time>2014-06-14T06:07:30Z</time>
      </trkpt>
      <trkpt lat="47.00347" lon="5.81628">
        <ele>250</ele>
        <time>2014-06-14T06:07:46Z</time>
      </trkpt>
      <trkpt lat="47.00332" lon="5.81691">
        <ele>255</ele>
        <time>2014-06-14T06:08:01Z</time>
      </trkpt>
      <trkpt lat="47.00324" lon="5.81784">
        <ele>252</ele>
        <time>2014-06-14T06:08:16Z</time>
      </trkpt>
      <trkpt lat="47.00343" lon="5.81928">
        <ele>242</ele>
        <time>2014-06-14T06:08:32Z</time>
      </trkpt>
      <trkpt lat="47.00369" lon="5.82039">
        <ele>243</ele>
        <time>2014-06-14T06:08:47Z</time>
      </trkpt>
      <trkpt lat="47.00377" lon="5.82147">
        <ele>244</ele>
        <time>2014-06-14T06:09:03Z</time>
      </trkpt>
      <trkpt lat="47.0037" lon="5.82226">
        <ele>245</ele>
        <time>2014-06-14T06:09:18Z</time>
      </trkpt>
      <trkpt lat="47.0036" lon="5.82315">
        <ele>246</ele>
        <time>2014-06-14T06:09:34Z</time>
      </trkpt>
      <trkpt lat="47.00341" lon="5.82358">
        <ele>246</ele>
        <time>2014-06-14T06:09:49Z</time>
      </trkpt>
      <trkpt lat="47.00278" lon="5.82379">
        <ele>246</ele>
        <time>2014-06-14T06:10:05Z</time>
      </trkpt>
      <trkpt lat="47.00247" lon="5.82387">
        <ele>247</ele>
        <time>2014-06-14T06:10:20Z</time>
      </trkpt>
      <trkpt lat="47.00201" lon="5.82397">
        <ele>248</ele>
        <time>2014-06-14T06:10:36Z</time>
      </trkpt>
      <trkpt lat="47.00152" lon="5.82409">
        <ele>251</ele>
        <time>2014-06-14T06:10:51Z</time>
      </trkpt>
      <trkpt lat="47.00114" lon="5.82431">
        <ele>250</ele>
        <time>2014-06-14T06:11:06Z</time>
      </trkpt>
      <trkpt lat="47.00094" lon="5.82447">
        <ele>250</ele>
        <time>2014-06-14T06:11:22Z</time>
      </trkpt>
      <trkpt lat="47.00047" lon="5.82483">
        <ele>251</ele>
        <time>2014-06-14T06:11:38Z</time>
      </trkpt>
      <trkpt lat="47.00014" lon="5.82459">
        <ele>251</ele>
        <time>2014-06-14T06:11:54Z</time>
      </trkpt>
      <trkpt lat="46.99951" lon="5.82411">
        <ele>253</ele>
        <time>2014-06-14T06:12:09Z</time>
      </trkpt>
      <trkpt lat="46.99907" lon="5.82356">
        <ele>254</ele>
        <time>2014-06-14T06:12:25Z</time>
      </trkpt>
      <trkpt lat="46.99862" lon="5.82303">
        <ele>255</ele>
        <time>2014-06-14T06:12:41Z</time>
      </trkpt>
      <trkpt lat="46.99812" lon="5.82275">
        <ele>255</ele>
        <time>2014-06-14T06:12:56Z</time>
      </trkpt>
      <trkpt lat="46.99733" lon="5.82254">
        <ele>254</ele>
        <time>2014-06-14T06:13:11Z</time>
      </trkpt>
      <trkpt lat="46.99666" lon="5.8225">
        <ele>250</ele>
        <time>2014-06-14T06:13:27Z</time>
      </trkpt>
      <trkpt lat="46.99598" lon="5.82252">
        <ele>250</ele>
        <time>2014-06-14T06:13:43Z</time>
      </trkpt>
      <trkpt lat="46.99527" lon="5.82235">
        <ele>251</ele>
        <time>2014-06-14T06:13:59Z</time>
      </trkpt>
      <trkpt lat="46.99469" lon="5.82225">
        <ele>250</ele>
        <time>2014-06-14T06:14:15Z</time>
      </trkpt>
      <trkpt lat="46.99403" lon="5.82222">
        <ele>250</ele>
        <time>2014-06-14T06:14:31Z</time>
      </trkpt>
      <trkpt lat="46.99323" lon="5.82214">
        <ele>250</ele>
        <time>2014-06-14T06:14:47Z</time>
      </trkpt>
      <trkpt lat="46.99238" lon="5.82207">
        <ele>251</ele>
        <time>2014-06-14T06:15:02Z</time>
      </trkpt>
      <trkpt lat="46.99154" lon="5.82193">
        <ele>252</ele>
        <time>2014-06-14T06:15:18Z</time>
      </trkpt>
      <trkpt lat="46.99069" lon="5.82183">
        <ele>253</ele>
        <time>2014-06-14T06:15:33Z</time>
      </trkpt>
      <trkpt lat="46.98991" lon="5.82174">
        <ele>254</ele>
        <time>2014-06-14T06:15:48Z</time>
      </trkpt>
      <trkpt lat="46.98908" lon="5.82184">
        <ele>255</ele>
        <time>2014-06-14T06:16:04Z</time>
      </trkpt>
      <trkpt lat="46.98825" lon="5.82197">
        <ele>256</ele>
        <time>2014-06-14T06:16:20Z</time>
      </trkpt>
      <trkpt lat="46.98756" lon="5.82186">
        <ele>256</ele>
        <time>2014-06-14T06:16:35Z</time>
      </trkpt>
      <trkpt lat="46.98679" lon="5.82133">
        <ele>258</ele>
        <time>2014-06-14T06:16:51Z</time>
      </trkpt>
      <trkpt lat="46.98633" lon="5.82057">
        <ele>260</ele>
        <time>2014-06-14T06:17:06Z</time>
      </trkpt>
      <trkpt lat="46.98583" lon="5.81969">
        <ele>261</ele>
        <time>2014-06-14T06:17:22Z</time>
      </trkpt>
      <trkpt lat="46.98527" lon="5.81884">
        <ele>261</ele>
        <time>2014-06-14T06:17:38Z</time>
      </trkpt>
      <trkpt lat="46.98478" lon="5.818">
        <ele>262</ele>
        <time>2014-06-14T06:17:53Z</time>
      </trkpt>
      <trkpt lat="46.98428" lon="5.81716">
        <ele>263</ele>
        <time>2014-06-14T06:18:08Z</time>
      </trkpt>
      <trkpt lat="46.98376" lon="5.8163">
        <ele>264</ele>
        <time>2014-06-14T06:18:24Z</time>
      </trkpt>
      <trkpt lat="46.98329" lon="5.81548">
        <ele>266</ele>
        <time>2014-06-14T06:18:39Z</time>
      </trkpt>
      <trkpt lat="46.9828" lon="5.8146">
        <ele>267</ele>
        <time>2014-06-14T06:18:55Z</time>
      </trkpt>
      <trkpt lat="46.98244" lon="5.8139">
        <ele>269</ele>
        <time>2014-06-14T06:19:10Z</time>
      </trkpt>
      <trkpt lat="46.98206" lon="5.81322">
        <ele>273</ele>
        <time>2014-06-14T06:19:26Z</time>
      </trkpt>
      <trkpt lat="46.9816" lon="5.81268">
        <ele>272</ele>
        <time>2014-06-14T06:19:41Z</time>
      </trkpt>
      <trkpt lat="46.98129" lon="5.81214">
        <ele>274</ele>
        <time>2014-06-14T06:19:57Z</time>
      </trkpt>
      <trkpt lat="46.98101" lon="5.81174">
        <ele>275</ele>
        <time>2014-06-14T06:20:13Z</time>
      </trkpt>
      <trkpt lat="46.98074" lon="5.81138">
        <ele>275</ele>
        <time>2014-06-14T06:20:28Z</time>
      </trkpt>
      <trkpt lat="46.98044" lon="5.81089">
        <ele>275</ele>
        <time>2014-06-14T06:20:43Z</time>
      </trkpt>
      <trkpt lat="46.98017" lon="5.81028">
        <ele>279</ele>
        <time>2014-06-14T06:20:59Z</time>
      </trkpt>
      <trkpt lat="46.97987" lon="5.80974">
        <ele>282</ele>
        <time>2014-06-14T06:21:15Z</time>
      </trkpt>
      <trkpt lat="46.97955" lon="5.80927">
        <ele>283</ele>
        <time>2014-06-14T06:21:31Z</time>
      </trkpt>
      <trkpt lat="46.97927" lon="5.80879">
        <ele>286</ele>
        <time>2014-06-14T06:21:46Z</time>
      </trkpt>
      <trkpt lat="46.97899" lon="5.80819">
        <ele>288</ele>
        <time>2014-06-14T06:22:01Z</time>
      </trkpt>
      <trkpt lat="46.97862" lon="5.80759">
        <ele>290</ele>
        <time>2014-06-14T06:22:17Z</time>
      </trkpt>
      <trkpt lat="46.97828" lon="5.80716">
        <ele>291</ele>
        <time>2014-06-14T06:22:32Z</time>
      </trkpt>
      <trkpt lat="46.97799" lon="5.80732">
        <ele>290</ele>
        <time>2014-06-14T06:22:48Z</time>
      </trkpt>
      <trkpt lat="46.978" lon="5.80742">
        <ele>290</ele>
        <time>2014-06-14T06:23:03Z</time>
      </trkpt>
      <trkpt lat="46.97803" lon="5.80736">
        <ele>290</ele>
        <time>2014-06-14T06:23:19Z</time>
      </trkpt>
      <trkpt lat="46.97803" lon="5.80736">
        <ele>290</ele>
        <time>2014-06-14T06:23:35Z</time>
      </trkpt>
      <trkpt lat="46.97803" lon="5.80736">
        <ele>290</ele>
        <time>2014-06-14T06:23:50Z</time>
      </trkpt>
      <trkpt lat="46.97803" lon="5.80736">
        <ele>290</ele>
        <time>2014-06-14T06:24:06Z</time>
      </trkpt>
      <trkpt lat="46.97803" lon="5.80736">
        <ele>290</ele>
        <time>2014-06-14T06:24:21Z</time>
      </trkpt>
      <trkpt lat="46.97803" lon="5.80736">
        <ele>290</ele>
        <time>2014-06-14T06:24:37Z</time>
      </trkpt>
      <trkpt lat="46.97803" lon="5.80741">
        <ele>290</ele>
        <time>2014-06-14T06:24:52Z</time>
      </trkpt>
      <trkpt lat="46.97804" lon="5.80737">
        <ele>290</ele>
        <time>2014-06-14T06:25:08Z</time>
      </trkpt>
      <trkpt lat="46.97806" lon="5.80737">
        <ele>290</ele>
        <time>2014-06-14T06:25:23Z</time>
      </trkpt>
      <trkpt lat="46.97802" lon="5.80738">
        <ele>290</ele>
        <time>2014-06-14T06:25:38Z</time>
      </trkpt>
      <trkpt lat="46.97802" lon="5.80738">
        <ele>290</ele>
        <time>2014-06-14T06:25:53Z</time>
      </trkpt>
      <trkpt lat="46.97798" lon="5.80742">
        <ele>290</ele>
        <time>2014-06-14T06:26:09Z</time>
      </trkpt>
      <trkpt lat="46.97798" lon="5.80742">
        <ele>290</ele>
        <time>2014-06-14T06:26:24Z</time>
      </trkpt>
      <trkpt lat="46.97803" lon="5.80745">
        <ele>290</ele>
        <time>2014-06-14T06:26:39Z</time>
      </trkpt>
      <trkpt lat="46.97799" lon="5.80749">
        <ele>290</ele>
        <time>2014-06-14T06:26:55Z</time>
      </trkpt>
      <trkpt lat="46.978" lon="5.80747">
        <ele>290</ele>
        <time>2014-06-14T06:27:11Z</time>
      </trkpt>
      <trkpt lat="46.97795" lon="5.80744">
        <ele>290</ele>
        <time>2014-06-14T06:27:27Z</time>
      </trkpt>
      <trkpt lat="46.97795" lon="5.80744">
        <ele>290</ele>
        <time>2014-06-14T06:27:42Z</time>
      </trkpt>
      <trkpt lat="46.97795" lon="5.80744">
        <ele>290</ele>
        <time>2014-06-14T06:27:58Z</time>
      </trkpt>
      <trkpt lat="46.97795" lon="5.80744">
        <ele>290</ele>
        <time>2014-06-14T06:28:13Z</time>
      </trkpt>
      <trkpt lat="46.97792" lon="5.80745">
        <ele>290</ele>
        <time>2014-06-14T06:28:29Z</time>
      </trkpt>
      <trkpt lat="46.97797" lon="5.80745">
        <ele>290</ele>
        <time>2014-06-14T06:28:44Z</time>
      </trkpt>
      <trkpt lat="46.97797" lon="5.80745">
        <ele>290</ele>
        <time>2014-06-14T06:29:00Z</time>
      </trkpt>
      <trkpt lat="46.97797" lon="5.80745">
        <ele>290</ele>
        <time>2014-06-14T06:29:15Z</time>
      </trkpt>
      <trkpt lat="46.97797" lon="5.80745">
        <ele>290</ele>
        <time>2014-06-14T06:29:31Z</time>
      </trkpt>
      <trkpt lat="46.97797" lon="5.80745">
        <ele>290</ele>
        <time>2014-06-14T06:29:47Z</time>
      </trkpt>
      <trkpt lat="46.97796" lon="5.80741">
        <ele>290</ele>
        <time>2014-06-14T06:30:03Z</time>
      </trkpt>
      <trkpt lat="46.97756" lon="5.80831">
        <ele>287</ele>
        <time>2014-06-14T06:30:19Z</time>
      </trkpt>
      <trkpt lat="46.97699" lon="5.80951">
        <ele>284</ele>
        <time>2014-06-14T06:30:34Z</time>
      </trkpt>
      <trkpt lat="46.97646" lon="5.81061">
        <ele>284</ele>
        <time>2014-06-14T06:30:49Z</time>
      </trkpt>
      <trkpt lat="46.97586" lon="5.8115">
        <ele>282</ele>
        <time>2014-06-14T06:31:04Z</time>
      </trkpt>
      <trkpt lat="46.97507" lon="5.81236">
        <ele>284</ele>
        <time>2014-06-14T06:31:20Z</time>
      </trkpt>
      <trkpt lat="46.97437" lon="5.81318">
        <ele>286</ele>
        <time>2014-06-14T06:31:35Z</time>
      </trkpt>
      <trkpt lat="46.97387" lon="5.8138">
        <ele>288</ele>
        <time>2014-06-14T06:31:51Z</time>
      </trkpt>
      <trkpt lat="46.97333" lon="5.81444">
        <ele>288</ele>
        <time>2014-06-14T06:32:07Z</time>
      </trkpt>
      <trkpt lat="46.97284" lon="5.81498">
        <ele>288</ele>
        <time>2014-06-14T06:32:22Z</time>
      </trkpt>
      <trkpt lat="46.97272" lon="5.81506">
        <ele>288</ele>
        <time>2014-06-14T06:32:37Z</time>
      </trkpt>
      <trkpt lat="46.9727" lon="5.81507">
        <ele>288</ele>
        <time>2014-06-14T06:32:52Z</time>
      </trkpt>
      <trkpt lat="46.97231" lon="5.81563">
        <ele>287</ele>
        <time>2014-06-14T06:33:07Z</time>
      </trkpt>
      <trkpt lat="46.97165" lon="5.81647">
        <ele>285</ele>
        <time>2014-06-14T06:33:23Z</time>
      </trkpt>
      <trkpt lat="46.97104" lon="5.81722">
        <ele>286</ele>
        <time>2014-06-14T06:33:39Z</time>
      </trkpt>
      <trkpt lat="46.97052" lon="5.81774">
        <ele>290</ele>
        <time>2014-06-14T06:33:55Z</time>
      </trkpt>
      <trkpt lat="46.97003" lon="5.8181">
        <ele>292</ele>
        <time>2014-06-14T06:34:10Z</time>
      </trkpt>
      <trkpt lat="46.96949" lon="5.81851">
        <ele>294</ele>
        <time>2014-06-14T06:34:25Z</time>
      </trkpt>
      <trkpt lat="46.96903" lon="5.81883">
        <ele>294</ele>
        <time>2014-06-14T06:34:41Z</time>
      </trkpt>
      <trkpt lat="46.96859" lon="5.81903">
        <ele>295</ele>
        <time>2014-06-14T06:34:56Z</time>
      </trkpt>
      <trkpt lat="46.96811" lon="5.81934">
        <ele>299</ele>
        <time>2014-06-14T06:35:12Z</time>
      </trkpt>
      <trkpt lat="46.96768" lon="5.81943">
        <ele>299</ele>
        <time>2014-06-14T06:35:27Z</time>
      </trkpt>
      <trkpt lat="46.96692" lon="5.8195">
        <ele>299</ele>
        <time>2014-06-14T06:35:43Z</time>
      </trkpt>
      <trkpt lat="46.96618" lon="5.81961">
        <ele>300</ele>
        <time>2014-06-14T06:35:58Z</time>
      </trkpt>
      <trkpt lat="46.96554" lon="5.82033">
        <ele>302</ele>
        <time>2014-06-14T06:36:14Z</time>
      </trkpt>
      <trkpt lat="46.9649" lon="5.81988">
        <ele>305</ele>
        <time>2014-06-14T06:36:30Z</time>
      </trkpt>
      <trkpt lat="46.96474" lon="5.81921">
        <ele>307</ele>
        <time>2014-06-14T06:36:45Z</time>
      </trkpt>
      <trkpt lat="46.96462" lon="5.81863">
        <ele>307</ele>
        <time>2014-06-14T06:37:01Z</time>
      </trkpt>
      <trkpt lat="46.96443" lon="5.81826">
        <ele>307</ele>
        <time>2014-06-14T06:37:16Z</time>
      </trkpt>
      <trkpt lat="46.96424" lon="5.81773">
        <ele>307</ele>
        <time>2014-06-14T06:37:31Z</time>
      </trkpt>
      <trkpt lat="46.96412" lon="5.81703">
        <ele>313</ele>
        <time>2014-06-14T06:37:47Z</time>
      </trkpt>
      <trkpt lat="46.96408" lon="5.81642">
        <ele>313</ele>
        <time>2014-06-14T06:38:03Z</time>
      </trkpt>
      <trkpt lat="46.96393" lon="5.81588">
        <ele>313</ele>
        <time>2014-06-14T06:38:18Z</time>
      </trkpt>
      <trkpt lat="46.96361" lon="5.81565">
        <ele>315</ele>
        <time>2014-06-14T06:38:33Z</time>
      </trkpt>
      <trkpt lat="46.96332" lon="5.81545">
        <ele>322</ele>
        <time>2014-06-14T06:38:49Z</time>
      </trkpt>
      <trkpt lat="46.96301" lon="5.81524">
        <ele>324</ele>
        <time>2014-06-14T06:39:04Z</time>
      </trkpt>
      <trkpt lat="46.96266" lon="5.81501">
        <ele>326</ele>
        <time>2014-06-14T06:39:19Z</time>
      </trkpt>
      <trkpt lat="46.96225" lon="5.81474">
        <ele>326</ele>
        <time>2014-06-14T06:39:35Z</time>
      </trkpt>
      <trkpt lat="46.96186" lon="5.81463">
        <ele>327</ele>
        <time>2014-06-14T06:39:50Z</time>
      </trkpt>
      <trkpt lat="46.96149" lon="5.81472">
        <ele>331</ele>
        <time>2014-06-14T06:40:06Z</time>
      </trkpt>
      <trkpt lat="46.96107" lon="5.81482">
        <ele>331</ele>
        <time>2014-06-14T06:40:22Z</time>
      </trkpt>
      <trkpt lat="46.96068" lon="5.81495">
        <ele>333</ele>
        <time>2014-06-14T06:40:38Z</time>
      </trkpt>
      <trkpt lat="46.96034" lon="5.81518">
        <ele>339</ele>
        <time>2014-06-14T06:40:54Z</time>
      </trkpt>
      <trkpt lat="46.96001" lon="5.81549">
        <ele>341</ele>
        <time>2014-06-14T06:41:10Z</time>
      </trkpt>
      <trkpt lat="46.95968" lon="5.81584">
        <ele>346</ele>
        <time>2014-06-14T06:41:26Z</time>
      </trkpt>
      <trkpt lat="46.95941" lon="5.81614">
        <ele>346</ele>
        <time>2014-06-14T06:41:42Z</time>
      </trkpt>
      <trkpt lat="46.95904" lon="5.81643">
        <ele>347</ele>
        <time>2014-06-14T06:41:58Z</time>
      </trkpt>
      <trkpt lat="46.95861" lon="5.81646">
        <ele>348</ele>
        <time>2014-06-14T06:42:14Z</time>
      </trkpt>
      <trkpt lat="46.95823" lon="5.81647">
        <ele>352</ele>
        <time>2014-06-14T06:42:30Z</time>
      </trkpt>
      <trkpt lat="46.95783" lon="5.81643">
        <ele>352</ele>
        <time>2014-06-14T06:42:46Z</time>
      </trkpt>
      <trkpt lat="46.95762" lon="5.81639">
        <ele>353</ele>
        <time>2014-06-14T06:43:02Z</time>
      </trkpt>
      <trkpt lat="46.95761" lon="5.81639">
        <ele>353</ele>
        <time>2014-06-14T06:43:17Z</time>
      </trkpt>
      <trkpt lat="46.95764" lon="5.81638">
        <ele>352</ele>
        <time>2014-06-14T06:43:32Z</time>
      </trkpt>
      <trkpt lat="46.95764" lon="5.81638">
        <ele>352</ele>
        <time>2014-06-14T06:43:48Z</time>
      </trkpt>
      <trkpt lat="46.95764" lon="5.81643">
        <ele>353</ele>
        <time>2014-06-14T06:44:04Z</time>
      </trkpt>
      <trkpt lat="46.95764" lon="5.81643">
        <ele>353</ele>
        <time>2014-06-14T06:44:19Z</time>
      </trkpt>
      <trkpt lat="46.95766" lon="5.81638">
        <ele>352</ele>
        <time>2014-06-14T06:44:35Z</time>
      </trkpt>
      <trkpt lat="46.95767" lon="5.81639">
        <ele>352</ele>
        <time>2014-06-14T06:44:50Z</time>
      </trkpt>
      <trkpt lat="46.95766" lon="5.81639">
        <ele>352</ele>
        <time>2014-06-14T06:45:06Z</time>
      </trkpt>
      <trkpt lat="46.95766" lon="5.81639">
        <ele>352</ele>
        <time>2014-06-14T06:45:21Z</time>
      </trkpt>
      <trkpt lat="46.95767" lon="5.81638">
        <ele>352</ele>
        <time>2014-06-14T06:45:37Z</time>
      </trkpt>
      <trkpt lat="46.95767" lon="5.81636">
        <ele>352</ele>
        <time>2014-06-14T06:45:52Z</time>
      </trkpt>
      <trkpt lat="46.95767" lon="5.81636">
        <ele>352</ele>
        <time>2014-06-14T06:46:08Z</time>
      </trkpt>
      <trkpt lat="46.95767" lon="5.81633">
        <ele>352</ele>
        <time>2014-06-14T06:46:24Z</time>
      </trkpt>
      <trkpt lat="46.95767" lon="5.81633">
        <ele>352</ele>
        <time>2014-06-14T06:46:39Z</time>
      </trkpt>
      <trkpt lat="46.95767" lon="5.8164">
        <ele>352</ele>
        <time>2014-06-14T06:46:54Z</time>
      </trkpt>
      <trkpt lat="46.95767" lon="5.81643">
        <ele>353</ele>
        <time>2014-06-14T06:47:09Z</time>
      </trkpt>
      <trkpt lat="46.95766" lon="5.81644">
        <ele>353</ele>
        <time>2014-06-14T06:47:25Z</time>
      </trkpt>
      <trkpt lat="46.95765" lon="5.81639">
        <ele>352</ele>
        <time>2014-06-14T06:47:40Z</time>
      </trkpt>
      <trkpt lat="46.9575" lon="5.81636">
        <ele>353</ele>
        <time>2014-06-14T06:47:55Z</time>
      </trkpt>
      <trkpt lat="46.95709" lon="5.81634">
        <ele>357</ele>
        <time>2014-06-14T06:48:11Z</time>
      </trkpt>
      <trkpt lat="46.95669" lon="5.81632">
        <ele>358</ele>
        <time>2014-06-14T06:48:27Z</time>
      </trkpt>
      <trkpt lat="46.9563" lon="5.81639">
        <ele>359</ele>
        <time>2014-06-14T06:48:43Z</time>
      </trkpt>
      <trkpt lat="46.95595" lon="5.81646">
        <ele>359</ele>
        <time>2014-06-14T06:48:59Z</time>
      </trkpt>
      <trkpt lat="46.95595" lon="5.81645">
        <ele>359</ele>
        <time>2014-06-14T06:49:14Z</time>
      </trkpt>
      <trkpt lat="46.95595" lon="5.81645">
        <ele>359</ele>
        <time>2014-06-14T06:49:30Z</time>
      </trkpt>
      <trkpt lat="46.95595" lon="5.81645">
        <ele>359</ele>
        <time>2014-06-14T06:49:45Z</time>
      </trkpt>
      <trkpt lat="46.95595" lon="5.81645">
        <ele>359</ele>
        <time>2014-06-14T06:50:00Z</time>
      </trkpt>
      <trkpt lat="46.95595" lon="5.81645">
        <ele>359</ele>
        <time>2014-06-14T06:50:15Z</time>
      </trkpt>
      <trkpt lat="46.95595" lon="5.81645">
        <ele>359</ele>
        <time>2014-06-14T06:50:31Z</time>
      </trkpt>
      <trkpt lat="46.95595" lon="5.81645">
        <ele>359</ele>
        <time>2014-06-14T06:50:46Z</time>
      </trkpt>
      <trkpt lat="46.95595" lon="5.81645">
        <ele>359</ele>
        <time>2014-06-14T06:51:01Z</time>
      </trkpt>
      <trkpt lat="46.95595" lon="5.81645">
        <ele>359</ele>
        <time>2014-06-14T06:51:17Z</time>
      </trkpt>
      <trkpt lat="46.95595" lon="5.81645">
        <ele>359</ele>
        <time>2014-06-14T06:51:32Z</time>
      </trkpt>
      <trkpt lat="46.95595" lon="5.81645">
        <ele>359</ele>
        <time>2014-06-14T06:51:47Z</time>
      </trkpt>
      <trkpt lat="46.95595" lon="5.81645">
        <ele>359</ele>
        <time>2014-06-14T06:52:03Z</time>
      </trkpt>
      <trkpt lat="46.95595" lon="5.81645">
        <ele>359</ele>
        <time>2014-06-14T06:52:18Z</time>
      </trkpt>
      <trkpt lat="46.95595" lon="5.81645">
        <ele>359</ele>
        <time>2014-06-14T06:52:34Z</time>
      </trkpt>
      <trkpt lat="46.95592" lon="5.81642">
        <ele>359</ele>
        <time>2014-06-14T06:52:49Z</time>
      </trkpt>
      <trkpt lat="46.95532" lon="5.81661">
        <ele>358</ele>
        <time>2014-06-14T06:53:05Z</time>
      </trkpt>
      <trkpt lat="46.95465" lon="5.81641">
        <ele>358</ele>
        <time>2014-06-14T06:53:20Z</time>
      </trkpt>
      <trkpt lat="46.95406" lon="5.81635">
        <ele>358</ele>
        <time>2014-06-14T06:53:36Z</time>
      </trkpt>
      <trkpt lat="46.95352" lon="5.81665">
        <ele>358</ele>
        <time>2014-06-14T06:53:52Z</time>
      </trkpt>
      <trkpt lat="46.9531" lon="5.81708">
        <ele>359</ele>
        <time>2014-06-14T06:54:07Z</time>
      </trkpt>
      <trkpt lat="46.95297" lon="5.81749">
        <ele>359</ele>
        <time>2014-06-14T06:54:22Z</time>
      </trkpt>
      <trkpt lat="46.95285" lon="5.81812">
        <ele>360</ele>
        <time>2014-06-14T06:54:38Z</time>
      </trkpt>
      <trkpt lat="46.95274" lon="5.81873">
        <ele>360</ele>
        <time>2014-06-14T06:54:54Z</time>
      </trkpt>
      <trkpt lat="46.95267" lon="5.81903">
        <ele>360</ele>
        <time>2014-06-14T06:55:10Z</time>
      </trkpt>
      <trkpt lat="46.95247" lon="5.81889">
        <ele>359</ele>
        <time>2014-06-14T06:55:26Z</time>
      </trkpt>
      <trkpt lat="46.9524" lon="5.81862">
        <ele>358</ele>
        <time>2014-06-14T06:55:41Z</time>
      </trkpt>
      <trkpt lat="46.95227" lon="5.81815">
        <ele>358</ele>
        <time>2014-06-14T06:55:57Z</time>
      </trkpt>
      <trkpt lat="46.95144" lon="5.8182">
        <ele>355</ele>
        <time>2014-06-14T06:56:13Z</time>
      </trkpt>
      <trkpt lat="46.95064" lon="5.81877">
        <ele>354</ele>
        <time>2014-06-14T06:56:29Z</time>
      </trkpt>
      <trkpt lat="46.94998" lon="5.81868">
        <ele>354</ele>
        <time>2014-06-14T06:56:45Z</time>
      </trkpt>
      <trkpt lat="46.94972" lon="5.81851">
        <ele>355</ele>
        <time>2014-06-14T06:57:00Z</time>
      </trkpt>
      <trkpt lat="46.94968" lon="5.81759">
        <ele>354</ele>
        <time>2014-06-14T06:57:15Z</time>
      </trkpt>
      <trkpt lat="46.9498" lon="5.81693">
        <ele>353</ele>
        <time>2014-06-14T06:57:31Z</time>
      </trkpt>
      <trkpt lat="46.94979" lon="5.81698">
        <ele>353</ele>
        <time>2014-06-14T06:57:46Z</time>
      </trkpt>
      <trkpt lat="46.94987" lon="5.81678">
        <ele>353</ele>
        <time>2014-06-14T06:58:02Z</time>
      </trkpt>
      <trkpt lat="46.94993" lon="5.81685">
        <ele>353</ele>
        <time>2014-06-14T06:58:17Z</time>
      </trkpt>
      <trkpt lat="46.94996" lon="5.81685">
        <ele>353</ele>
        <time>2014-06-14T06:58:32Z</time>
      </trkpt>
      <trkpt lat="46.94996" lon="5.81685">
        <ele>353</ele>
        <time>2014-06-14T06:58:48Z</time>
      </trkpt>
      <trkpt lat="46.94995" lon="5.81684">
        <ele>353</ele>
        <time>2014-06-14T06:59:03Z</time>
      </trkpt>
      <trkpt lat="46.94995" lon="5.81684">
        <ele>353</ele>
        <time>2014-06-14T06:59:19Z</time>
      </trkpt>
      <trkpt lat="46.94994" lon="5.81686">
        <ele>353</ele>
        <time>2014-06-14T06:59:35Z</time>
      </trkpt>
      <trkpt lat="46.94992" lon="5.81684">
        <ele>353</ele>
        <time>2014-06-14T06:59:51Z</time>
      </trkpt>
      <trkpt lat="46.94991" lon="5.81679">
        <ele>353</ele>
        <time>2014-06-14T07:00:06Z</time>
      </trkpt>
      <trkpt lat="46.94992" lon="5.81685">
        <ele>353</ele>
        <time>2014-06-14T07:00:21Z</time>
      </trkpt>
      <trkpt lat="46.94992" lon="5.81685">
        <ele>353</ele>
        <time>2014-06-14T07:00:36Z</time>
      </trkpt>
      <trkpt lat="46.94992" lon="5.81685">
        <ele>353</ele>
        <time>2014-06-14T07:00:52Z</time>
      </trkpt>
      <trkpt lat="46.94992" lon="5.81685">
        <ele>353</ele>
        <time>2014-06-14T07:01:08Z</time>
      </trkpt>
      <trkpt lat="46.94992" lon="5.81685">
        <ele>353</ele>
        <time>2014-06-14T07:01:23Z</time>
      </trkpt>
      <trkpt lat="46.94992" lon="5.81685">
        <ele>353</ele>
        <time>2014-06-14T07:01:39Z</time>
      </trkpt>
      <trkpt lat="46.94992" lon="5.81685">
        <ele>353</ele>
        <time>2014-06-14T07:01:54Z</time>
      </trkpt>
      <trkpt lat="46.94992" lon="5.81685">
        <ele>353</ele>
        <time>2014-06-14T07:02:09Z</time>
      </trkpt>
      <trkpt lat="46.94992" lon="5.81685">
        <ele>353</ele>
        <time>2014-06-14T07:02:25Z</time>
      </trkpt>
      <trkpt lat="46.94992" lon="5.81685">
        <ele>353</ele>
        <time>2014-06-14T07:02:40Z</time>
      </trkpt>
      <trkpt lat="46.94991" lon="5.8168">
        <ele>353</ele>
        <time>2014-06-14T07:02:56Z</time>
      </trkpt>
      <trkpt lat="46.94991" lon="5.8168">
        <ele>353</ele>
        <time>2014-06-14T07:03:11Z</time>
      </trkpt>
      <trkpt lat="46.9499" lon="5.81681">
        <ele>353</ele>
        <time>2014-06-14T07:03:27Z</time>
      </trkpt>
      <trkpt lat="46.9499" lon="5.81681">
        <ele>353</ele>
        <time>2014-06-14T07:03:43Z</time>
      </trkpt>
      <trkpt lat="46.9499" lon="5.81681">
        <ele>353</ele>
        <time>2014-06-14T07:03:59Z</time>
      </trkpt>
      <trkpt lat="46.9499" lon="5.81681">
        <ele>353</ele>
        <time>2014-06-14T07:04:15Z</time>
      </trkpt>
      <trkpt lat="46.94989" lon="5.81682">
        <ele>353</ele>
        <time>2014-06-14T07:04:31Z</time>
      </trkpt>
      <trkpt lat="46.94991" lon="5.81682">
        <ele>353</ele>
        <time>2014-06-14T07:04:47Z</time>
      </trkpt>
      <trkpt lat="46.94991" lon="5.81682">
        <ele>353</ele>
        <time>2014-06-14T07:05:02Z</time>
      </trkpt>
      <trkpt lat="46.94991" lon="5.81682">
        <ele>353</ele>
        <time>2014-06-14T07:05:17Z</time>
      </trkpt>
      <trkpt lat="46.94991" lon="5.81682">
        <ele>353</ele>
        <time>2014-06-14T07:05:33Z</time>
      </trkpt>
      <trkpt lat="46.94991" lon="5.81682">
        <ele>353</ele>
        <time>2014-06-14T07:05:49Z</time>
      </trkpt>
      <trkpt lat="46.94988" lon="5.81682">
        <ele>353</ele>
        <time>2014-06-14T07:06:05Z</time>
      </trkpt>
      <trkpt lat="46.94985" lon="5.8168">
        <ele>353</ele>
        <time>2014-06-14T07:06:20Z</time>
      </trkpt>
      <trkpt lat="46.94985" lon="5.8168">
        <ele>353</ele>
        <time>2014-06-14T07:06:35Z</time>
      </trkpt>
      <trkpt lat="46.94988" lon="5.81681">
        <ele>353</ele>
        <time>2014-06-14T07:06:50Z</time>
      </trkpt>
      <trkpt lat="46.94989" lon="5.81678">
        <ele>353</ele>
        <time>2014-06-14T07:07:06Z</time>
      </trkpt>
      <trkpt lat="46.94989" lon="5.81682">
        <ele>353</ele>
        <time>2014-06-14T07:07:21Z</time>
      </trkpt>
      <trkpt lat="46.94989" lon="5.81682">
        <ele>353</ele>
        <time>2014-06-14T07:07:36Z</time>
      </trkpt>
      <trkpt lat="46.94982" lon="5.81695">
        <ele>353</ele>
        <time>2014-06-14T07:07:52Z</time>
      </trkpt>
      <trkpt lat="46.94969" lon="5.81725">
        <ele>353</ele>
        <time>2014-06-14T07:08:08Z</time>
      </trkpt>
      <trkpt lat="46.94976" lon="5.81785">
        <ele>354</ele>
        <time>2014-06-14T07:08:23Z</time>
      </trkpt>
      <trkpt lat="46.94971" lon="5.81842">
        <ele>355</ele>
        <time>2014-06-14T07:08:38Z</time>
      </trkpt>
      <trkpt lat="46.94934" lon="5.8185">
        <ele>356</ele>
        <time>2014-06-14T07:08:53Z</time>
      </trkpt>
      <trkpt lat="46.94902" lon="5.81852">
        <ele>359</ele>
        <time>2014-06-14T07:09:08Z</time>
      </trkpt>
      <trkpt lat="46.94881" lon="5.81794">
        <ele>358</ele>
        <time>2014-06-14T07:09:24Z</time>
      </trkpt>
      <trkpt lat="46.94849" lon="5.81739">
        <ele>357</ele>
        <time>2014-06-14T07:09:39Z</time>
      </trkpt>
      <trkpt lat="46.94822" lon="5.8166">
        <ele>358</ele>
        <time>2014-06-14T07:09:55Z</time>
      </trkpt>
      <trkpt lat="46.94798" lon="5.81528">
        <ele>356</ele>
        <time>2014-06-14T07:10:10Z</time>
      </trkpt>
      <trkpt lat="46.94752" lon="5.81309">
        <ele>348</ele>
        <time>2014-06-14T07:10:26Z</time>
      </trkpt>
      <trkpt lat="46.94705" lon="5.8108">
        <ele>349</ele>
        <time>2014-06-14T07:10:41Z</time>
      </trkpt>
      <trkpt lat="46.94676" lon="5.80928">
        <ele>351</ele>
        <time>2014-06-14T07:10:57Z</time>
      </trkpt>
      <trkpt lat="46.94654" lon="5.80823">
        <ele>355</ele>
        <time>2014-06-14T07:11:12Z</time>
      </trkpt>
      <trkpt lat="46.9463" lon="5.80699">
        <ele>357</ele>
        <time>2014-06-14T07:11:28Z</time>
      </trkpt>
      <trkpt lat="46.94599" lon="5.80577">
        <ele>356</ele>
        <time>2014-06-14T07:11:43Z</time>
      </trkpt>
      <trkpt lat="46.94557" lon="5.80434">
        <ele>354</ele>
        <time>2014-06-14T07:11:58Z</time>
      </trkpt>
      <trkpt lat="46.94537" lon="5.80245">
        <ele>349</ele>
        <time>2014-06-14T07:12:13Z</time>
      </trkpt>
      <trkpt lat="46.94551" lon="5.80044">
        <ele>344</ele>
        <time>2014-06-14T07:12:28Z</time>
      </trkpt>
      <trkpt lat="46.94608" lon="5.79826">
        <ele>332</ele>
        <time>2014-06-14T07:12:44Z</time>
      </trkpt>
      <trkpt lat="46.94679" lon="5.79594">
        <ele>325</ele>
        <time>2014-06-14T07:12:59Z</time>
      </trkpt>
      <trkpt lat="46.9469" lon="5.79281">
        <ele>310</ele>
        <time>2014-06-14T07:13:15Z</time>
      </trkpt>
      <trkpt lat="46.9467" lon="5.78986">
        <ele>301</ele>
        <time>2014-06-14T07:13:31Z</time>
      </trkpt>
      <trkpt lat="46.94644" lon="5.7879">
        <ele>296</ele>
        <time>2014-06-14T07:13:46Z</time>
      </trkpt>
      <trkpt lat="46.94642" lon="5.7877">
        <ele>295</ele>
        <time>2014-06-14T07:14:02Z</time>
      </trkpt>
      <trkpt lat="46.94643" lon="5.78736">
        <ele>294</ele>
        <time>2014-06-14T07:14:17Z</time>
      </trkpt>
      <trkpt lat="46.94621" lon="5.78579">
        <ele>289</ele>
        <time>2014-06-14T07:14:32Z</time>
      </trkpt>
      <trkpt lat="46.94588" lon="5.78374">
        <ele>284</ele>
        <time>2014-06-14T07:14:48Z</time>
      </trkpt>
      <trkpt lat="46.94567" lon="5.7822">
        <ele>287</ele>
        <time>2014-06-14T07:15:03Z</time>
      </trkpt>
      <trkpt lat="46.94555" lon="5.78154">
        <ele>290</ele>
        <time>2014-06-14T07:15:18Z</time>
      </trkpt>
      <trkpt lat="46.94549" lon="5.78114">
        <ele>291</ele>
        <time>2014-06-14T07:15:33Z</time>
      </trkpt>
      <trkpt lat="46.94549" lon="5.78102">
        <ele>291</ele>
        <time>2014-06-14T07:15:49Z</time>
      </trkpt>
      <trkpt lat="46.94548" lon="5.78106">
        <ele>291</ele>
        <time>2014-06-14T07:16:04Z</time>
      </trkpt>
      <trkpt lat="46.94545" lon="5.78112">
        <ele>291</ele>
        <time>2014-06-14T07:16:19Z</time>
      </trkpt>
      <trkpt lat="46.94563" lon="5.7825">
        <ele>286</ele>
        <time>2014-06-14T07:16:34Z</time>
      </trkpt>
      <trkpt lat="46.9459" lon="5.78439">
        <ele>285</ele>
        <time>2014-06-14T07:16:50Z</time>
      </trkpt>
      <trkpt lat="46.94612" lon="5.78573">
        <ele>289</ele>
        <time>2014-06-14T07:17:06Z</time>
      </trkpt>
      <trkpt lat="46.94623" lon="5.78656">
        <ele>293</ele>
        <time>2014-06-14T07:17:22Z</time>
      </trkpt>
      <trkpt lat="46.94634" lon="5.78724">
        <ele>295</ele>
        <time>2014-06-14T07:17:37Z</time>
      </trkpt>
      <trkpt lat="46.94644" lon="5.78803">
        <ele>296</ele>
        <time>2014-06-14T07:17:53Z</time>
      </trkpt>
      <trkpt lat="46.94654" lon="5.78889">
        <ele>298</ele>
        <time>2014-06-14T07:18:09Z</time>
      </trkpt>
      <trkpt lat="46.94662" lon="5.78965">
        <ele>301</ele>
        <time>2014-06-14T07:18:24Z</time>
      </trkpt>
      <trkpt lat="46.94675" lon="5.79035">
        <ele>302</ele>
        <time>2014-06-14T07:18:39Z</time>
      </trkpt>
      <trkpt lat="46.94688" lon="5.79115">
        <ele>304</ele>
        <time>2014-06-14T07:18:55Z</time>
      </trkpt>
      <trkpt lat="46.94633" lon="5.79141">
        <ele>304</ele>
        <time>2014-06-14T07:19:11Z</time>
      </trkpt>
      <trkpt lat="46.94583" lon="5.79106">
        <ele>305</ele>
        <time>2014-06-14T07:19:27Z</time>
      </trkpt>
      <trkpt lat="46.94522" lon="5.79061">
        <ele>303</ele>
        <time>2014-06-14T07:19:43Z</time>
      </trkpt>
      <trkpt lat="46.94422" lon="5.79001">
        <ele>302</ele>
        <time>2014-06-14T07:19:59Z</time>
      </trkpt>
      <trkpt lat="46.94373" lon="5.78926">
        <ele>304</ele>
        <time>2014-06-14T07:20:14Z</time>
      </trkpt>
      <trkpt lat="46.94317" lon="5.78881">
        <ele>306</ele>
        <time>2014-06-14T07:20:30Z</time>
      </trkpt>
      <trkpt lat="46.94265" lon="5.78833">
        <ele>304</ele>
        <time>2014-06-14T07:20:45Z</time>
      </trkpt>
      <trkpt lat="46.942" lon="5.78782">
        <ele>305</ele>
        <time>2014-06-14T07:21:00Z</time>
      </trkpt>
      <trkpt lat="46.94123" lon="5.78731">
        <ele>304</ele>
        <time>2014-06-14T07:21:16Z</time>
      </trkpt>
      <trkpt lat="46.9401" lon="5.78659">
        <ele>303</ele>
        <time>2014-06-14T07:21:32Z</time>
      </trkpt>
      <trkpt lat="46.93941" lon="5.78547">
        <ele>305</ele>
        <time>2014-06-14T07:21:48Z</time>
      </trkpt>
      <trkpt lat="46.93884" lon="5.78488">
        <ele>307</ele>
        <time>2014-06-14T07:22:04Z</time>
      </trkpt>
      <trkpt lat="46.93829" lon="5.78433">
        <ele>309</ele>
        <time>2014-06-14T07:22:20Z</time>
      </trkpt>
      <trkpt lat="46.93769" lon="5.78381">
        <ele>309</ele>
        <time>2014-06-14T07:22:35Z</time>
      </trkpt>
      <trkpt lat="46.93702" lon="5.78336">
        <ele>314</ele>
        <time>2014-06-14T07:22:51Z</time>
      </trkpt>
      <trkpt lat="46.9365" lon="5.78314">
        <ele>314</ele>
        <time>2014-06-14T07:23:06Z</time>
      </trkpt>
      <trkpt lat="46.93588" lon="5.78294">
        <ele>314</ele>
        <time>2014-06-14T07:23:22Z</time>
      </trkpt>
      <trkpt lat="46.93516" lon="5.78292">
        <ele>317</ele>
        <time>2014-06-14T07:23:38Z</time>
      </trkpt>
      <trkpt lat="46.93455" lon="5.78277">
        <ele>319</ele>
        <time>2014-06-14T07:23:53Z</time>
      </trkpt>
      <trkpt lat="46.93385" lon="5.78282">
        <ele>322</ele>
        <time>2014-06-14T07:24:09Z</time>
      </trkpt>
      <trkpt lat="46.93332" lon="5.78325">
        <ele>326</ele>
        <time>2014-06-14T07:24:25Z</time>
      </trkpt>
      <trkpt lat="46.93285" lon="5.78372">
        <ele>330</ele>
        <time>2014-06-14T07:24:41Z</time>
      </trkpt>
      <trkpt lat="46.93239" lon="5.78397">
        <ele>330</ele>
        <time>2014-06-14T07:24:56Z</time>
      </trkpt>
      <trkpt lat="46.93196" lon="5.78413">
        <ele>329</ele>
        <time>2014-06-14T07:25:12Z</time>
      </trkpt>
      <trkpt lat="46.93147" lon="5.78416">
        <ele>330</ele>
        <time>2014-06-14T07:25:27Z</time>
      </trkpt>
      <trkpt lat="46.93099" lon="5.78396">
        <ele>331</ele>
        <time>2014-06-14T07:25:43Z</time>
      </trkpt>
      <trkpt lat="46.93066" lon="5.78378">
        <ele>334</ele>
        <time>2014-06-14T07:25:58Z</time>
      </trkpt>
      <trkpt lat="46.93024" lon="5.78361">
        <ele>335</ele>
        <time>2014-06-14T07:26:14Z</time>
      </trkpt>
      <trkpt lat="46.92987" lon="5.78348">
        <ele>336</ele>
        <time>2014-06-14T07:26:29Z</time>
      </trkpt>
      <trkpt lat="46.92948" lon="5.78328">
        <ele>340</ele>
        <time>2014-06-14T07:26:45Z</time>
      </trkpt>
      <trkpt lat="46.92906" lon="5.7831">
        <ele>342</ele>
        <time>2014-06-14T07:27:01Z</time>
      </trkpt>
      <trkpt lat="46.92868" lon="5.78296">
        <ele>343</ele>
        <time>2014-06-14T07:27:16Z</time>
      </trkpt>
      <trkpt lat="46.92827" lon="5.78294">
        <ele>345</ele>
        <time>2014-06-14T07:27:32Z</time>
      </trkpt>
      <trkpt lat="46.92792" lon="5.78298">
        <ele>346</ele>
        <time>2014-06-14T07:27:47Z</time>
      </trkpt>
      <trkpt lat="46.92777" lon="5.7832">
        <ele>345</ele>
        <time>2014-06-14T07:28:03Z</time>
      </trkpt>
      <trkpt lat="46.92776" lon="5.78318">
        <ele>345</ele>
        <time>2014-06-14T07:28:18Z</time>
      </trkpt>
      <trkpt lat="46.92775" lon="5.78322">
        <ele>345</ele>
        <time>2014-06-14T07:28:34Z</time>
      </trkpt>
      <trkpt lat="46.92775" lon="5.78322">
        <ele>345</ele>
        <time>2014-06-14T07:28:50Z</time>
      </trkpt>
      <trkpt lat="46.92775" lon="5.78322">
        <ele>345</ele>
        <time>2014-06-14T07:29:06Z</time>
      </trkpt>
      <trkpt lat="46.92779" lon="5.78319">
        <ele>345</ele>
        <time>2014-06-14T07:29:22Z</time>
      </trkpt>
      <trkpt lat="46.92781" lon="5.7832">
        <ele>345</ele>
        <time>2014-06-14T07:29:38Z</time>
      </trkpt>
      <trkpt lat="46.92777" lon="5.78322">
        <ele>345</ele>
        <time>2014-06-14T07:29:53Z</time>
      </trkpt>
      <trkpt lat="46.92777" lon="5.78322">
        <ele>345</ele>
        <time>2014-06-14T07:30:08Z</time>
      </trkpt>
      <trkpt lat="46.92779" lon="5.7832">
        <ele>345</ele>
        <time>2014-06-14T07:30:23Z</time>
      </trkpt>
      <trkpt lat="46.92779" lon="5.7832">
        <ele>345</ele>
        <time>2014-06-14T07:30:39Z</time>
      </trkpt>
      <trkpt lat="46.92782" lon="5.78319">
        <ele>345</ele>
        <time>2014-06-14T07:30:55Z</time>
      </trkpt>
      <trkpt lat="46.92783" lon="5.78322">
        <ele>345</ele>
        <time>2014-06-14T07:31:10Z</time>
      </trkpt>
      <trkpt lat="46.92783" lon="5.78322">
        <ele>345</ele>
        <time>2014-06-14T07:31:26Z</time>
      </trkpt>
      <trkpt lat="46.92782" lon="5.78318">
        <ele>345</ele>
        <time>2014-06-14T07:31:41Z</time>
      </trkpt>
      <trkpt lat="46.92782" lon="5.78321">
        <ele>345</ele>
        <time>2014-06-14T07:31:57Z</time>
      </trkpt>
      <trkpt lat="46.92783" lon="5.78321">
        <ele>345</ele>
        <time>2014-06-14T07:32:12Z</time>
      </trkpt>
      <trkpt lat="46.92783" lon="5.78321">
        <ele>345</ele>
        <time>2014-06-14T07:32:28Z</time>
      </trkpt>
      <trkpt lat="46.92786" lon="5.7832">
        <ele>345</ele>
        <time>2014-06-14T07:32:43Z</time>
      </trkpt>
      <trkpt lat="46.92785" lon="5.7832">
        <ele>345</ele>
        <time>2014-06-14T07:32:59Z</time>
      </trkpt>
      <trkpt lat="46.92779" lon="5.78323">
        <ele>345</ele>
        <time>2014-06-14T07:33:15Z</time>
      </trkpt>
      <trkpt lat="46.9278" lon="5.78324">
        <ele>345</ele>
        <time>2014-06-14T07:33:30Z</time>
      </trkpt>
      <trkpt lat="46.92783" lon="5.78323">
        <ele>345</ele>
        <time>2014-06-14T07:33:46Z</time>
      </trkpt>
      <trkpt lat="46.92783" lon="5.78323">
        <ele>345</ele>
        <time>2014-06-14T07:34:02Z</time>
      </trkpt>
      <trkpt lat="46.92783" lon="5.78323">
        <ele>345</ele>
        <time>2014-06-14T07:34:17Z</time>
      </trkpt>
      <trkpt lat="46.92783" lon="5.78322">
        <ele>345</ele>
        <time>2014-06-14T07:34:33Z</time>
      </trkpt>
      <trkpt lat="46.92783" lon="5.78322">
        <ele>345</ele>
        <time>2014-06-14T07:34:49Z</time>
      </trkpt>
      <trkpt lat="46.92782" lon="5.7832">
        <ele>345</ele>
        <time>2014-06-14T07:35:05Z</time>
      </trkpt>
      <trkpt lat="46.92781" lon="5.78322">
        <ele>345</ele>
        <time>2014-06-14T07:35:21Z</time>
      </trkpt>
      <trkpt lat="46.92781" lon="5.78322">
        <ele>345</ele>
        <time>2014-06-14T07:35:37Z</time>
      </trkpt>
      <trkpt lat="46.92781" lon="5.78315">
        <ele>345</ele>
        <time>2014-06-14T07:35:53Z</time>
      </trkpt>
      <trkpt lat="46.9275" lon="5.78309">
        <ele>347</ele>
        <time>2014-06-14T07:36:08Z</time>
      </trkpt>
      <trkpt lat="46.9272" lon="5.78288">
        <ele>348</ele>
        <time>2014-06-14T07:36:23Z</time>
      </trkpt>
      <trkpt lat="46.92695" lon="5.78263">
        <ele>349</ele>
        <time>2014-06-14T07:36:38Z</time>
      </trkpt>
      <trkpt lat="46.92664" lon="5.78232">
        <ele>351</ele>
        <time>2014-06-14T07:36:54Z</time>
      </trkpt>
      <trkpt lat="46.92639" lon="5.78189">
        <ele>351</ele>
        <time>2014-06-14T07:37:09Z</time>
      </trkpt>
      <trkpt lat="46.92593" lon="5.78158">
        <ele>351</ele>
        <time>2014-06-14T07:37:25Z</time>
      </trkpt>
      <trkpt lat="46.92517" lon="5.78163">
        <ele>349</ele>
        <time>2014-06-14T07:37:41Z</time>
      </trkpt>
      <trkpt lat="46.92419" lon="5.78079">
        <ele>347</ele>
        <time>2014-06-14T07:37:57Z</time>
      </trkpt>
      <trkpt lat="46.92376" lon="5.78008">
        <ele>345</ele>
        <time>2014-06-14T07:38:12Z</time>
      </trkpt>
      <trkpt lat="46.92332" lon="5.78068">
        <ele>344</ele>
        <time>2014-06-14T07:38:28Z</time>
      </trkpt>
      <trkpt lat="46.92297" lon="5.78135">
        <ele>347</ele>
        <time>2014-06-14T07:38:43Z</time>
      </trkpt>
      <trkpt lat="46.92254" lon="5.7819">
        <ele>350</ele>
        <time>2014-06-14T07:38:59Z</time>
      </trkpt>
      <trkpt lat="46.92199" lon="5.78237">
        <ele>347</ele>
        <time>2014-06-14T07:39:15Z</time>
      </trkpt>
      <trkpt lat="46.92104" lon="5.78247">
        <ele>348</ele>
        <time>2014-06-14T07:39:30Z</time>
      </trkpt>
      <trkpt lat="46.92006" lon="5.78181">
        <ele>351</ele>
        <time>2014-06-14T07:39:46Z</time>
      </trkpt>
      <trkpt lat="46.91921" lon="5.78153">
        <ele>349</ele>
        <time>2014-06-14T07:40:02Z</time>
      </trkpt>
      <trkpt lat="46.91866" lon="5.78148">
        <ele>354</ele>
        <time>2014-06-14T07:40:18Z</time>
      </trkpt>
      <trkpt lat="46.91816" lon="5.78147">
        <ele>358</ele>
        <time>2014-06-14T07:40:34Z</time>
      </trkpt>
      <trkpt lat="46.91774" lon="5.78155">
        <ele>358</ele>
        <time>2014-06-14T07:40:49Z</time>
      </trkpt>
      <trkpt lat="46.91734" lon="5.78162">
        <ele>361</ele>
        <time>2014-06-14T07:41:04Z</time>
      </trkpt>
      <trkpt lat="46.91694" lon="5.78177">
        <ele>369</ele>
        <time>2014-06-14T07:41:20Z</time>
      </trkpt>
      <trkpt lat="46.91652" lon="5.78192">
        <ele>369</ele>
        <time>2014-06-14T07:41:35Z</time>
      </trkpt>
      <trkpt lat="46.91611" lon="5.78205">
        <ele>370</ele>
        <time>2014-06-14T07:41:51Z</time>
      </trkpt>
      <trkpt lat="46.91577" lon="5.78226">
        <ele>368</ele>
        <time>2014-06-14T07:42:07Z</time>
      </trkpt>
      <trkpt lat="46.91574" lon="5.78229">
        <ele>369</ele>
        <time>2014-06-14T07:42:22Z</time>
      </trkpt>
      <trkpt lat="46.91574" lon="5.78229">
        <ele>369</ele>
        <time>2014-06-14T07:42:38Z</time>
      </trkpt>
      <trkpt lat="46.91574" lon="5.78229">
        <ele>369</ele>
        <time>2014-06-14T07:42:54Z</time>
      </trkpt>
      <trkpt lat="46.91574" lon="5.78229">
        <ele>369</ele>
        <time>2014-06-14T07:43:09Z</time>
      </trkpt>
      <trkpt lat="46.91575" lon="5.78229">
        <ele>369</ele>
        <time>2014-06-14T07:43:25Z</time>
      </trkpt>
      <trkpt lat="46.91577" lon="5.7823">
        <ele>369</ele>
        <time>2014-06-14T07:43:41Z</time>
      </trkpt>
      <trkpt lat="46.91578" lon="5.78228">
        <ele>369</ele>
        <time>2014-06-14T07:43:57Z</time>
      </trkpt>
      <trkpt lat="46.91578" lon="5.78227">
        <ele>369</ele>
        <time>2014-06-14T07:44:12Z</time>
      </trkpt>
      <trkpt lat="46.91578" lon="5.78227">
        <ele>369</ele>
        <time>2014-06-14T07:44:28Z</time>
      </trkpt>
      <trkpt lat="46.91578" lon="5.78227">
        <ele>369</ele>
        <time>2014-06-14T07:44:44Z</time>
      </trkpt>
      <trkpt lat="46.91578" lon="5.78227">
        <ele>369</ele>
        <time>2014-06-14T07:45:00Z</time>
      </trkpt>
      <trkpt lat="46.91577" lon="5.78228">
        <ele>369</ele>
        <time>2014-06-14T07:45:16Z</time>
      </trkpt>
      <trkpt lat="46.91578" lon="5.78227">
        <ele>369</ele>
        <time>2014-06-14T07:45:32Z</time>
      </trkpt>
      <trkpt lat="46.91553" lon="5.78286">
        <ele>369</ele>
        <time>2014-06-14T07:45:47Z</time>
      </trkpt>
      <trkpt lat="46.91507" lon="5.7847">
        <ele>377</ele>
        <time>2014-06-14T07:46:03Z</time>
      </trkpt>
      <trkpt lat="46.91458" lon="5.78461">
        <ele>367</ele>
        <time>2014-06-14T07:46:18Z</time>
      </trkpt>
      <trkpt lat="46.91397" lon="5.78264">
        <ele>357</ele>
        <time>2014-06-14T07:46:33Z</time>
      </trkpt>
      <trkpt lat="46.91399" lon="5.78262">
        <ele>357</ele>
        <time>2014-06-14T07:46:49Z</time>
      </trkpt>
      <trkpt lat="46.91398" lon="5.78263">
        <ele>357</ele>
        <time>2014-06-14T07:47:05Z</time>
      </trkpt>
      <trkpt lat="46.91398" lon="5.78263">
        <ele>357</ele>
        <time>2014-06-14T07:47:21Z</time>
      </trkpt>
      <trkpt lat="46.91398" lon="5.78263">
        <ele>357</ele>
        <time>2014-06-14T07:47:36Z</time>
      </trkpt>
      <trkpt lat="46.91399" lon="5.78262">
        <ele>356</ele>
        <time>2014-06-14T07:47:51Z</time>
      </trkpt>
      <trkpt lat="46.91399" lon="5.78262">
        <ele>356</ele>
        <time>2014-06-14T07:48:07Z</time>
      </trkpt>
      <trkpt lat="46.91397" lon="5.78264">
        <ele>357</ele>
        <time>2014-06-14T07:48:23Z</time>
      </trkpt>
      <trkpt lat="46.91398" lon="5.78263">
        <ele>357</ele>
        <time>2014-06-14T07:48:38Z</time>
      </trkpt>
      <trkpt lat="46.91398" lon="5.78233">
        <ele>355</ele>
        <time>2014-06-14T07:48:54Z</time>
      </trkpt>
      <trkpt lat="46.91323" lon="5.78156">
        <ele>351</ele>
        <time>2014-06-14T07:49:09Z</time>
      </trkpt>
      <trkpt lat="46.91162" lon="5.78138">
        <ele>343</ele>
        <time>2014-06-14T07:49:25Z</time>
      </trkpt>
      <trkpt lat="46.91001" lon="5.7807">
        <ele>332</ele>
        <time>2014-06-14T07:49:41Z</time>
      </trkpt>
      <trkpt lat="46.9084" lon="5.77965">
        <ele>314</ele>
        <time>2014-06-14T07:49:57Z</time>
      </trkpt>
      <trkpt lat="46.90681" lon="5.7794">
        <ele>304</ele>
        <time>2014-06-14T07:50:13Z</time>
      </trkpt>
      <trkpt lat="46.90593" lon="5.77741">
        <ele>296</ele>
        <time>2014-06-14T07:50:29Z</time>
      </trkpt>
      <trkpt lat="46.90527" lon="5.77543">
        <ele>298</ele>
        <time>2014-06-14T07:50:44Z</time>
      </trkpt>
      <trkpt lat="46.90459" lon="5.7745">
        <ele>299</ele>
        <time>2014-06-14T07:51:00Z</time>
      </trkpt>
      <trkpt lat="46.90402" lon="5.77381">
        <ele>295</ele>
        <time>2014-06-14T07:51:16Z</time>
      </trkpt>
      <trkpt lat="46.90405" lon="5.7737">
        <ele>295</ele>
        <time>2014-06-14T07:51:31Z</time>
      </trkpt>
      <trkpt lat="46.90405" lon="5.7737">
        <ele>295</ele>
        <time>2014-06-14T07:51:46Z</time>
      </trkpt>
      <trkpt lat="46.90406" lon="5.7737">
        <ele>295</ele>
        <time>2014-06-14T07:52:02Z</time>
      </trkpt>
      <trkpt lat="46.90405" lon="5.7737">
        <ele>295</ele>
        <time>2014-06-14T07:52:18Z</time>
      </trkpt>
      <trkpt lat="46.90405" lon="5.7737">
        <ele>295</ele>
        <time>2014-06-14T07:52:34Z</time>
      </trkpt>
      <trkpt lat="46.90405" lon="5.7737">
        <ele>295</ele>
        <time>2014-06-14T07:52:49Z</time>
      </trkpt>
      <trkpt lat="46.90415" lon="5.77338">
        <ele>294</ele>
        <time>2014-06-14T07:53:04Z</time>
      </trkpt>
      <trkpt lat="46.9047" lon="5.77208">
        <ele>290</ele>
        <time>2014-06-14T07:53:20Z</time>
      </trkpt>
      <trkpt lat="46.90436" lon="5.77133">
        <ele>287</ele>
        <time>2014-06-14T07:53:35Z</time>
      </trkpt>
      <trkpt lat="46.905" lon="5.77075">
        <ele>284</ele>
        <time>2014-06-14T07:53:50Z</time>
      </trkpt>
      <trkpt lat="46.90581" lon="5.76993">
        <ele>279</ele>
        <time>2014-06-14T07:54:06Z</time>
      </trkpt>
      <trkpt lat="46.90626" lon="5.76962">
        <ele>277</ele>
        <time>2014-06-14T07:54:21Z</time>
      </trkpt>
      <trkpt lat="46.90702" lon="5.76947">
        <ele>276</ele>
        <time>2014-06-14T07:54:37Z</time>
      </trkpt>
      <trkpt lat="46.90767" lon="5.76942">
        <ele>275</ele>
        <time>2014-06-14T07:54:52Z</time>
      </trkpt>
      <trkpt lat="46.90833" lon="5.76926">
        <ele>275</ele>
        <time>2014-06-14T07:55:08Z</time>
      </trkpt>
      <trkpt lat="46.90891" lon="5.76896">
        <ele>274</ele>
        <time>2014-06-14T07:55:23Z</time>
      </trkpt>
      <trkpt lat="46.90938" lon="5.76852">
        <ele>271</ele>
        <time>2014-06-14T07:55:38Z</time>
      </trkpt>
      <trkpt lat="46.90986" lon="5.76742">
        <ele>272</ele>
        <time>2014-06-14T07:55:54Z</time>
      </trkpt>
      <trkpt lat="46.91028" lon="5.76648">
        <ele>272</ele>
        <time>2014-06-14T07:56:10Z</time>
      </trkpt>
      <trkpt lat="46.91067" lon="5.76563">
        <ele>275</ele>
        <time>2014-06-14T07:56:25Z</time>
      </trkpt>
      <trkpt lat="46.91108" lon="5.76479">
        <ele>273</ele>
        <time>2014-06-14T07:56:41Z</time>
      </trkpt>
      <trkpt lat="46.91152" lon="5.76394">
        <ele>276</ele>
        <time>2014-06-14T07:56:57Z</time>
      </trkpt>
      <trkpt lat="46.91193" lon="5.76309">
        <ele>273</ele>
        <time>2014-06-14T07:57:13Z</time>
      </trkpt>
      <trkpt lat="46.91235" lon="5.76224">
        <ele>272</ele>
        <time>2014-06-14T07:57:28Z</time>
      </trkpt>
      <trkpt lat="46.91278" lon="5.76109">
        <ele>267</ele>
        <time>2014-06-14T07:57:43Z</time>
      </trkpt>
      <trkpt lat="46.91331" lon="5.75974">
        <ele>268</ele>
        <time>2014-06-14T07:57:59Z</time>
      </trkpt>
      <trkpt lat="46.91369" lon="5.75851">
        <ele>266</ele>
        <time>2014-06-14T07:58:14Z</time>
      </trkpt>
      <trkpt lat="46.91423" lon="5.75737">
        <ele>264</ele>
        <time>2014-06-14T07:58:30Z</time>
      </trkpt>
      <trkpt lat="46.91497" lon="5.75671">
        <ele>262</ele>
        <time>2014-06-14T07:58:46Z</time>
      </trkpt>
      <trkpt lat="46.91561" lon="5.75605">
        <ele>263</ele>
        <time>2014-06-14T07:59:02Z</time>
      </trkpt>
      <trkpt lat="46.91579" lon="5.7549">
        <ele>264</ele>
        <time>2014-06-14T07:59:17Z</time>
      </trkpt>
      <trkpt lat="46.91576" lon="5.75341">
        <ele>262</ele>
        <time>2014-06-14T07:59:33Z</time>
      </trkpt>
      <trkpt lat="46.91578" lon="5.75194">
        <ele>262</ele>
        <time>2014-06-14T07:59:49Z</time>
      </trkpt>
      <trkpt lat="46.91582" lon="5.75047">
        <ele>265</ele>
        <time>2014-06-14T08:00:05Z</time>
      </trkpt>
      <trkpt lat="46.91587" lon="5.7495">
        <ele>258</ele>
        <time>2014-06-14T08:00:20Z</time>
      </trkpt>
      <trkpt lat="46.91604" lon="5.74805">
        <ele>257</ele>
        <time>2014-06-14T08:00:36Z</time>
      </trkpt>
      <trkpt lat="46.91624" lon="5.74661">
        <ele>257</ele>
        <time>2014-06-14T08:00:52Z</time>
      </trkpt>
      <trkpt lat="46.91641" lon="5.74544">
        <ele>256</ele>
        <time>2014-06-14T08:01:07Z</time>
      </trkpt>
      <trkpt lat="46.91653" lon="5.74449">
        <ele>256</ele>
        <time>2014-06-14T08:01:23Z</time>
      </trkpt>
      <trkpt lat="46.91643" lon="5.74359">
        <ele>257</ele>
        <time>2014-06-14T08:01:38Z</time>
      </trkpt>
      <trkpt lat="46.91619" lon="5.74273">
        <ele>258</ele>
        <time>2014-06-14T08:01:54Z</time>
      </trkpt>
      <trkpt lat="46.91592" lon="5.74191">
        <ele>259</ele>
        <time>2014-06-14T08:02:10Z</time>
      </trkpt>
      <trkpt lat="46.91587" lon="5.74106">
        <ele>258</ele>
        <time>2014-06-14T08:02:26Z</time>
      </trkpt>
      <trkpt lat="46.91593" lon="5.74005">
        <ele>257</ele>
        <time>2014-06-14T08:02:41Z</time>
      </trkpt>
      <trkpt lat="46.91595" lon="5.73903">
        <ele>257</ele>
        <time>2014-06-14T08:02:56Z</time>
      </trkpt>
      <trkpt lat="46.91578" lon="5.73802">
        <ele>257</ele>
        <time>2014-06-14T08:03:11Z</time>
      </trkpt>
      <trkpt lat="46.91562" lon="5.73697">
        <ele>257</ele>
        <time>2014-06-14T08:03:27Z</time>
      </trkpt>
      <trkpt lat="46.91548" lon="5.73582">
        <ele>257</ele>
        <time>2014-06-14T08:03:42Z</time>
      </trkpt>
      <trkpt lat="46.91529" lon="5.73465">
        <ele>256</ele>
        <time>2014-06-14T08:03:58Z</time>
      </trkpt>
      <trkpt lat="46.9149" lon="5.73386">
        <ele>258</ele>
        <time>2014-06-14T08:04:13Z</time>
      </trkpt>
      <trkpt lat="46.91429" lon="5.73363">
        <ele>259</ele>
        <time>2014-06-14T08:04:29Z</time>
      </trkpt>
      <trkpt lat="46.91375" lon="5.73349">
        <ele>262</ele>
        <time>2014-06-14T08:04:44Z</time>
      </trkpt>
      <trkpt lat="46.91324" lon="5.73342">
        <ele>265</ele>
        <time>2014-06-14T08:05:00Z</time>
      </trkpt>
      <trkpt lat="46.91292" lon="5.73319">
        <ele>267</ele>
        <time>2014-06-14T08:05:15Z</time>
      </trkpt>
      <trkpt lat="46.91256" lon="5.73283">
        <ele>268</ele>
        <time>2014-06-14T08:05:30Z</time>
      </trkpt>
      <trkpt lat="46.91216" lon="5.73252">
        <ele>272</ele>
        <time>2014-06-14T08:05:46Z</time>
      </trkpt>
      <trkpt lat="46.9119" lon="5.73207">
        <ele>272</ele>
        <time>2014-06-14T08:06:02Z</time>
      </trkpt>
      <trkpt lat="46.91159" lon="5.73156">
        <ele>273</ele>
        <time>2014-06-14T08:06:18Z</time>
      </trkpt>
      <trkpt lat="46.91115" lon="5.73121">
        <ele>272</ele>
        <time>2014-06-14T08:06:34Z</time>
      </trkpt>
      <trkpt lat="46.91049" lon="5.73069">
        <ele>271</ele>
        <time>2014-06-14T08:06:49Z</time>
      </trkpt>
      <trkpt lat="46.90965" lon="5.72944">
        <ele>269</ele>
        <time>2014-06-14T08:07:05Z</time>
      </trkpt>
      <trkpt lat="46.90893" lon="5.72851">
        <ele>271</ele>
        <time>2014-06-14T08:07:21Z</time>
      </trkpt>
      <trkpt lat="46.9083" lon="5.72808">
        <ele>271</ele>
        <time>2014-06-14T08:07:36Z</time>
      </trkpt>
      <trkpt lat="46.90771" lon="5.72755">
        <ele>271</ele>
        <time>2014-06-14T08:07:52Z</time>
      </trkpt>
      <trkpt lat="46.9075" lon="5.72722">
        <ele>270</ele>
        <time>2014-06-14T08:08:08Z</time>
      </trkpt>
      <trkpt lat="46.90751" lon="5.72725">
        <ele>270</ele>
        <time>2014-06-14T08:08:24Z</time>
      </trkpt>
      <trkpt lat="46.90751" lon="5.72725">
        <ele>270</ele>
        <time>2014-06-14T08:08:40Z</time>
      </trkpt>
      <trkpt lat="46.90751" lon="5.72725">
        <ele>270</ele>
        <time>2014-06-14T08:08:56Z</time>
      </trkpt>
      <trkpt lat="46.90751" lon="5.72725">
        <ele>270</ele>
        <time>2014-06-14T08:09:11Z</time>
      </trkpt>
      <trkpt lat="46.9075" lon="5.72727">
        <ele>270</ele>
        <time>2014-06-14T08:09:27Z</time>
      </trkpt>
      <trkpt lat="46.9075" lon="5.72727">
        <ele>270</ele>
        <time>2014-06-14T08:09:42Z</time>
      </trkpt>
      <trkpt lat="46.9075" lon="5.72727">
        <ele>270</ele>
        <time>2014-06-14T08:09:58Z</time>
      </trkpt>
      <trkpt lat="46.90745" lon="5.72723">
        <ele>270</ele>
        <time>2014-06-14T08:10:13Z</time>
      </trkpt>
      <trkpt lat="46.90748" lon="5.72727">
        <ele>270</ele>
        <time>2014-06-14T08:10:28Z</time>
      </trkpt>
      <trkpt lat="46.9075" lon="5.72728">
        <ele>270</ele>
        <time>2014-06-14T08:10:43Z</time>
      </trkpt>
      <trkpt lat="46.90748" lon="5.72727">
        <ele>270</ele>
        <time>2014-06-14T08:10:59Z</time>
      </trkpt>
      <trkpt lat="46.90748" lon="5.72727">
        <ele>270</ele>
        <time>2014-06-14T08:11:15Z</time>
      </trkpt>
      <trkpt lat="46.90748" lon="5.72727">
        <ele>270</ele>
        <time>2014-06-14T08:11:30Z</time>
      </trkpt>
      <trkpt lat="46.90748" lon="5.72727">
        <ele>270</ele>
        <time>2014-06-14T08:11:46Z</time>
      </trkpt>
      <trkpt lat="46.90748" lon="5.72729">
        <ele>270</ele>
        <time>2014-06-14T08:12:01Z</time>
      </trkpt>
      <trkpt lat="46.90748" lon="5.72729">
        <ele>270</ele>
        <time>2014-06-14T08:12:17Z</time>
      </trkpt>
      <trkpt lat="46.90749" lon="5.72727">
        <ele>270</ele>
        <time>2014-06-14T08:12:33Z</time>
      </trkpt>
      <trkpt lat="46.90749" lon="5.72727">
        <ele>270</ele>
        <time>2014-06-14T08:12:48Z</time>
      </trkpt>
      <trkpt lat="46.90749" lon="5.72727">
        <ele>270</ele>
        <time>2014-06-14T08:13:04Z</time>
      </trkpt>
      <trkpt lat="46.90749" lon="5.72727">
        <ele>270</ele>
        <time>2014-06-14T08:13:19Z</time>
      </trkpt>
      <trkpt lat="46.90749" lon="5.72727">
        <ele>270</ele>
        <time>2014-06-14T08:13:35Z</time>
      </trkpt>
      <trkpt lat="46.90749" lon="5.72727">
        <ele>270</ele>
        <time>2014-06-14T08:13:50Z</time>
      </trkpt>
      <trkpt lat="46.90749" lon="5.72727">
        <ele>270</ele>
        <time>2014-06-14T08:14:06Z</time>
      </trkpt>
      <trkpt lat="46.90749" lon="5.72727">
        <ele>270</ele>
        <time>2014-06-14T08:14:22Z</time>
      </trkpt>
      <trkpt lat="46.90747" lon="5.72714">
        <ele>270</ele>
        <time>2014-06-14T08:14:38Z</time>
      </trkpt>
      <trkpt lat="46.90705" lon="5.72635">
        <ele>269</ele>
        <time>2014-06-14T08:14:54Z</time>
      </trkpt>
      <trkpt lat="46.90641" lon="5.72522">
        <ele>265</ele>
        <time>2014-06-14T08:15:10Z</time>
      </trkpt>
      <trkpt lat="46.90562" lon="5.72401">
        <ele>262</ele>
        <time>2014-06-14T08:15:26Z</time>
      </trkpt>
      <trkpt lat="46.90481" lon="5.72293">
        <ele>263</ele>
        <time>2014-06-14T08:15:42Z</time>
      </trkpt>
      <trkpt lat="46.90421" lon="5.72221">
        <ele>264</ele>
        <time>2014-06-14T08:15:58Z</time>
      </trkpt>
      <trkpt lat="46.9037" lon="5.7217">
        <ele>266</ele>
        <time>2014-06-14T08:16:13Z</time>
      </trkpt>
      <trkpt lat="46.90332" lon="5.72129">
        <ele>267</ele>
        <time>2014-06-14T08:16:29Z</time>
      </trkpt>
      <trkpt lat="46.90289" lon="5.72063">
        <ele>267</ele>
        <time>2014-06-14T08:16:45Z</time>
      </trkpt>
      <trkpt lat="46.90239" lon="5.71984">
        <ele>268</ele>
        <time>2014-06-14T08:17:00Z</time>
      </trkpt>
      <trkpt lat="46.90205" lon="5.71894">
        <ele>267</ele>
        <time>2014-06-14T08:17:16Z</time>
      </trkpt>
      <trkpt lat="46.90174" lon="5.71788">
        <ele>265</ele>
        <time>2014-06-14T08:17:32Z</time>
      </trkpt>
      <trkpt lat="46.90158" lon="5.71637">
        <ele>264</ele>
        <time>2014-06-14T08:17:47Z</time>
      </trkpt>
      <trkpt lat="46.90113" lon="5.71542">
        <ele>267</ele>
        <time>2014-06-14T08:18:03Z</time>
      </trkpt>
      <trkpt lat="46.90078" lon="5.71462">
        <ele>269</ele>
        <time>2014-06-14T08:18:19Z</time>
      </trkpt>
      <trkpt lat="46.90036" lon="5.71385">
        <ele>270</ele>
        <time>2014-06-14T08:18:34Z</time>
      </trkpt>
      <trkpt lat="46.90008" lon="5.71308">
        <ele>270</ele>
        <time>2014-06-14T08:18:50Z</time>
      </trkpt>
      <trkpt lat="46.89975" lon="5.71234">
        <ele>271</ele>
        <time>2014-06-14T08:19:06Z</time>
      </trkpt>
      <trkpt lat="46.89954" lon="5.71151">
        <ele>272</ele>
        <time>2014-06-14T08:19:22Z</time>
      </trkpt>
      <trkpt lat="46.89956" lon="5.71072">
        <ele>273</ele>
        <time>2014-06-14T08:19:38Z</time>
      </trkpt>
      <trkpt lat="46.89952" lon="5.71001">
        <ele>273</ele>
        <time>2014-06-14T08:19:54Z</time>
      </trkpt>
      <trkpt lat="46.89926" lon="5.70953">
        <ele>274</ele>
        <time>2014-06-14T08:20:10Z</time>
      </trkpt>
      <trkpt lat="46.89926" lon="5.70952">
        <ele>274</ele>
        <time>2014-06-14T08:20:25Z</time>
      </trkpt>
      <trkpt lat="46.89926" lon="5.70952">
        <ele>274</ele>
        <time>2014-06-14T08:20:40Z</time>
      </trkpt>
      <trkpt lat="46.89926" lon="5.70952">
        <ele>274</ele>
        <time>2014-06-14T08:20:56Z</time>
      </trkpt>
      <trkpt lat="46.89926" lon="5.70952">
        <ele>274</ele>
        <time>2014-06-14T08:21:11Z</time>
      </trkpt>
      <trkpt lat="46.89926" lon="5.70952">
        <ele>274</ele>
        <time>2014-06-14T08:21:27Z</time>
      </trkpt>
      <trkpt lat="46.89926" lon="5.70952">
        <ele>274</ele>
        <time>2014-06-14T08:21:43Z</time>
      </trkpt>
      <trkpt lat="46.89926" lon="5.70952">
        <ele>274</ele>
        <time>2014-06-14T08:21:58Z</time>
      </trkpt>
      <trkpt lat="46.89926" lon="5.70952">
        <ele>274</ele>
        <time>2014-06-14T08:22:13Z</time>
      </trkpt>
      <trkpt lat="46.89926" lon="5.70952">
        <ele>274</ele>
        <time>2014-06-14T08:22:29Z</time>
      </trkpt>
      <trkpt lat="46.89899" lon="5.70925">
        <ele>274</ele>
        <time>2014-06-14T08:22:44Z</time>
      </trkpt>
      <trkpt lat="46.89846" lon="5.70837">
        <ele>274</ele>
        <time>2014-06-14T08:23:00Z</time>
      </trkpt>
      <trkpt lat="46.89829" lon="5.7075">
        <ele>272</ele>
        <time>2014-06-14T08:23:15Z</time>
      </trkpt>
      <trkpt lat="46.89755" lon="5.70664">
        <ele>269</ele>
        <time>2014-06-14T08:23:31Z</time>
      </trkpt>
      <trkpt lat="46.89664" lon="5.70569">
        <ele>266</ele>
        <time>2014-06-14T08:23:46Z</time>
      </trkpt>
      <trkpt lat="46.89575" lon="5.70481">
        <ele>269</ele>
        <time>2014-06-14T08:24:01Z</time>
      </trkpt>
      <trkpt lat="46.89521" lon="5.70401">
        <ele>271</ele>
        <time>2014-06-14T08:24:17Z</time>
      </trkpt>
      <trkpt lat="46.89478" lon="5.70334">
        <ele>273</ele>
        <time>2014-06-14T08:24:32Z</time>
      </trkpt>
      <trkpt lat="46.89433" lon="5.70264">
        <ele>272</ele>
        <time>2014-06-14T08:24:48Z</time>
      </trkpt>
      <trkpt lat="46.89381" lon="5.70189">
        <ele>271</ele>
        <time>2014-06-14T08:25:03Z</time>
      </trkpt>
      <trkpt lat="46.89276" lon="5.70078">
        <ele>267</ele>
        <time>2014-06-14T08:25:19Z</time>
      </trkpt>
      <trkpt lat="46.89204" lon="5.69975">
        <ele>261</ele>
        <time>2014-06-14T08:25:34Z</time>
      </trkpt>
      <trkpt lat="46.89115" lon="5.6995">
        <ele>259</ele>
        <time>2014-06-14T08:25:50Z</time>
      </trkpt>
      <trkpt lat="46.8905" lon="5.70039">
        <ele>261</ele>
        <time>2014-06-14T08:26:05Z</time>
      </trkpt>
      <trkpt lat="46.89005" lon="5.7006">
        <ele>261</ele>
        <time>2014-06-14T08:26:20Z</time>
      </trkpt>
      <trkpt lat="46.88959" lon="5.69973">
        <ele>259</ele>
        <time>2014-06-14T08:26:36Z</time>
      </trkpt>
      <trkpt lat="46.88934" lon="5.69898">
        <ele>259</ele>
        <time>2014-06-14T08:26:51Z</time>
      </trkpt>
      <trkpt lat="46.88904" lon="5.69832">
        <ele>260</ele>
        <time>2014-06-14T08:27:06Z</time>
      </trkpt>
      <trkpt lat="46.88893" lon="5.6974">
        <ele>260</ele>
        <time>2014-06-14T08:27:22Z</time>
      </trkpt>
      <trkpt lat="46.88921" lon="5.69683">
        <ele>260</ele>
        <time>2014-06-14T08:27:37Z</time>
      </trkpt>
      <trkpt lat="46.88916" lon="5.6962">
        <ele>261</ele>
        <time>2014-06-14T08:27:52Z</time>
      </trkpt>
      <trkpt lat="46.8888" lon="5.69553">
        <ele>262</ele>
        <time>2014-06-14T08:28:08Z</time>
      </trkpt>
      <trkpt lat="46.88839" lon="5.69489">
        <ele>264</ele>
        <time>2014-06-14T08:28:24Z</time>
      </trkpt>
      <trkpt lat="46.88802" lon="5.69466">
        <ele>265</ele>
        <time>2014-06-14T08:28:39Z</time>
      </trkpt>
      <trkpt lat="46.88762" lon="5.69442">
        <ele>266</ele>
        <time>2014-06-14T08:28:55Z</time>
      </trkpt>
      <trkpt lat="46.88727" lon="5.69415">
        <ele>270</ele>
        <time>2014-06-14T08:29:11Z</time>
      </trkpt>
      <trkpt lat="46.887" lon="5.69386">
        <ele>273</ele>
        <time>2014-06-14T08:29:26Z</time>
      </trkpt>
      <trkpt lat="46.88677" lon="5.69353">
        <ele>273</ele>
        <time>2014-06-14T08:29:42Z</time>
      </trkpt>
      <trkpt lat="46.88649" lon="5.69331">
        <ele>276</ele>
        <time>2014-06-14T08:29:58Z</time>
      </trkpt>
      <trkpt lat="46.88621" lon="5.69319">
        <ele>278</ele>
        <time>2014-06-14T08:30:14Z</time>
      </trkpt>
      <trkpt lat="46.88595" lon="5.69313">
        <ele>279</ele>
        <time>2014-06-14T08:30:29Z</time>
      </trkpt>
      <trkpt lat="46.88563" lon="5.69321">
        <ele>282</ele>
        <time>2014-06-14T08:30:44Z</time>
      </trkpt>
      <trkpt lat="46.88523" lon="5.69343">
        <ele>284</ele>
        <time>2014-06-14T08:31:00Z</time>
      </trkpt>
      <trkpt lat="46.88496" lon="5.69375">
        <ele>288</ele>
        <time>2014-06-14T08:31:15Z</time>
      </trkpt>
      <trkpt lat="46.88469" lon="5.69402">
        <ele>288</ele>
        <time>2014-06-14T08:31:31Z</time>
      </trkpt>
      <trkpt lat="46.8844" lon="5.69416">
        <ele>289</ele>
        <time>2014-06-14T08:31:47Z</time>
      </trkpt>
      <trkpt lat="46.88416" lon="5.69417">
        <ele>289</ele>
        <time>2014-06-14T08:32:03Z</time>
      </trkpt>
      <trkpt lat="46.8842" lon="5.6942">
        <ele>289</ele>
        <time>2014-06-14T08:32:18Z</time>
      </trkpt>
      <trkpt lat="46.88413" lon="5.69427">
        <ele>289</ele>
        <time>2014-06-14T08:32:33Z</time>
      </trkpt>
      <trkpt lat="46.88413" lon="5.69427">
        <ele>289</ele>
        <time>2014-06-14T08:32:49Z</time>
      </trkpt>
      <trkpt lat="46.88414" lon="5.69427">
        <ele>289</ele>
        <time>2014-06-14T08:33:05Z</time>
      </trkpt>
      <trkpt lat="46.88414" lon="5.69427">
        <ele>289</ele>
        <time>2014-06-14T08:33:21Z</time>
      </trkpt>
      <trkpt lat="46.88414" lon="5.69427">
        <ele>289</ele>
        <time>2014-06-14T08:33:36Z</time>
      </trkpt>
      <trkpt lat="46.88414" lon="5.69427">
        <ele>289</ele>
        <time>2014-06-14T08:33:52Z</time>
      </trkpt>
      <trkpt lat="46.88414" lon="5.69427">
        <ele>289</ele>
        <time>2014-06-14T08:34:07Z</time>
      </trkpt>
      <trkpt lat="46.88414" lon="5.69427">
        <ele>289</ele>
        <time>2014-06-14T08:34:23Z</time>
      </trkpt>
      <trkpt lat="46.88414" lon="5.69427">
        <ele>289</ele>
        <time>2014-06-14T08:34:38Z</time>
      </trkpt>
      <trkpt lat="46.88414" lon="5.69427">
        <ele>289</ele>
        <time>2014-06-14T08:34:54Z</time>
      </trkpt>
      <trkpt lat="46.88414" lon="5.69427">
        <ele>289</ele>
        <time>2014-06-14T08:35:09Z</time>
      </trkpt>
      <trkpt lat="46.88414" lon="5.69427">
        <ele>289</ele>
        <time>2014-06-14T08:35:24Z</time>
      </trkpt>
      <trkpt lat="46.88414" lon="5.69427">
        <ele>289</ele>
        <time>2014-06-14T08:35:40Z</time>
      </trkpt>
      <trkpt lat="46.88414" lon="5.69427">
        <ele>289</ele>
        <time>2014-06-14T08:35:56Z</time>
      </trkpt>
      <trkpt lat="46.88414" lon="5.69427">
        <ele>289</ele>
        <time>2014-06-14T08:36:11Z</time>
      </trkpt>
      <trkpt lat="46.88414" lon="5.69427">
        <ele>289</ele>
        <time>2014-06-14T08:36:26Z</time>
      </trkpt>
      <trkpt lat="46.88414" lon="5.69427">
        <ele>289</ele>
        <time>2014-06-14T08:36:42Z</time>
      </trkpt>
      <trkpt lat="46.88414" lon="5.69427">
        <ele>289</ele>
        <time>2014-06-14T08:36:57Z</time>
      </trkpt>
      <trkpt lat="46.88414" lon="5.69427">
        <ele>289</ele>
        <time>2014-06-14T08:37:13Z</time>
      </trkpt>
      <trkpt lat="46.88414" lon="5.69427">
        <ele>289</ele>
        <time>2014-06-14T08:37:29Z</time>
      </trkpt>
      <trkpt lat="46.88414" lon="5.69427">
        <ele>289</ele>
        <time>2014-06-14T08:37:44Z</time>
      </trkpt>
      <trkpt lat="46.88414" lon="5.69427">
        <ele>289</ele>
        <time>2014-06-14T08:38:00Z</time>
      </trkpt>
      <trkpt lat="46.88414" lon="5.69427">
        <ele>289</ele>
        <time>2014-06-14T08:38:15Z</time>
      </trkpt>
      <trkpt lat="46.88414" lon="5.69427">
        <ele>289</ele>
        <time>2014-06-14T08:38:30Z</time>
      </trkpt>
      <trkpt lat="46.88414" lon="5.69427">
        <ele>289</ele>
        <time>2014-06-14T08:38:46Z</time>
      </trkpt>
      <trkpt lat="46.88414" lon="5.69427">
        <ele>289</ele>
        <time>2014-06-14T08:39:01Z</time>
      </trkpt>
      <trkpt lat="46.88414" lon="5.69427">
        <ele>289</ele>
        <time>2014-06-14T08:39:16Z</time>
      </trkpt>
      <trkpt lat="46.88413" lon="5.69425">
        <ele>289</ele>
        <time>2014-06-14T08:39:32Z</time>
      </trkpt>
      <trkpt lat="46.88399" lon="5.69439">
        <ele>288</ele>
        <time>2014-06-14T08:39:48Z</time>
      </trkpt>
      <trkpt lat="46.88353" lon="5.69455">
        <ele>288</ele>
        <time>2014-06-14T08:40:04Z</time>
      </trkpt>
      <trkpt lat="46.88258" lon="5.69464">
        <ele>285</ele>
        <time>2014-06-14T08:40:20Z</time>
      </trkpt>
      <trkpt lat="46.88144" lon="5.69486">
        <ele>284</ele>
        <time>2014-06-14T08:40:36Z</time>
      </trkpt>
      <trkpt lat="46.88055" lon="5.69454">
        <ele>286</ele>
        <time>2014-06-14T08:40:52Z</time>
      </trkpt>
      <trkpt lat="46.8799" lon="5.69376">
        <ele>286</ele>
        <time>2014-06-14T08:41:08Z</time>
      </trkpt>
      <trkpt lat="46.87926" lon="5.69326">
        <ele>285</ele>
        <time>2014-06-14T08:41:23Z</time>
      </trkpt>
      <trkpt lat="46.87828" lon="5.69261">
        <ele>283</ele>
        <time>2014-06-14T08:41:39Z</time>
      </trkpt>
      <trkpt lat="46.87735" lon="5.69065">
        <ele>274</ele>
        <time>2014-06-14T08:41:55Z</time>
      </trkpt>
      <trkpt lat="46.87633" lon="5.69055">
        <ele>279</ele>
        <time>2014-06-14T08:42:11Z</time>
      </trkpt>
      <trkpt lat="46.87587" lon="5.69109">
        <ele>284</ele>
        <time>2014-06-14T08:42:27Z</time>
      </trkpt>
      <trkpt lat="46.87558" lon="5.69142">
        <ele>291</ele>
        <time>2014-06-14T08:42:42Z</time>
      </trkpt>
      <trkpt lat="46.8753" lon="5.69175">
        <ele>293</ele>
        <time>2014-06-14T08:42:57Z</time>
      </trkpt>
      <trkpt lat="46.87502" lon="5.69203">
        <ele>293</ele>
        <time>2014-06-14T08:43:12Z</time>
      </trkpt>
      <trkpt lat="46.87467" lon="5.69221">
        <ele>296</ele>
        <time>2014-06-14T08:43:28Z</time>
      </trkpt>
      <trkpt lat="46.87426" lon="5.69209">
        <ele>297</ele>
        <time>2014-06-14T08:43:44Z</time>
      </trkpt>
      <trkpt lat="46.87385" lon="5.69194">
        <ele>300</ele>
        <time>2014-06-14T08:43:59Z</time>
      </trkpt>
      <trkpt lat="46.87342" lon="5.69172">
        <ele>300</ele>
        <time>2014-06-14T08:44:15Z</time>
      </trkpt>
      <trkpt lat="46.87296" lon="5.69155">
        <ele>302</ele>
        <time>2014-06-14T08:44:30Z</time>
      </trkpt>
      <trkpt lat="46.87209" lon="5.69163">
        <ele>300</ele>
        <time>2014-06-14T08:44:45Z</time>
      </trkpt>
      <trkpt lat="46.8711" lon="5.69182">
        <ele>296</ele>
        <time>2014-06-14T08:45:01Z</time>
      </trkpt>
      <trkpt lat="46.87006" lon="5.692">
        <ele>292</ele>
        <time>2014-06-14T08:45:16Z</time>
      </trkpt>
      <trkpt lat="46.86878" lon="5.69114">
        <ele>290</ele>
        <time>2014-06-14T08:45:32Z</time>
      </trkpt>
      <trkpt lat="46.8678" lon="5.6903">
        <ele>289</ele>
        <time>2014-06-14T08:45:48Z</time>
      </trkpt>
      <trkpt lat="46.86708" lon="5.68973">
        <ele>291</ele>
        <time>2014-06-14T08:46:04Z</time>
      </trkpt>
      <trkpt lat="46.8662" lon="5.68942">
        <ele>288</ele>
        <time>2014-06-14T08:46:20Z</time>
      </trkpt>
      <trkpt lat="46.86478" lon="5.68852">
        <ele>280</ele>
        <time>2014-06-14T08:46:36Z</time>
      </trkpt>
      <trkpt lat="46.86321" lon="5.68699">
        <ele>271</ele>
        <time>2014-06-14T08:46:52Z</time>
      </trkpt>
      <trkpt lat="46.86197" lon="5.68586">
        <ele>268</ele>
        <time>2014-06-14T08:47:07Z</time>
      </trkpt>
      <trkpt lat="46.86086" lon="5.68475">
        <ele>265</ele>
        <time>2014-06-14T08:47:23Z</time>
      </trkpt>
      <trkpt lat="46.86017" lon="5.68395">
        <ele>265</ele>
        <time>2014-06-14T08:47:39Z</time>
      </trkpt>
      <trkpt lat="46.85998" lon="5.6837">
        <ele>265</ele>
        <time>2014-06-14T08:47:55Z</time>
      </trkpt>
      <trkpt lat="46.85997" lon="5.6837">
        <ele>265</ele>
        <time>2014-06-14T08:48:10Z</time>
      </trkpt>
      <trkpt lat="46.85997" lon="5.6837">
        <ele>265</ele>
        <time>2014-06-14T08:48:26Z</time>
      </trkpt>
      <trkpt lat="46.85997" lon="5.6837">
        <ele>265</ele>
        <time>2014-06-14T08:48:41Z</time>
      </trkpt>
      <trkpt lat="46.85997" lon="5.6837">
        <ele>265</ele>
        <time>2014-06-14T08:48:56Z</time>
      </trkpt>
      <trkpt lat="46.85997" lon="5.6837">
        <ele>265</ele>
        <time>2014-06-14T08:49:11Z</time>
      </trkpt>
      <trkpt lat="46.85997" lon="5.6837">
        <ele>265</ele>
        <time>2014-06-14T08:49:27Z</time>
      </trkpt>
      <trkpt lat="46.85997" lon="5.6837">
        <ele>265</ele>
        <time>2014-06-14T08:49:42Z</time>
      </trkpt>
      <trkpt lat="46.85997" lon="5.6837">
        <ele>265</ele>
        <time>2014-06-14T08:49:58Z</time>
      </trkpt>
      <trkpt lat="46.85997" lon="5.6837">
        <ele>265</ele>
        <time>2014-06-14T08:50:13Z</time>
      </trkpt>
      <trkpt lat="46.85997" lon="5.6837">
        <ele>265</ele>
        <time>2014-06-14T08:50:29Z</time>
      </trkpt>
      <trkpt lat="46.85997" lon="5.6837">
        <ele>265</ele>
        <time>2014-06-14T08:50:44Z</time>
      </trkpt>
      <trkpt lat="46.85997" lon="5.6837">
        <ele>265</ele>
        <time>2014-06-14T08:51:00Z</time>
      </trkpt>
      <trkpt lat="46.85998" lon="5.68377">
        <ele>265</ele>
        <time>2014-06-14T08:51:15Z</time>
      </trkpt>
      <trkpt lat="46.85998" lon="5.68377">
        <ele>265</ele>
        <time>2014-06-14T08:51:31Z</time>
      </trkpt>
      <trkpt lat="46.85998" lon="5.68377">
        <ele>265</ele>
        <time>2014-06-14T08:51:47Z</time>
      </trkpt>
      <trkpt lat="46.85998" lon="5.68377">
        <ele>265</ele>
        <time>2014-06-14T08:52:03Z</time>
      </trkpt>
      <trkpt lat="46.85998" lon="5.68377">
        <ele>265</ele>
        <time>2014-06-14T08:52:18Z</time>
      </trkpt>
      <trkpt lat="46.85998" lon="5.68377">
        <ele>265</ele>
        <time>2014-06-14T08:52:34Z</time>
      </trkpt>
      <trkpt lat="46.85998" lon="5.68377">
        <ele>265</ele>
        <time>2014-06-14T08:52:49Z</time>
      </trkpt>
      <trkpt lat="46.85998" lon="5.68377">
        <ele>265</ele>
        <time>2014-06-14T08:53:05Z</time>
      </trkpt>
      <trkpt lat="46.85998" lon="5.68377">
        <ele>265</ele>
        <time>2014-06-14T08:53:20Z</time>
      </trkpt>
      <trkpt lat="46.85998" lon="5.68377">
        <ele>265</ele>
        <time>2014-06-14T08:53:35Z</time>
      </trkpt>
      <trkpt lat="46.85998" lon="5.68377">
        <ele>265</ele>
        <time>2014-06-14T08:53:50Z</time>
      </trkpt>
      <trkpt lat="46.85998" lon="5.68377">
        <ele>265</ele>
        <time>2014-06-14T08:54:06Z</time>
      </trkpt>
      <trkpt lat="46.85997" lon="5.6837">
        <ele>265</ele>
        <time>2014-06-14T08:54:22Z</time>
      </trkpt>
      <trkpt lat="46.85997" lon="5.6837">
        <ele>265</ele>
        <time>2014-06-14T08:54:37Z</time>
      </trkpt>
      <trkpt lat="46.85998" lon="5.68372">
        <ele>265</ele>
        <time>2014-06-14T08:54:53Z</time>
      </trkpt>
      <trkpt lat="46.85998" lon="5.68372">
        <ele>265</ele>
        <time>2014-06-14T08:55:09Z</time>
      </trkpt>
      <trkpt lat="46.85998" lon="5.68372">
        <ele>265</ele>
        <time>2014-06-14T08:55:25Z</time>
      </trkpt>
      <trkpt lat="46.85997" lon="5.68374">
        <ele>265</ele>
        <time>2014-06-14T08:55:40Z</time>
      </trkpt>
      <trkpt lat="46.85997" lon="5.68374">
        <ele>265</ele>
        <time>2014-06-14T08:55:56Z</time>
      </trkpt>
      <trkpt lat="46.85996" lon="5.68375">
        <ele>265</ele>
        <time>2014-06-14T08:56:11Z</time>
      </trkpt>
      <trkpt lat="46.85991" lon="5.68371">
        <ele>265</ele>
        <time>2014-06-14T08:56:27Z</time>
      </trkpt>
      <trkpt lat="46.85974" lon="5.68352">
        <ele>265</ele>
        <time>2014-06-14T08:56:42Z</time>
      </trkpt>
      <trkpt lat="46.85997" lon="5.68308">
        <ele>266</ele>
        <time>2014-06-14T08:56:58Z</time>
      </trkpt>
      <trkpt lat="46.86029" lon="5.68233">
        <ele>266</ele>
        <time>2014-06-14T08:57:14Z</time>
      </trkpt>
      <trkpt lat="46.86019" lon="5.68144">
        <ele>265</ele>
        <time>2014-06-14T08:57:29Z</time>
      </trkpt>
      <trkpt lat="46.85944" lon="5.68078">
        <ele>260</ele>
        <time>2014-06-14T08:57:45Z</time>
      </trkpt>
      <trkpt lat="46.85872" lon="5.67941">
        <ele>258</ele>
        <time>2014-06-14T08:58:01Z</time>
      </trkpt>
      <trkpt lat="46.85811" lon="5.67824">
        <ele>255</ele>
        <time>2014-06-14T08:58:17Z</time>
      </trkpt>
      <trkpt lat="46.85757" lon="5.67765">
        <ele>255</ele>
        <time>2014-06-14T08:58:33Z</time>
      </trkpt>
      <trkpt lat="46.85711" lon="5.6783">
        <ele>256</ele>
        <time>2014-06-14T08:58:48Z</time>
      </trkpt>
      <trkpt lat="46.85674" lon="5.679">
        <ele>258</ele>
        <time>2014-06-14T08:59:03Z</time>
      </trkpt>
      <trkpt lat="46.85634" lon="5.67972">
        <ele>259</ele>
        <time>2014-06-14T08:59:19Z</time>
      </trkpt>
      <trkpt lat="46.85598" lon="5.68039">
        <ele>259</ele>
        <time>2014-06-14T08:59:35Z</time>
      </trkpt>
      <trkpt lat="46.85563" lon="5.68102">
        <ele>259</ele>
        <time>2014-06-14T08:59:50Z</time>
      </trkpt>
      <trkpt lat="46.85522" lon="5.68176">
        <ele>260</ele>
        <time>2014-06-14T09:00:06Z</time>
      </trkpt>
      <trkpt lat="46.85483" lon="5.68248">
        <ele>262</ele>
        <time>2014-06-14T09:00:22Z</time>
      </trkpt>
      <trkpt lat="46.85447" lon="5.68315">
        <ele>262</ele>
        <time>2014-06-14T09:00:37Z</time>
      </trkpt>
      <trkpt lat="46.85408" lon="5.68385">
        <ele>262</ele>
        <time>2014-06-14T09:00:53Z</time>
      </trkpt>
      <trkpt lat="46.8537" lon="5.68456">
        <ele>263</ele>
        <time>2014-06-14T09:01:09Z</time>
      </trkpt>
      <trkpt lat="46.8533" lon="5.6853">
        <ele>264</ele>
        <time>2014-06-14T09:01:25Z</time>
      </trkpt>
      <trkpt lat="46.85288" lon="5.68609">
        <ele>264</ele>
        <time>2014-06-14T09:01:41Z</time>
      </trkpt>
      <trkpt lat="46.85246" lon="5.68683">
        <ele>264</ele>
        <time>2014-06-14T09:01:56Z</time>
      </trkpt>
      <trkpt lat="46.85199" lon="5.68755">
        <ele>266</ele>
        <time>2014-06-14T09:02:12Z</time>
      </trkpt>
      <trkpt lat="46.85149" lon="5.68829">
        <ele>267</ele>
        <time>2014-06-14T09:02:28Z</time>
      </trkpt>
      <trkpt lat="46.85102" lon="5.68895">
        <ele>268</ele>
        <time>2014-06-14T09:02:43Z</time>
      </trkpt>
      <trkpt lat="46.85058" lon="5.68963">
        <ele>269</ele>
        <time>2014-06-14T09:02:59Z</time>
      </trkpt>
      <trkpt lat="46.85019" lon="5.69022">
        <ele>271</ele>
        <time>2014-06-14T09:03:14Z</time>
      </trkpt>
      <trkpt lat="46.84976" lon="5.69087">
        <ele>272</ele>
        <time>2014-06-14T09:03:29Z</time>
      </trkpt>
      <trkpt lat="46.84934" lon="5.69148">
        <ele>272</ele>
        <time>2014-06-14T09:03:45Z</time>
      </trkpt>
      <trkpt lat="46.84896" lon="5.69203">
        <ele>273</ele>
        <time>2014-06-14T09:04:00Z</time>
      </trkpt>
      <trkpt lat="46.8486" lon="5.69265">
        <ele>274</ele>
        <time>2014-06-14T09:04:16Z</time>
      </trkpt>
      <trkpt lat="46.84821" lon="5.69323">
        <ele>277</ele>
        <time>2014-06-14T09:04:32Z</time>
      </trkpt>
      <trkpt lat="46.84784" lon="5.69369">
        <ele>278</ele>
        <time>2014-06-14T09:04:47Z</time>
      </trkpt>
      <trkpt lat="46.84741" lon="5.69337">
        <ele>278</ele>
        <time>2014-06-14T09:05:03Z</time>
      </trkpt>
      <trkpt lat="46.84688" lon="5.69296">
        <ele>277</ele>
        <time>2014-06-14T09:05:19Z</time>
      </trkpt>
      <trkpt lat="46.84629" lon="5.6924">
        <ele>275</ele>
        <time>2014-06-14T09:05:34Z</time>
      </trkpt>
      <trkpt lat="46.84564" lon="5.69196">
        <ele>274</ele>
        <time>2014-06-14T09:05:49Z</time>
      </trkpt>
      <trkpt lat="46.84507" lon="5.69228">
        <ele>275</ele>
        <time>2014-06-14T09:06:05Z</time>
      </trkpt>
      <trkpt lat="46.84487" lon="5.69316">
        <ele>277</ele>
        <time>2014-06-14T09:06:21Z</time>
      </trkpt>
      <trkpt lat="46.84472" lon="5.69402">
        <ele>277</ele>
        <time>2014-06-14T09:06:37Z</time>
      </trkpt>
      <trkpt lat="46.84449" lon="5.69469">
        <ele>279</ele>
        <time>2014-06-14T09:06:53Z</time>
      </trkpt>
      <trkpt lat="46.84397" lon="5.69433">
        <ele>280</ele>
        <time>2014-06-14T09:07:09Z</time>
      </trkpt>
      <trkpt lat="46.84347" lon="5.69403">
        <ele>280</ele>
        <time>2014-06-14T09:07:24Z</time>
      </trkpt>
      <trkpt lat="46.843" lon="5.69379">
        <ele>282</ele>
        <time>2014-06-14T09:07:39Z</time>
      </trkpt>
      <trkpt lat="46.84266" lon="5.69379">
        <ele>283</ele>
        <time>2014-06-14T09:07:55Z</time>
      </trkpt>
      <trkpt lat="46.84232" lon="5.69429">
        <ele>286</ele>
        <time>2014-06-14T09:08:10Z</time>
      </trkpt>
      <trkpt lat="46.84213" lon="5.69494">
        <ele>286</ele>
        <time>2014-06-14T09:08:26Z</time>
      </trkpt>
      <trkpt lat="46.84193" lon="5.69558">
        <ele>288</ele>
        <time>2014-06-14T09:08:41Z</time>
      </trkpt>
      <trkpt lat="46.8415" lon="5.69607">
        <ele>291</ele>
        <time>2014-06-14T09:08:57Z</time>
      </trkpt>
      <trkpt lat="46.84107" lon="5.6964">
        <ele>292</ele>
        <time>2014-06-14T09:09:12Z</time>
      </trkpt>
      <trkpt lat="46.84069" lon="5.69664">
        <ele>294</ele>
        <time>2014-06-14T09:09:27Z</time>
      </trkpt>
      <trkpt lat="46.84024" lon="5.69695">
        <ele>296</ele>
        <time>2014-06-14T09:09:43Z</time>
      </trkpt>
      <trkpt lat="46.83985" lon="5.69723">
        <ele>297</ele>
        <time>2014-06-14T09:09:58Z</time>
      </trkpt>
      <trkpt lat="46.83928" lon="5.6973">
        <ele>297</ele>
        <time>2014-06-14T09:10:13Z</time>
      </trkpt>
      <trkpt lat="46.83877" lon="5.69765">
        <ele>299</ele>
        <time>2014-06-14T09:10:28Z</time>
      </trkpt>
      <trkpt lat="46.8384" lon="5.69823">
        <ele>301</ele>
        <time>2014-06-14T09:10:44Z</time>
      </trkpt>
      <trkpt lat="46.83816" lon="5.69861">
        <ele>303</ele>
        <time>2014-06-14T09:11:00Z</time>
      </trkpt>
      <trkpt lat="46.8379" lon="5.69895">
        <ele>304</ele>
        <time>2014-06-14T09:11:16Z</time>
      </trkpt>
      <trkpt lat="46.83759" lon="5.6993">
        <ele>305</ele>
        <time>2014-06-14T09:11:32Z</time>
      </trkpt>
      <trkpt lat="46.83729" lon="5.69962">
        <ele>307</ele>
        <time>2014-06-14T09:11:47Z</time>
      </trkpt>
      <trkpt lat="46.837" lon="5.69994">
        <ele>308</ele>
        <time>2014-06-14T09:12:03Z</time>
      </trkpt>
      <trkpt lat="46.8367" lon="5.70026">
        <ele>310</ele>
        <time>2014-06-14T09:12:19Z</time>
      </trkpt>
      <trkpt lat="46.83653" lon="5.70044">
        <ele>312</ele>
        <time>2014-06-14T09:12:34Z</time>
      </trkpt>
      <trkpt lat="46.83653" lon="5.70044">
        <ele>312</ele>
        <time>2014-06-14T09:12:50Z</time>
      </trkpt>
      <trkpt lat="46.83655" lon="5.70042">
        <ele>312</ele>
        <time>2014-06-14T09:13:06Z</time>
      </trkpt>
      <trkpt lat="46.83655" lon="5.70042">
        <ele>312</ele>
        <time>2014-06-14T09:13:21Z</time>
      </trkpt>
      <trkpt lat="46.83655" lon="5.70042">
        <ele>312</ele>
        <time>2014-06-14T09:13:37Z</time>
      </trkpt>
      <trkpt lat="46.83655" lon="5.70042">
        <ele>312</ele>
        <time>2014-06-14T09:13:53Z</time>
      </trkpt>
      <trkpt lat="46.83655" lon="5.70042">
        <ele>312</ele>
        <time>2014-06-14T09:14:09Z</time>
      </trkpt>
      <trkpt lat="46.83654" lon="5.70043">
        <ele>312</ele>
        <time>2014-06-14T09:14:25Z</time>
      </trkpt>
      <trkpt lat="46.83654" lon="5.70043">
        <ele>312</ele>
        <time>2014-06-14T09:14:40Z</time>
      </trkpt>
      <trkpt lat="46.83654" lon="5.70043">
        <ele>312</ele>
        <time>2014-06-14T09:14:56Z</time>
      </trkpt>
      <trkpt lat="46.83654" lon="5.70043">
        <ele>312</ele>
        <time>2014-06-14T09:15:11Z</time>
      </trkpt>
      <trkpt lat="46.83654" lon="5.70043">
        <ele>312</ele>
        <time>2014-06-14T09:15:27Z</time>
      </trkpt>
      <trkpt lat="46.83654" lon="5.70043">
        <ele>312</ele>
        <time>2014-06-14T09:15:43Z</time>
      </trkpt>
      <trkpt lat="46.83654" lon="5.70043">
        <ele>312</ele>
        <time>2014-06-14T09:15:58Z</time>
      </trkpt>
      <trkpt lat="46.83654" lon="5.70043">
        <ele>312</ele>
        <time>2014-06-14T09:16:13Z</time>
      </trkpt>
      <trkpt lat="46.83654" lon="5.70043">
        <ele>312</ele>
        <time>2014-06-14T09:16:28Z</time>
      </trkpt>
      <trkpt lat="46.83654" lon="5.70043">
        <ele>312</ele>
        <time>2014-06-14T09:16:44Z</time>
      </trkpt>
      <trkpt lat="46.83654" lon="5.70043">
        <ele>312</ele>
        <time>2014-06-14T09:17:00Z</time>
      </trkpt>
      <trkpt lat="46.83654" lon="5.70043">
        <ele>312</ele>
        <time>2014-06-14T09:17:15Z</time>
      </trkpt>
      <trkpt lat="46.83654" lon="5.70043">
        <ele>312</ele>
        <time>2014-06-14T09:17:30Z</time>
      </trkpt>
      <trkpt lat="46.83654" lon="5.70043">
        <ele>312</ele>
        <time>2014-06-14T09:17:46Z</time>
      </trkpt>
      <trkpt lat="46.83654" lon="5.70043">
        <ele>312</ele>
        <time>2014-06-14T09:18:01Z</time>
      </trkpt>
      <trkpt lat="46.83653" lon="5.70044">
        <ele>312</ele>
        <time>2014-06-14T09:18:17Z</time>
      </trkpt>
      <trkpt lat="46.83653" lon="5.70044">
        <ele>312</ele>
        <time>2014-06-14T09:18:33Z</time>
      </trkpt>
      <trkpt lat="46.83653" lon="5.70044">
        <ele>312</ele>
        <time>2014-06-14T09:18:49Z</time>
      </trkpt>
      <trkpt lat="46.83653" lon="5.70044">
        <ele>312</ele>
        <time>2014-06-14T09:19:04Z</time>
      </trkpt>
      <trkpt lat="46.83653" lon="5.70044">
        <ele>312</ele>
        <time>2014-06-14T09:19:19Z</time>
      </trkpt>
      <trkpt lat="46.83653" lon="5.70044">
        <ele>312</ele>
        <time>2014-06-14T09:19:34Z</time>
      </trkpt>
      <trkpt lat="46.83653" lon="5.70044">
        <ele>312</ele>
        <time>2014-06-14T09:19:49Z</time>
      </trkpt>
      <trkpt lat="46.83653" lon="5.70044">
        <ele>312</ele>
        <time>2014-06-14T09:20:05Z</time>
      </trkpt>
      <trkpt lat="46.83653" lon="5.70044">
        <ele>312</ele>
        <time>2014-06-14T09:20:21Z</time>
      </trkpt>
      <trkpt lat="46.83653" lon="5.70044">
        <ele>312</ele>
        <time>2014-06-14T09:20:36Z</time>
      </trkpt>
      <trkpt lat="46.83653" lon="5.70044">
        <ele>312</ele>
        <time>2014-06-14T09:20:52Z</time>
      </trkpt>
      <trkpt lat="46.83653" lon="5.70044">
        <ele>312</ele>
        <time>2014-06-14T09:21:08Z</time>
      </trkpt>
      <trkpt lat="46.83653" lon="5.70044">
        <ele>312</ele>
        <time>2014-06-14T09:21:24Z</time>
      </trkpt>
      <trkpt lat="46.83653" lon="5.70044">
        <ele>312</ele>
        <time>2014-06-14T09:21:40Z</time>
      </trkpt>
      <trkpt lat="46.83653" lon="5.70044">
        <ele>312</ele>
        <time>2014-06-14T09:21:55Z</time>
      </trkpt>
      <trkpt lat="46.83653" lon="5.70044">
        <ele>312</ele>
        <time>2014-06-14T09:22:11Z</time>
      </trkpt>
      <trkpt lat="46.83652" lon="5.70045">
        <ele>312</ele>
        <time>2014-06-14T09:22:27Z</time>
      </trkpt>
      <trkpt lat="46.83652" lon="5.70046">
        <ele>312</ele>
        <time>2014-06-14T09:22:42Z</time>
      </trkpt>
      <trkpt lat="46.83652" lon="5.70045">
        <ele>312</ele>
        <time>2014-06-14T09:22:58Z</time>
      </trkpt>
      <trkpt lat="46.83642" lon="5.70056">
        <ele>312</ele>
        <time>2014-06-14T09:23:14Z</time>
      </trkpt>
      <trkpt lat="46.83638" lon="5.70067">
        <ele>312</ele>
        <time>2014-06-14T09:23:29Z</time>
      </trkpt>
      <trkpt lat="46.83659" lon="5.70102">
        <ele>313</ele>
        <time>2014-06-14T09:23:45Z</time>
      </trkpt>
      <trkpt lat="46.83709" lon="5.70134">
        <ele>312</ele>
        <time>2014-06-14T09:24:00Z</time>
      </trkpt>
      <trkpt lat="46.83765" lon="5.70161">
        <ele>311</ele>
        <time>2014-06-14T09:24:16Z</time>
      </trkpt>
      <trkpt lat="46.83815" lon="5.7021">
        <ele>312</ele>
        <time>2014-06-14T09:24:32Z</time>
      </trkpt>
      <trkpt lat="46.83858" lon="5.7025">
        <ele>311</ele>
        <time>2014-06-14T09:24:48Z</time>
      </trkpt>
      <trkpt lat="46.83874" lon="5.70264">
        <ele>312</ele>
        <time>2014-06-14T09:25:04Z</time>
      </trkpt>
      <trkpt lat="46.83907" lon="5.70282">
        <ele>312</ele>
        <time>2014-06-14T09:25:20Z</time>
      </trkpt>
      <trkpt lat="46.8396" lon="5.70301">
        <ele>311</ele>
        <time>2014-06-14T09:25:36Z</time>
      </trkpt>
      <trkpt lat="46.84012" lon="5.7031">
        <ele>309</ele>
        <time>2014-06-14T09:25:51Z</time>
      </trkpt>
      <trkpt lat="46.84078" lon="5.70321">
        <ele>308</ele>
        <time>2014-06-14T09:26:07Z</time>
      </trkpt>
      <trkpt lat="46.84135" lon="5.7034">
        <ele>307</ele>
        <time>2014-06-14T09:26:22Z</time>
      </trkpt>
      <trkpt lat="46.84151" lon="5.70407">
        <ele>307</ele>
        <time>2014-06-14T09:26:37Z</time>
      </trkpt>
      <trkpt lat="46.84182" lon="5.70459">
        <ele>306</ele>
        <time>2014-06-14T09:26:52Z</time>
      </trkpt>
      <trkpt lat="46.84186" lon="5.7053">
        <ele>306</ele>
        <time>2014-06-14T09:27:08Z</time>
      </trkpt>
      <trkpt lat="46.8418" lon="5.70575">
        <ele>307</ele>
        <time>2014-06-14T09:27:24Z</time>
      </trkpt>
      <trkpt lat="46.84149" lon="5.70615">
        <ele>309</ele>
        <time>2014-06-14T09:27:39Z</time>
      </trkpt>
      <trkpt lat="46.84119" lon="5.70648">
        <ele>309</ele>
        <time>2014-06-14T09:27:55Z</time>
      </trkpt>
      <trkpt lat="46.84082" lon="5.70701">
        <ele>309</ele>
        <time>2014-06-14T09:28:10Z</time>
      </trkpt>
      <trkpt lat="46.84062" lon="5.7073">
        <ele>309</ele>
        <time>2014-06-14T09:28:25Z</time>
      </trkpt>
      <trkpt lat="46.84026" lon="5.70777">
        <ele>310</ele>
        <time>2014-06-14T09:28:41Z</time>
      </trkpt>
      <trkpt lat="46.83991" lon="5.70822">
        <ele>312</ele>
        <time>2014-06-14T09:28:56Z</time>
      </trkpt>
      <trkpt lat="46.83962" lon="5.70865">
        <ele>314</ele>
        <time>2014-06-14T09:29:11Z</time>
      </trkpt>
      <trkpt lat="46.83932" lon="5.70906">
        <ele>317</ele>
        <time>2014-06-14T09:29:27Z</time>
      </trkpt>
      <trkpt lat="46.83907" lon="5.70934">
        <ele>320</ele>
        <time>2014-06-14T09:29:43Z</time>
      </trkpt>
      <trkpt lat="46.83874" lon="5.70944">
        <ele>321</ele>
        <time>2014-06-14T09:29:58Z</time>
      </trkpt>
      <trkpt lat="46.83832" lon="5.70934">
        <ele>324</ele>
        <time>2014-06-14T09:30:13Z</time>
      </trkpt>
      <trkpt lat="46.83811" lon="5.70928">
        <ele>324</ele>
        <time>2014-06-14T09:30:29Z</time>
      </trkpt>
      <trkpt lat="46.83793" lon="5.70922">
        <ele>325</ele>
        <time>2014-06-14T09:30:45Z</time>
      </trkpt>
      <trkpt lat="46.83793" lon="5.70922">
        <ele>325</ele>
        <time>2014-06-14T09:31:00Z</time>
      </trkpt>
      <trkpt lat="46.83793" lon="5.70922">
        <ele>325</ele>
        <time>2014-06-14T09:31:15Z</time>
      </trkpt>
      <trkpt lat="46.83793" lon="5.70922">
        <ele>325</ele>
        <time>2014-06-14T09:31:31Z</time>
      </trkpt>
      <trkpt lat="46.8379" lon="5.70925">
        <ele>325</ele>
        <time>2014-06-14T09:31:47Z</time>
      </trkpt>
    </trkseg>
  </trk>
</gpx>